<?xml version="1.0" encoding="UTF-8" standalone="no" ?>
<gpx xmlns="http://www.topografix.com/GPX/1/1" xmlns:xsi="http://www.w3.org/2001/XMLSchema-instance" xsi:schemaLocation="http://www.topografix.com/GPX/1/1 http://www.topografix.com/GPX/1/1/gpx.xsd" version="1.1" creator="VisuGPX - https://www.visugpx.com">
  <metadata>
    <name>Rando - Sur les traces de Pagnol</name>
    <desc><![CDATA[Très chouette rando sur les traces de Pagnol.]]></desc>
  </metadata>
  <trk>
    <name><![CDATA[03-FEV-19 11:38:12]]></name>
    <trkseg>
      <trkpt lat="43.31486" lon="5.53674">
        <ele>282.77</ele>
        <time>2019-02-03T07:18:21Z</time>
      </trkpt>
      <trkpt lat="43.31486" lon="5.53674">
        <ele>282.28</ele>
        <time>2019-02-03T07:18:29Z</time>
      </trkpt>
      <trkpt lat="43.31489" lon="5.53671">
        <ele>283.73</ele>
        <time>2019-02-03T07:18:44Z</time>
      </trkpt>
      <trkpt lat="43.31489" lon="5.53671">
        <ele>282.77</ele>
        <time>2019-02-03T07:18:55Z</time>
      </trkpt>
      <trkpt lat="43.31489" lon="5.53671">
        <ele>281.8</ele>
        <time>2019-02-03T07:19:08Z</time>
      </trkpt>
      <trkpt lat="43.31493" lon="5.53676">
        <ele>285.17</ele>
        <time>2019-02-03T07:19:13Z</time>
      </trkpt>
      <trkpt lat="43.31494" lon="5.53676">
        <ele>281.8</ele>
        <time>2019-02-03T07:19:14Z</time>
      </trkpt>
      <trkpt lat="43.31495" lon="5.53676">
        <ele>281.8</ele>
        <time>2019-02-03T07:19:19Z</time>
      </trkpt>
      <trkpt lat="43.31495" lon="5.53676">
        <ele>277.96</ele>
        <time>2019-02-03T07:19:20Z</time>
      </trkpt>
      <trkpt lat="43.31495" lon="5.53677">
        <ele>287.09</ele>
        <time>2019-02-03T07:19:21Z</time>
      </trkpt>
      <trkpt lat="43.31496" lon="5.53677">
        <ele>281.8</ele>
        <time>2019-02-03T07:19:22Z</time>
      </trkpt>
      <trkpt lat="43.3151" lon="5.53679">
        <ele>281.8</ele>
        <time>2019-02-03T07:19:31Z</time>
      </trkpt>
      <trkpt lat="43.31514" lon="5.53677">
        <ele>281.32</ele>
        <time>2019-02-03T07:19:34Z</time>
      </trkpt>
      <trkpt lat="43.31522" lon="5.53673">
        <ele>277.96</ele>
        <time>2019-02-03T07:19:41Z</time>
      </trkpt>
      <trkpt lat="43.31523" lon="5.53673">
        <ele>283.25</ele>
        <time>2019-02-03T07:19:42Z</time>
      </trkpt>
      <trkpt lat="43.31526" lon="5.53672">
        <ele>280.84</ele>
        <time>2019-02-03T07:19:45Z</time>
      </trkpt>
      <trkpt lat="43.31527" lon="5.53672">
        <ele>276.04</ele>
        <time>2019-02-03T07:19:46Z</time>
      </trkpt>
      <trkpt lat="43.31529" lon="5.53672">
        <ele>284.21</ele>
        <time>2019-02-03T07:19:47Z</time>
      </trkpt>
      <trkpt lat="43.3153" lon="5.53671">
        <ele>279.4</ele>
        <time>2019-02-03T07:19:48Z</time>
      </trkpt>
      <trkpt lat="43.31531" lon="5.5367">
        <ele>282.77</ele>
        <time>2019-02-03T07:19:49Z</time>
      </trkpt>
      <trkpt lat="43.31532" lon="5.53669">
        <ele>277</ele>
        <time>2019-02-03T07:19:50Z</time>
      </trkpt>
      <trkpt lat="43.31533" lon="5.53669">
        <ele>287.09</ele>
        <time>2019-02-03T07:19:51Z</time>
      </trkpt>
      <trkpt lat="43.31534" lon="5.53668">
        <ele>276.52</ele>
        <time>2019-02-03T07:19:52Z</time>
      </trkpt>
      <trkpt lat="43.31536" lon="5.53668">
        <ele>283.73</ele>
        <time>2019-02-03T07:19:53Z</time>
      </trkpt>
      <trkpt lat="43.31537" lon="5.53668">
        <ele>273.15</ele>
        <time>2019-02-03T07:19:54Z</time>
      </trkpt>
      <trkpt lat="43.31539" lon="5.53667">
        <ele>276.52</ele>
        <time>2019-02-03T07:19:55Z</time>
      </trkpt>
      <trkpt lat="43.31542" lon="5.53666">
        <ele>290.46</ele>
        <time>2019-02-03T07:19:57Z</time>
      </trkpt>
      <trkpt lat="43.31543" lon="5.53666">
        <ele>282.77</ele>
        <time>2019-02-03T07:19:58Z</time>
      </trkpt>
      <trkpt lat="43.31547" lon="5.53664">
        <ele>281.8</ele>
        <time>2019-02-03T07:20:01Z</time>
      </trkpt>
      <trkpt lat="43.31556" lon="5.53656">
        <ele>268.35</ele>
        <time>2019-02-03T07:20:09Z</time>
      </trkpt>
      <trkpt lat="43.31556" lon="5.53655">
        <ele>295.74</ele>
        <time>2019-02-03T07:20:10Z</time>
      </trkpt>
      <trkpt lat="43.31556" lon="5.53655">
        <ele>281.8</ele>
        <time>2019-02-03T07:20:11Z</time>
      </trkpt>
      <trkpt lat="43.31556" lon="5.53655">
        <ele>277</ele>
        <time>2019-02-03T07:20:14Z</time>
      </trkpt>
      <trkpt lat="43.31556" lon="5.53655">
        <ele>284.21</ele>
        <time>2019-02-03T07:20:15Z</time>
      </trkpt>
      <trkpt lat="43.31556" lon="5.53655">
        <ele>277.48</ele>
        <time>2019-02-03T07:20:16Z</time>
      </trkpt>
      <trkpt lat="43.31556" lon="5.53655">
        <ele>289.49</ele>
        <time>2019-02-03T07:20:17Z</time>
      </trkpt>
      <trkpt lat="43.31556" lon="5.53655">
        <ele>282.28</ele>
        <time>2019-02-03T07:20:18Z</time>
      </trkpt>
      <trkpt lat="43.31557" lon="5.53655">
        <ele>282.77</ele>
        <time>2019-02-03T07:20:19Z</time>
      </trkpt>
      <trkpt lat="43.31557" lon="5.53656">
        <ele>282.77</ele>
        <time>2019-02-03T07:20:20Z</time>
      </trkpt>
      <trkpt lat="43.31556" lon="5.53662">
        <ele>282.28</ele>
        <time>2019-02-03T07:20:24Z</time>
      </trkpt>
      <trkpt lat="43.31557" lon="5.53667">
        <ele>281.32</ele>
        <time>2019-02-03T07:20:27Z</time>
      </trkpt>
      <trkpt lat="43.31559" lon="5.53688">
        <ele>280.36</ele>
        <time>2019-02-03T07:20:40Z</time>
      </trkpt>
      <trkpt lat="43.31559" lon="5.53699">
        <ele>279.4</ele>
        <time>2019-02-03T07:20:45Z</time>
      </trkpt>
      <trkpt lat="43.3156" lon="5.53711">
        <ele>278.44</ele>
        <time>2019-02-03T07:20:52Z</time>
      </trkpt>
      <trkpt lat="43.31563" lon="5.53741">
        <ele>277.48</ele>
        <time>2019-02-03T07:21:07Z</time>
      </trkpt>
      <trkpt lat="43.31563" lon="5.53757">
        <ele>272.19</ele>
        <time>2019-02-03T07:21:15Z</time>
      </trkpt>
      <trkpt lat="43.31563" lon="5.5376">
        <ele>278.92</ele>
        <time>2019-02-03T07:21:16Z</time>
      </trkpt>
      <trkpt lat="43.31564" lon="5.53761">
        <ele>276.04</ele>
        <time>2019-02-03T07:21:17Z</time>
      </trkpt>
      <trkpt lat="43.31565" lon="5.53766">
        <ele>265.94</ele>
        <time>2019-02-03T07:21:21Z</time>
      </trkpt>
      <trkpt lat="43.31565" lon="5.53766">
        <ele>286.13</ele>
        <time>2019-02-03T07:21:22Z</time>
      </trkpt>
      <trkpt lat="43.31565" lon="5.53766">
        <ele>276.04</ele>
        <time>2019-02-03T07:21:23Z</time>
      </trkpt>
      <trkpt lat="43.31565" lon="5.53766">
        <ele>274.59</ele>
        <time>2019-02-03T07:21:36Z</time>
      </trkpt>
      <trkpt lat="43.31565" lon="5.53766">
        <ele>276.04</ele>
        <time>2019-02-03T07:21:39Z</time>
      </trkpt>
      <trkpt lat="43.31565" lon="5.53766">
        <ele>275.56</ele>
        <time>2019-02-03T07:21:44Z</time>
      </trkpt>
      <trkpt lat="43.31565" lon="5.53768">
        <ele>274.59</ele>
        <time>2019-02-03T07:21:46Z</time>
      </trkpt>
      <trkpt lat="43.31566" lon="5.53775">
        <ele>275.56</ele>
        <time>2019-02-03T07:21:50Z</time>
      </trkpt>
      <trkpt lat="43.31567" lon="5.53779">
        <ele>274.59</ele>
        <time>2019-02-03T07:21:55Z</time>
      </trkpt>
      <trkpt lat="43.31572" lon="5.53781">
        <ele>273.15</ele>
        <time>2019-02-03T07:22:01Z</time>
      </trkpt>
      <trkpt lat="43.31579" lon="5.53786">
        <ele>270.75</ele>
        <time>2019-02-03T07:22:11Z</time>
      </trkpt>
      <trkpt lat="43.3158" lon="5.53785">
        <ele>270.27</ele>
        <time>2019-02-03T07:22:13Z</time>
      </trkpt>
      <trkpt lat="43.3158" lon="5.53783">
        <ele>269.31</ele>
        <time>2019-02-03T07:22:16Z</time>
      </trkpt>
      <trkpt lat="43.3158" lon="5.5378">
        <ele>268.83</ele>
        <time>2019-02-03T07:22:18Z</time>
      </trkpt>
      <trkpt lat="43.31586" lon="5.53762">
        <ele>267.86</ele>
        <time>2019-02-03T07:22:28Z</time>
      </trkpt>
      <trkpt lat="43.31589" lon="5.53758">
        <ele>267.38</ele>
        <time>2019-02-03T07:22:31Z</time>
      </trkpt>
      <trkpt lat="43.31591" lon="5.53756">
        <ele>267.38</ele>
        <time>2019-02-03T07:22:32Z</time>
      </trkpt>
      <trkpt lat="43.31598" lon="5.5375">
        <ele>266.42</ele>
        <time>2019-02-03T07:22:36Z</time>
      </trkpt>
      <trkpt lat="43.31602" lon="5.53744">
        <ele>265.46</ele>
        <time>2019-02-03T07:22:39Z</time>
      </trkpt>
      <trkpt lat="43.31604" lon="5.53738">
        <ele>264.02</ele>
        <time>2019-02-03T07:22:44Z</time>
      </trkpt>
      <trkpt lat="43.31606" lon="5.53722">
        <ele>262.1</ele>
        <time>2019-02-03T07:22:52Z</time>
      </trkpt>
      <trkpt lat="43.31606" lon="5.53716">
        <ele>261.14</ele>
        <time>2019-02-03T07:22:56Z</time>
      </trkpt>
      <trkpt lat="43.31605" lon="5.53714">
        <ele>260.65</ele>
        <time>2019-02-03T07:22:57Z</time>
      </trkpt>
      <trkpt lat="43.31604" lon="5.53711">
        <ele>260.17</ele>
        <time>2019-02-03T07:22:59Z</time>
      </trkpt>
      <trkpt lat="43.31606" lon="5.53703">
        <ele>259.21</ele>
        <time>2019-02-03T07:23:02Z</time>
      </trkpt>
      <trkpt lat="43.31607" lon="5.53701">
        <ele>259.21</ele>
        <time>2019-02-03T07:23:03Z</time>
      </trkpt>
      <trkpt lat="43.3161" lon="5.53693">
        <ele>259.21</ele>
        <time>2019-02-03T07:23:07Z</time>
      </trkpt>
      <trkpt lat="43.31613" lon="5.53689">
        <ele>257.29</ele>
        <time>2019-02-03T07:23:11Z</time>
      </trkpt>
      <trkpt lat="43.31614" lon="5.53687">
        <ele>257.29</ele>
        <time>2019-02-03T07:23:12Z</time>
      </trkpt>
      <trkpt lat="43.31616" lon="5.53675">
        <ele>256.33</ele>
        <time>2019-02-03T07:23:21Z</time>
      </trkpt>
      <trkpt lat="43.31615" lon="5.53662">
        <ele>256.33</ele>
        <time>2019-02-03T07:23:27Z</time>
      </trkpt>
      <trkpt lat="43.31617" lon="5.53658">
        <ele>256.81</ele>
        <time>2019-02-03T07:23:29Z</time>
      </trkpt>
      <trkpt lat="43.31621" lon="5.53653">
        <ele>256.33</ele>
        <time>2019-02-03T07:23:37Z</time>
      </trkpt>
      <trkpt lat="43.31634" lon="5.53653">
        <ele>256.33</ele>
        <time>2019-02-03T07:23:41Z</time>
      </trkpt>
      <trkpt lat="43.3164" lon="5.53655">
        <ele>255.85</ele>
        <time>2019-02-03T07:23:45Z</time>
      </trkpt>
      <trkpt lat="43.31644" lon="5.53665">
        <ele>255.85</ele>
        <time>2019-02-03T07:23:53Z</time>
      </trkpt>
      <trkpt lat="43.31649" lon="5.53671">
        <ele>254.89</ele>
        <time>2019-02-03T07:23:58Z</time>
      </trkpt>
      <trkpt lat="43.31652" lon="5.53671">
        <ele>254.89</ele>
        <time>2019-02-03T07:24:00Z</time>
      </trkpt>
      <trkpt lat="43.31659" lon="5.53673">
        <ele>253.93</ele>
        <time>2019-02-03T07:24:08Z</time>
      </trkpt>
      <trkpt lat="43.3166" lon="5.5367">
        <ele>253.93</ele>
        <time>2019-02-03T07:24:10Z</time>
      </trkpt>
      <trkpt lat="43.31661" lon="5.53667">
        <ele>252.96</ele>
        <time>2019-02-03T07:24:13Z</time>
      </trkpt>
      <trkpt lat="43.31663" lon="5.53663">
        <ele>252.48</ele>
        <time>2019-02-03T07:24:15Z</time>
      </trkpt>
      <trkpt lat="43.31672" lon="5.53652">
        <ele>251.52</ele>
        <time>2019-02-03T07:24:26Z</time>
      </trkpt>
      <trkpt lat="43.31679" lon="5.53646">
        <ele>251.52</ele>
        <time>2019-02-03T07:24:30Z</time>
      </trkpt>
      <trkpt lat="43.31685" lon="5.53641">
        <ele>251.52</ele>
        <time>2019-02-03T07:24:36Z</time>
      </trkpt>
      <trkpt lat="43.31687" lon="5.53632">
        <ele>252.96</ele>
        <time>2019-02-03T07:24:40Z</time>
      </trkpt>
      <trkpt lat="43.31693" lon="5.53618">
        <ele>252</ele>
        <time>2019-02-03T07:24:51Z</time>
      </trkpt>
      <trkpt lat="43.31694" lon="5.53614">
        <ele>251.52</ele>
        <time>2019-02-03T07:24:54Z</time>
      </trkpt>
      <trkpt lat="43.31704" lon="5.53616">
        <ele>248.64</ele>
        <time>2019-02-03T07:25:01Z</time>
      </trkpt>
      <trkpt lat="43.31705" lon="5.53624">
        <ele>249.12</ele>
        <time>2019-02-03T07:25:06Z</time>
      </trkpt>
      <trkpt lat="43.31705" lon="5.53629">
        <ele>248.64</ele>
        <time>2019-02-03T07:25:09Z</time>
      </trkpt>
      <trkpt lat="43.31705" lon="5.53632">
        <ele>249.12</ele>
        <time>2019-02-03T07:25:12Z</time>
      </trkpt>
      <trkpt lat="43.31703" lon="5.53645">
        <ele>250.08</ele>
        <time>2019-02-03T07:25:20Z</time>
      </trkpt>
      <trkpt lat="43.31705" lon="5.53647">
        <ele>249.12</ele>
        <time>2019-02-03T07:25:22Z</time>
      </trkpt>
      <trkpt lat="43.31704" lon="5.53667">
        <ele>248.64</ele>
        <time>2019-02-03T07:25:30Z</time>
      </trkpt>
      <trkpt lat="43.31702" lon="5.53688">
        <ele>251.52</ele>
        <time>2019-02-03T07:25:43Z</time>
      </trkpt>
      <trkpt lat="43.31703" lon="5.5369">
        <ele>251.52</ele>
        <time>2019-02-03T07:25:47Z</time>
      </trkpt>
      <trkpt lat="43.31706" lon="5.53693">
        <ele>251.52</ele>
        <time>2019-02-03T07:25:50Z</time>
      </trkpt>
      <trkpt lat="43.31712" lon="5.53692">
        <ele>253.44</ele>
        <time>2019-02-03T07:26:02Z</time>
      </trkpt>
      <trkpt lat="43.31717" lon="5.53693">
        <ele>254.89</ele>
        <time>2019-02-03T07:26:08Z</time>
      </trkpt>
      <trkpt lat="43.31725" lon="5.53707">
        <ele>257.77</ele>
        <time>2019-02-03T07:26:19Z</time>
      </trkpt>
      <trkpt lat="43.31725" lon="5.53707">
        <ele>257.77</ele>
        <time>2019-02-03T07:26:24Z</time>
      </trkpt>
      <trkpt lat="43.31726" lon="5.53708">
        <ele>257.29</ele>
        <time>2019-02-03T07:26:27Z</time>
      </trkpt>
      <trkpt lat="43.31735" lon="5.53703">
        <ele>258.73</ele>
        <time>2019-02-03T07:26:38Z</time>
      </trkpt>
      <trkpt lat="43.31747" lon="5.53699">
        <ele>261.14</ele>
        <time>2019-02-03T07:26:51Z</time>
      </trkpt>
      <trkpt lat="43.31758" lon="5.53701">
        <ele>260.65</ele>
        <time>2019-02-03T07:26:59Z</time>
      </trkpt>
      <trkpt lat="43.31767" lon="5.53706">
        <ele>261.62</ele>
        <time>2019-02-03T07:27:07Z</time>
      </trkpt>
      <trkpt lat="43.3178" lon="5.53714">
        <ele>262.58</ele>
        <time>2019-02-03T07:27:17Z</time>
      </trkpt>
      <trkpt lat="43.31786" lon="5.53718">
        <ele>263.06</ele>
        <time>2019-02-03T07:27:21Z</time>
      </trkpt>
      <trkpt lat="43.31788" lon="5.53719">
        <ele>263.54</ele>
        <time>2019-02-03T07:27:23Z</time>
      </trkpt>
      <trkpt lat="43.31797" lon="5.53727">
        <ele>263.54</ele>
        <time>2019-02-03T07:27:32Z</time>
      </trkpt>
      <trkpt lat="43.31804" lon="5.53739">
        <ele>263.54</ele>
        <time>2019-02-03T07:27:40Z</time>
      </trkpt>
      <trkpt lat="43.31811" lon="5.53748">
        <ele>264.5</ele>
        <time>2019-02-03T07:27:46Z</time>
      </trkpt>
      <trkpt lat="43.31814" lon="5.53749">
        <ele>264.5</ele>
        <time>2019-02-03T07:27:49Z</time>
      </trkpt>
      <trkpt lat="43.31821" lon="5.53747">
        <ele>265.46</ele>
        <time>2019-02-03T07:28:01Z</time>
      </trkpt>
      <trkpt lat="43.31822" lon="5.53747">
        <ele>265.46</ele>
        <time>2019-02-03T07:28:14Z</time>
      </trkpt>
      <trkpt lat="43.31822" lon="5.53748">
        <ele>265.94</ele>
        <time>2019-02-03T07:28:29Z</time>
      </trkpt>
      <trkpt lat="43.31829" lon="5.53743">
        <ele>266.9</ele>
        <time>2019-02-03T07:28:40Z</time>
      </trkpt>
      <trkpt lat="43.31831" lon="5.53742">
        <ele>268.35</ele>
        <time>2019-02-03T07:28:42Z</time>
      </trkpt>
      <trkpt lat="43.31837" lon="5.53745">
        <ele>270.27</ele>
        <time>2019-02-03T07:28:49Z</time>
      </trkpt>
      <trkpt lat="43.3184" lon="5.53753">
        <ele>272.19</ele>
        <time>2019-02-03T07:29:00Z</time>
      </trkpt>
      <trkpt lat="43.31844" lon="5.53768">
        <ele>274.59</ele>
        <time>2019-02-03T07:29:12Z</time>
      </trkpt>
      <trkpt lat="43.31845" lon="5.5377">
        <ele>275.07</ele>
        <time>2019-02-03T07:29:15Z</time>
      </trkpt>
      <trkpt lat="43.31849" lon="5.53779">
        <ele>276.04</ele>
        <time>2019-02-03T07:29:23Z</time>
      </trkpt>
      <trkpt lat="43.31853" lon="5.53783">
        <ele>279.4</ele>
        <time>2019-02-03T07:29:29Z</time>
      </trkpt>
      <trkpt lat="43.31854" lon="5.53784">
        <ele>279.4</ele>
        <time>2019-02-03T07:29:30Z</time>
      </trkpt>
      <trkpt lat="43.31857" lon="5.53793">
        <ele>280.84</ele>
        <time>2019-02-03T07:29:40Z</time>
      </trkpt>
      <trkpt lat="43.31862" lon="5.53801">
        <ele>282.77</ele>
        <time>2019-02-03T07:29:50Z</time>
      </trkpt>
      <trkpt lat="43.31866" lon="5.53809">
        <ele>284.21</ele>
        <time>2019-02-03T07:29:57Z</time>
      </trkpt>
      <trkpt lat="43.31867" lon="5.53811">
        <ele>284.69</ele>
        <time>2019-02-03T07:29:59Z</time>
      </trkpt>
      <trkpt lat="43.31869" lon="5.53814">
        <ele>286.61</ele>
        <time>2019-02-03T07:30:03Z</time>
      </trkpt>
      <trkpt lat="43.31876" lon="5.53822">
        <ele>288.53</ele>
        <time>2019-02-03T07:30:15Z</time>
      </trkpt>
      <trkpt lat="43.31877" lon="5.53825">
        <ele>288.53</ele>
        <time>2019-02-03T07:30:17Z</time>
      </trkpt>
      <trkpt lat="43.31879" lon="5.53829">
        <ele>289.49</ele>
        <time>2019-02-03T07:30:21Z</time>
      </trkpt>
      <trkpt lat="43.31885" lon="5.53837">
        <ele>290.94</ele>
        <time>2019-02-03T07:30:31Z</time>
      </trkpt>
      <trkpt lat="43.31888" lon="5.53842">
        <ele>292.38</ele>
        <time>2019-02-03T07:30:37Z</time>
      </trkpt>
      <trkpt lat="43.31888" lon="5.53843">
        <ele>292.86</ele>
        <time>2019-02-03T07:30:38Z</time>
      </trkpt>
      <trkpt lat="43.3189" lon="5.53846">
        <ele>293.34</ele>
        <time>2019-02-03T07:30:41Z</time>
      </trkpt>
      <trkpt lat="43.31891" lon="5.53848">
        <ele>293.82</ele>
        <time>2019-02-03T07:30:43Z</time>
      </trkpt>
      <trkpt lat="43.31898" lon="5.53859">
        <ele>295.26</ele>
        <time>2019-02-03T07:30:55Z</time>
      </trkpt>
      <trkpt lat="43.31901" lon="5.53865">
        <ele>298.63</ele>
        <time>2019-02-03T07:31:04Z</time>
      </trkpt>
      <trkpt lat="43.31901" lon="5.53865">
        <ele>298.63</ele>
        <time>2019-02-03T07:31:05Z</time>
      </trkpt>
      <trkpt lat="43.31902" lon="5.53868">
        <ele>298.63</ele>
        <time>2019-02-03T07:31:08Z</time>
      </trkpt>
      <trkpt lat="43.31906" lon="5.53877">
        <ele>300.07</ele>
        <time>2019-02-03T07:31:16Z</time>
      </trkpt>
      <trkpt lat="43.31906" lon="5.5388">
        <ele>300.55</ele>
        <time>2019-02-03T07:31:18Z</time>
      </trkpt>
      <trkpt lat="43.31908" lon="5.53882">
        <ele>301.03</ele>
        <time>2019-02-03T07:31:20Z</time>
      </trkpt>
      <trkpt lat="43.31912" lon="5.53897">
        <ele>302.95</ele>
        <time>2019-02-03T07:31:30Z</time>
      </trkpt>
      <trkpt lat="43.31916" lon="5.53909">
        <ele>303.91</ele>
        <time>2019-02-03T07:31:41Z</time>
      </trkpt>
      <trkpt lat="43.31915" lon="5.53919">
        <ele>303.91</ele>
        <time>2019-02-03T07:31:48Z</time>
      </trkpt>
      <trkpt lat="43.31914" lon="5.53925">
        <ele>304.39</ele>
        <time>2019-02-03T07:31:53Z</time>
      </trkpt>
      <trkpt lat="43.31916" lon="5.53932">
        <ele>304.39</ele>
        <time>2019-02-03T07:31:57Z</time>
      </trkpt>
      <trkpt lat="43.31915" lon="5.53951">
        <ele>302.47</ele>
        <time>2019-02-03T07:32:09Z</time>
      </trkpt>
      <trkpt lat="43.31914" lon="5.53961">
        <ele>302.95</ele>
        <time>2019-02-03T07:32:15Z</time>
      </trkpt>
      <trkpt lat="43.31915" lon="5.53979">
        <ele>305.36</ele>
        <time>2019-02-03T07:32:27Z</time>
      </trkpt>
      <trkpt lat="43.31915" lon="5.53984">
        <ele>305.36</ele>
        <time>2019-02-03T07:32:32Z</time>
      </trkpt>
      <trkpt lat="43.31914" lon="5.53988">
        <ele>305.36</ele>
        <time>2019-02-03T07:32:36Z</time>
      </trkpt>
      <trkpt lat="43.31913" lon="5.53992">
        <ele>305.36</ele>
        <time>2019-02-03T07:32:39Z</time>
      </trkpt>
      <trkpt lat="43.31913" lon="5.53995">
        <ele>305.84</ele>
        <time>2019-02-03T07:32:42Z</time>
      </trkpt>
      <trkpt lat="43.31913" lon="5.53998">
        <ele>305.36</ele>
        <time>2019-02-03T07:32:45Z</time>
      </trkpt>
      <trkpt lat="43.31913" lon="5.54005">
        <ele>305.84</ele>
        <time>2019-02-03T07:32:50Z</time>
      </trkpt>
      <trkpt lat="43.31914" lon="5.5401">
        <ele>305.84</ele>
        <time>2019-02-03T07:32:56Z</time>
      </trkpt>
      <trkpt lat="43.31914" lon="5.53997">
        <ele>304.88</ele>
        <time>2019-02-03T07:33:05Z</time>
      </trkpt>
      <trkpt lat="43.31915" lon="5.53993">
        <ele>304.39</ele>
        <time>2019-02-03T07:33:07Z</time>
      </trkpt>
      <trkpt lat="43.31916" lon="5.53983">
        <ele>303.91</ele>
        <time>2019-02-03T07:33:18Z</time>
      </trkpt>
      <trkpt lat="43.31912" lon="5.53992">
        <ele>305.36</ele>
        <time>2019-02-03T07:33:30Z</time>
      </trkpt>
      <trkpt lat="43.31911" lon="5.53996">
        <ele>305.84</ele>
        <time>2019-02-03T07:33:43Z</time>
      </trkpt>
      <trkpt lat="43.31912" lon="5.54001">
        <ele>306.8</ele>
        <time>2019-02-03T07:33:47Z</time>
      </trkpt>
      <trkpt lat="43.31911" lon="5.54009">
        <ele>307.28</ele>
        <time>2019-02-03T07:33:51Z</time>
      </trkpt>
      <trkpt lat="43.31911" lon="5.54017">
        <ele>307.28</ele>
        <time>2019-02-03T07:33:56Z</time>
      </trkpt>
      <trkpt lat="43.31912" lon="5.54028">
        <ele>306.8</ele>
        <time>2019-02-03T07:34:05Z</time>
      </trkpt>
      <trkpt lat="43.31912" lon="5.54034">
        <ele>308.72</ele>
        <time>2019-02-03T07:34:10Z</time>
      </trkpt>
      <trkpt lat="43.31912" lon="5.54039">
        <ele>309.68</ele>
        <time>2019-02-03T07:34:13Z</time>
      </trkpt>
      <trkpt lat="43.31912" lon="5.54049">
        <ele>311.6</ele>
        <time>2019-02-03T07:34:18Z</time>
      </trkpt>
      <trkpt lat="43.31914" lon="5.54053">
        <ele>312.57</ele>
        <time>2019-02-03T07:34:22Z</time>
      </trkpt>
      <trkpt lat="43.31917" lon="5.54055">
        <ele>314.49</ele>
        <time>2019-02-03T07:34:25Z</time>
      </trkpt>
      <trkpt lat="43.31917" lon="5.54055">
        <ele>314.97</ele>
        <time>2019-02-03T07:34:26Z</time>
      </trkpt>
      <trkpt lat="43.31921" lon="5.54048">
        <ele>315.45</ele>
        <time>2019-02-03T07:34:36Z</time>
      </trkpt>
      <trkpt lat="43.31929" lon="5.54028">
        <ele>317.85</ele>
        <time>2019-02-03T07:34:50Z</time>
      </trkpt>
      <trkpt lat="43.3193" lon="5.54027">
        <ele>317.37</ele>
        <time>2019-02-03T07:34:51Z</time>
      </trkpt>
      <trkpt lat="43.31934" lon="5.54013">
        <ele>317.37</ele>
        <time>2019-02-03T07:35:00Z</time>
      </trkpt>
      <trkpt lat="43.3194" lon="5.54004">
        <ele>318.33</ele>
        <time>2019-02-03T07:35:06Z</time>
      </trkpt>
      <trkpt lat="43.31943" lon="5.53986">
        <ele>316.41</ele>
        <time>2019-02-03T07:35:18Z</time>
      </trkpt>
      <trkpt lat="43.31944" lon="5.53982">
        <ele>316.41</ele>
        <time>2019-02-03T07:35:20Z</time>
      </trkpt>
      <trkpt lat="43.31946" lon="5.53975">
        <ele>316.41</ele>
        <time>2019-02-03T07:35:24Z</time>
      </trkpt>
      <trkpt lat="43.31949" lon="5.53956">
        <ele>317.85</ele>
        <time>2019-02-03T07:35:36Z</time>
      </trkpt>
      <trkpt lat="43.31951" lon="5.53947">
        <ele>318.33</ele>
        <time>2019-02-03T07:35:42Z</time>
      </trkpt>
      <trkpt lat="43.31957" lon="5.5394">
        <ele>321.22</ele>
        <time>2019-02-03T07:35:52Z</time>
      </trkpt>
      <trkpt lat="43.31957" lon="5.53939">
        <ele>321.7</ele>
        <time>2019-02-03T07:35:53Z</time>
      </trkpt>
      <trkpt lat="43.31959" lon="5.53931">
        <ele>323.14</ele>
        <time>2019-02-03T07:36:03Z</time>
      </trkpt>
      <trkpt lat="43.31959" lon="5.53928">
        <ele>325.06</ele>
        <time>2019-02-03T07:36:05Z</time>
      </trkpt>
      <trkpt lat="43.31961" lon="5.53923">
        <ele>327.47</ele>
        <time>2019-02-03T07:36:14Z</time>
      </trkpt>
      <trkpt lat="43.31962" lon="5.53916">
        <ele>328.43</ele>
        <time>2019-02-03T07:36:18Z</time>
      </trkpt>
      <trkpt lat="43.31965" lon="5.53911">
        <ele>328.91</ele>
        <time>2019-02-03T07:36:23Z</time>
      </trkpt>
      <trkpt lat="43.31963" lon="5.53904">
        <ele>328.91</ele>
        <time>2019-02-03T07:36:28Z</time>
      </trkpt>
      <trkpt lat="43.31964" lon="5.53893">
        <ele>329.39</ele>
        <time>2019-02-03T07:36:38Z</time>
      </trkpt>
      <trkpt lat="43.31964" lon="5.53892">
        <ele>329.39</ele>
        <time>2019-02-03T07:36:39Z</time>
      </trkpt>
      <trkpt lat="43.31966" lon="5.53891">
        <ele>330.83</ele>
        <time>2019-02-03T07:36:42Z</time>
      </trkpt>
      <trkpt lat="43.31971" lon="5.53901">
        <ele>333.71</ele>
        <time>2019-02-03T07:36:53Z</time>
      </trkpt>
      <trkpt lat="43.31973" lon="5.53904">
        <ele>334.68</ele>
        <time>2019-02-03T07:36:56Z</time>
      </trkpt>
      <trkpt lat="43.31978" lon="5.5391">
        <ele>337.56</ele>
        <time>2019-02-03T07:37:06Z</time>
      </trkpt>
      <trkpt lat="43.31981" lon="5.53915">
        <ele>339</ele>
        <time>2019-02-03T07:37:12Z</time>
      </trkpt>
      <trkpt lat="43.31985" lon="5.53919">
        <ele>339.48</ele>
        <time>2019-02-03T07:37:17Z</time>
      </trkpt>
      <trkpt lat="43.31988" lon="5.53925">
        <ele>341.41</ele>
        <time>2019-02-03T07:37:24Z</time>
      </trkpt>
      <trkpt lat="43.3199" lon="5.53929">
        <ele>342.37</ele>
        <time>2019-02-03T07:37:28Z</time>
      </trkpt>
      <trkpt lat="43.31992" lon="5.53932">
        <ele>343.33</ele>
        <time>2019-02-03T07:37:32Z</time>
      </trkpt>
      <trkpt lat="43.31993" lon="5.53936">
        <ele>344.29</ele>
        <time>2019-02-03T07:37:35Z</time>
      </trkpt>
      <trkpt lat="43.31995" lon="5.53943">
        <ele>345.25</ele>
        <time>2019-02-03T07:37:40Z</time>
      </trkpt>
      <trkpt lat="43.31998" lon="5.53948">
        <ele>345.73</ele>
        <time>2019-02-03T07:37:55Z</time>
      </trkpt>
      <trkpt lat="43.31997" lon="5.53949">
        <ele>345.25</ele>
        <time>2019-02-03T07:38:13Z</time>
      </trkpt>
      <trkpt lat="43.31997" lon="5.53949">
        <ele>346.21</ele>
        <time>2019-02-03T07:38:49Z</time>
      </trkpt>
      <trkpt lat="43.31997" lon="5.53949">
        <ele>347.17</ele>
        <time>2019-02-03T07:39:20Z</time>
      </trkpt>
      <trkpt lat="43.32001" lon="5.53956">
        <ele>345.73</ele>
        <time>2019-02-03T07:39:29Z</time>
      </trkpt>
      <trkpt lat="43.32002" lon="5.5396">
        <ele>346.21</ele>
        <time>2019-02-03T07:39:33Z</time>
      </trkpt>
      <trkpt lat="43.32004" lon="5.53962">
        <ele>347.65</ele>
        <time>2019-02-03T07:39:37Z</time>
      </trkpt>
      <trkpt lat="43.32006" lon="5.53962">
        <ele>349.58</ele>
        <time>2019-02-03T07:39:41Z</time>
      </trkpt>
      <trkpt lat="43.32008" lon="5.5396">
        <ele>350.06</ele>
        <time>2019-02-03T07:39:43Z</time>
      </trkpt>
      <trkpt lat="43.3201" lon="5.53956">
        <ele>352.46</ele>
        <time>2019-02-03T07:39:48Z</time>
      </trkpt>
      <trkpt lat="43.32012" lon="5.53957">
        <ele>351.98</ele>
        <time>2019-02-03T07:39:50Z</time>
      </trkpt>
      <trkpt lat="43.32015" lon="5.53958">
        <ele>354.86</ele>
        <time>2019-02-03T07:40:00Z</time>
      </trkpt>
      <trkpt lat="43.32018" lon="5.5396">
        <ele>355.34</ele>
        <time>2019-02-03T07:40:04Z</time>
      </trkpt>
      <trkpt lat="43.32022" lon="5.53964">
        <ele>359.67</ele>
        <time>2019-02-03T07:40:12Z</time>
      </trkpt>
      <trkpt lat="43.32023" lon="5.53964">
        <ele>359.67</ele>
        <time>2019-02-03T07:40:14Z</time>
      </trkpt>
      <trkpt lat="43.32025" lon="5.53969">
        <ele>360.15</ele>
        <time>2019-02-03T07:40:18Z</time>
      </trkpt>
      <trkpt lat="43.32031" lon="5.53977">
        <ele>363.52</ele>
        <time>2019-02-03T07:40:28Z</time>
      </trkpt>
      <trkpt lat="43.32036" lon="5.53984">
        <ele>365.92</ele>
        <time>2019-02-03T07:40:36Z</time>
      </trkpt>
      <trkpt lat="43.32039" lon="5.53985">
        <ele>366.4</ele>
        <time>2019-02-03T07:40:39Z</time>
      </trkpt>
      <trkpt lat="43.32047" lon="5.53992">
        <ele>368.8</ele>
        <time>2019-02-03T07:40:49Z</time>
      </trkpt>
      <trkpt lat="43.32053" lon="5.53996">
        <ele>370.24</ele>
        <time>2019-02-03T07:40:59Z</time>
      </trkpt>
      <trkpt lat="43.32054" lon="5.53994">
        <ele>370.24</ele>
        <time>2019-02-03T07:41:01Z</time>
      </trkpt>
      <trkpt lat="43.32056" lon="5.53984">
        <ele>373.13</ele>
        <time>2019-02-03T07:41:12Z</time>
      </trkpt>
      <trkpt lat="43.32057" lon="5.53979">
        <ele>375.05</ele>
        <time>2019-02-03T07:41:17Z</time>
      </trkpt>
      <trkpt lat="43.32058" lon="5.53973">
        <ele>377.45</ele>
        <time>2019-02-03T07:41:25Z</time>
      </trkpt>
      <trkpt lat="43.32059" lon="5.53966">
        <ele>378.9</ele>
        <time>2019-02-03T07:41:29Z</time>
      </trkpt>
      <trkpt lat="43.32059" lon="5.53952">
        <ele>379.86</ele>
        <time>2019-02-03T07:41:40Z</time>
      </trkpt>
      <trkpt lat="43.32059" lon="5.53951">
        <ele>380.82</ele>
        <time>2019-02-03T07:41:41Z</time>
      </trkpt>
      <trkpt lat="43.32059" lon="5.53948">
        <ele>381.3</ele>
        <time>2019-02-03T07:41:43Z</time>
      </trkpt>
      <trkpt lat="43.32058" lon="5.53942">
        <ele>382.26</ele>
        <time>2019-02-03T07:41:49Z</time>
      </trkpt>
      <trkpt lat="43.32061" lon="5.53934">
        <ele>384.66</ele>
        <time>2019-02-03T07:41:57Z</time>
      </trkpt>
      <trkpt lat="43.32063" lon="5.53931">
        <ele>386.11</ele>
        <time>2019-02-03T07:42:04Z</time>
      </trkpt>
      <trkpt lat="43.32063" lon="5.53928">
        <ele>385.63</ele>
        <time>2019-02-03T07:42:06Z</time>
      </trkpt>
      <trkpt lat="43.32064" lon="5.53924">
        <ele>387.07</ele>
        <time>2019-02-03T07:42:09Z</time>
      </trkpt>
      <trkpt lat="43.32063" lon="5.53923">
        <ele>388.51</ele>
        <time>2019-02-03T07:42:11Z</time>
      </trkpt>
      <trkpt lat="43.32064" lon="5.53921">
        <ele>388.03</ele>
        <time>2019-02-03T07:42:13Z</time>
      </trkpt>
      <trkpt lat="43.32066" lon="5.53922">
        <ele>389.95</ele>
        <time>2019-02-03T07:42:16Z</time>
      </trkpt>
      <trkpt lat="43.32068" lon="5.53924">
        <ele>390.43</ele>
        <time>2019-02-03T07:42:18Z</time>
      </trkpt>
      <trkpt lat="43.32072" lon="5.53926">
        <ele>391.39</ele>
        <time>2019-02-03T07:42:27Z</time>
      </trkpt>
      <trkpt lat="43.32074" lon="5.53928">
        <ele>394.76</ele>
        <time>2019-02-03T07:42:31Z</time>
      </trkpt>
      <trkpt lat="43.32075" lon="5.53928">
        <ele>394.76</ele>
        <time>2019-02-03T07:42:33Z</time>
      </trkpt>
      <trkpt lat="43.3208" lon="5.53931">
        <ele>396.68</ele>
        <time>2019-02-03T07:42:44Z</time>
      </trkpt>
      <trkpt lat="43.32085" lon="5.53933">
        <ele>398.12</ele>
        <time>2019-02-03T07:42:54Z</time>
      </trkpt>
      <trkpt lat="43.32088" lon="5.53935">
        <ele>398.6</ele>
        <time>2019-02-03T07:43:04Z</time>
      </trkpt>
      <trkpt lat="43.32096" lon="5.53942">
        <ele>399.57</ele>
        <time>2019-02-03T07:43:16Z</time>
      </trkpt>
      <trkpt lat="43.32098" lon="5.53944">
        <ele>400.53</ele>
        <time>2019-02-03T07:43:29Z</time>
      </trkpt>
      <trkpt lat="43.32098" lon="5.53944">
        <ele>401.49</ele>
        <time>2019-02-03T07:43:56Z</time>
      </trkpt>
      <trkpt lat="43.32098" lon="5.53944">
        <ele>401.01</ele>
        <time>2019-02-03T07:44:12Z</time>
      </trkpt>
      <trkpt lat="43.32102" lon="5.53949">
        <ele>401.97</ele>
        <time>2019-02-03T07:44:25Z</time>
      </trkpt>
      <trkpt lat="43.32104" lon="5.53952">
        <ele>402.93</ele>
        <time>2019-02-03T07:44:27Z</time>
      </trkpt>
      <trkpt lat="43.32108" lon="5.53957">
        <ele>403.89</ele>
        <time>2019-02-03T07:44:35Z</time>
      </trkpt>
      <trkpt lat="43.32112" lon="5.5396">
        <ele>404.85</ele>
        <time>2019-02-03T07:44:40Z</time>
      </trkpt>
      <trkpt lat="43.32118" lon="5.53965">
        <ele>407.26</ele>
        <time>2019-02-03T07:44:51Z</time>
      </trkpt>
      <trkpt lat="43.32118" lon="5.53965">
        <ele>406.77</ele>
        <time>2019-02-03T07:45:03Z</time>
      </trkpt>
      <trkpt lat="43.32119" lon="5.53962">
        <ele>407.26</ele>
        <time>2019-02-03T07:45:17Z</time>
      </trkpt>
      <trkpt lat="43.32119" lon="5.53962">
        <ele>408.7</ele>
        <time>2019-02-03T07:45:25Z</time>
      </trkpt>
      <trkpt lat="43.32121" lon="5.53954">
        <ele>410.14</ele>
        <time>2019-02-03T07:45:32Z</time>
      </trkpt>
      <trkpt lat="43.32125" lon="5.53948">
        <ele>410.62</ele>
        <time>2019-02-03T07:45:39Z</time>
      </trkpt>
      <trkpt lat="43.32128" lon="5.53948">
        <ele>412.54</ele>
        <time>2019-02-03T07:45:43Z</time>
      </trkpt>
      <trkpt lat="43.32132" lon="5.53939">
        <ele>414.95</ele>
        <time>2019-02-03T07:45:54Z</time>
      </trkpt>
      <trkpt lat="43.32136" lon="5.53935">
        <ele>417.35</ele>
        <time>2019-02-03T07:46:04Z</time>
      </trkpt>
      <trkpt lat="43.32136" lon="5.53929">
        <ele>419.75</ele>
        <time>2019-02-03T07:46:13Z</time>
      </trkpt>
      <trkpt lat="43.32138" lon="5.53925">
        <ele>420.71</ele>
        <time>2019-02-03T07:46:18Z</time>
      </trkpt>
      <trkpt lat="43.32139" lon="5.53923">
        <ele>421.68</ele>
        <time>2019-02-03T07:46:20Z</time>
      </trkpt>
      <trkpt lat="43.32141" lon="5.53919">
        <ele>423.12</ele>
        <time>2019-02-03T07:46:24Z</time>
      </trkpt>
      <trkpt lat="43.32141" lon="5.53915">
        <ele>423.12</ele>
        <time>2019-02-03T07:46:28Z</time>
      </trkpt>
      <trkpt lat="43.3214" lon="5.5391">
        <ele>423.12</ele>
        <time>2019-02-03T07:46:38Z</time>
      </trkpt>
      <trkpt lat="43.32145" lon="5.53896">
        <ele>421.68</ele>
        <time>2019-02-03T07:46:51Z</time>
      </trkpt>
      <trkpt lat="43.32143" lon="5.53896">
        <ele>422.64</ele>
        <time>2019-02-03T07:47:07Z</time>
      </trkpt>
      <trkpt lat="43.32143" lon="5.53895">
        <ele>421.68</ele>
        <time>2019-02-03T07:47:39Z</time>
      </trkpt>
      <trkpt lat="43.32143" lon="5.53895">
        <ele>421.68</ele>
        <time>2019-02-03T07:47:40Z</time>
      </trkpt>
      <trkpt lat="43.32145" lon="5.53896">
        <ele>422.64</ele>
        <time>2019-02-03T07:47:43Z</time>
      </trkpt>
      <trkpt lat="43.32158" lon="5.539">
        <ele>423.6</ele>
        <time>2019-02-03T07:47:55Z</time>
      </trkpt>
      <trkpt lat="43.32164" lon="5.53899">
        <ele>423.6</ele>
        <time>2019-02-03T07:47:59Z</time>
      </trkpt>
      <trkpt lat="43.32172" lon="5.53889">
        <ele>425.52</ele>
        <time>2019-02-03T07:48:08Z</time>
      </trkpt>
      <trkpt lat="43.32174" lon="5.53886">
        <ele>426.48</ele>
        <time>2019-02-03T07:48:10Z</time>
      </trkpt>
      <trkpt lat="43.3218" lon="5.53881">
        <ele>423.6</ele>
        <time>2019-02-03T07:48:16Z</time>
      </trkpt>
      <trkpt lat="43.3218" lon="5.5388">
        <ele>423.6</ele>
        <time>2019-02-03T07:48:29Z</time>
      </trkpt>
      <trkpt lat="43.3218" lon="5.5388">
        <ele>424.08</ele>
        <time>2019-02-03T07:48:40Z</time>
      </trkpt>
      <trkpt lat="43.3218" lon="5.5388">
        <ele>423.12</ele>
        <time>2019-02-03T07:48:42Z</time>
      </trkpt>
      <trkpt lat="43.3218" lon="5.5388">
        <ele>423.12</ele>
        <time>2019-02-03T07:49:03Z</time>
      </trkpt>
      <trkpt lat="43.3218" lon="5.5388">
        <ele>421.68</ele>
        <time>2019-02-03T07:49:25Z</time>
      </trkpt>
      <trkpt lat="43.3218" lon="5.5388">
        <ele>423.6</ele>
        <time>2019-02-03T07:49:28Z</time>
      </trkpt>
      <trkpt lat="43.3218" lon="5.53875">
        <ele>423.12</ele>
        <time>2019-02-03T07:49:31Z</time>
      </trkpt>
      <trkpt lat="43.32181" lon="5.53867">
        <ele>423.12</ele>
        <time>2019-02-03T07:49:37Z</time>
      </trkpt>
      <trkpt lat="43.32183" lon="5.5386">
        <ele>424.08</ele>
        <time>2019-02-03T07:49:41Z</time>
      </trkpt>
      <trkpt lat="43.32183" lon="5.53856">
        <ele>424.08</ele>
        <time>2019-02-03T07:49:44Z</time>
      </trkpt>
      <trkpt lat="43.32186" lon="5.53842">
        <ele>424.08</ele>
        <time>2019-02-03T07:49:53Z</time>
      </trkpt>
      <trkpt lat="43.32192" lon="5.53839">
        <ele>425.52</ele>
        <time>2019-02-03T07:49:58Z</time>
      </trkpt>
      <trkpt lat="43.32195" lon="5.53834">
        <ele>427.44</ele>
        <time>2019-02-03T07:50:02Z</time>
      </trkpt>
      <trkpt lat="43.32196" lon="5.53831">
        <ele>427.44</ele>
        <time>2019-02-03T07:50:04Z</time>
      </trkpt>
      <trkpt lat="43.32196" lon="5.53825">
        <ele>427.44</ele>
        <time>2019-02-03T07:50:07Z</time>
      </trkpt>
      <trkpt lat="43.32197" lon="5.5382">
        <ele>427.92</ele>
        <time>2019-02-03T07:50:11Z</time>
      </trkpt>
      <trkpt lat="43.32201" lon="5.53816">
        <ele>428.4</ele>
        <time>2019-02-03T07:50:16Z</time>
      </trkpt>
      <trkpt lat="43.32206" lon="5.53813">
        <ele>429.85</ele>
        <time>2019-02-03T07:50:21Z</time>
      </trkpt>
      <trkpt lat="43.32208" lon="5.53805">
        <ele>430.81</ele>
        <time>2019-02-03T07:50:27Z</time>
      </trkpt>
      <trkpt lat="43.3221" lon="5.53799">
        <ele>431.77</ele>
        <time>2019-02-03T07:50:32Z</time>
      </trkpt>
      <trkpt lat="43.32214" lon="5.53801">
        <ele>432.73</ele>
        <time>2019-02-03T07:50:36Z</time>
      </trkpt>
      <trkpt lat="43.32222" lon="5.53798">
        <ele>435.13</ele>
        <time>2019-02-03T07:50:46Z</time>
      </trkpt>
      <trkpt lat="43.32225" lon="5.53794">
        <ele>437.06</ele>
        <time>2019-02-03T07:50:57Z</time>
      </trkpt>
      <trkpt lat="43.3223" lon="5.53788">
        <ele>438.98</ele>
        <time>2019-02-03T07:51:04Z</time>
      </trkpt>
      <trkpt lat="43.32233" lon="5.53785">
        <ele>438.98</ele>
        <time>2019-02-03T07:51:08Z</time>
      </trkpt>
      <trkpt lat="43.32236" lon="5.53784">
        <ele>440.42</ele>
        <time>2019-02-03T07:51:12Z</time>
      </trkpt>
      <trkpt lat="43.3224" lon="5.53781">
        <ele>440.9</ele>
        <time>2019-02-03T07:51:16Z</time>
      </trkpt>
      <trkpt lat="43.32241" lon="5.53774">
        <ele>441.38</ele>
        <time>2019-02-03T07:51:21Z</time>
      </trkpt>
      <trkpt lat="43.32244" lon="5.53765">
        <ele>442.82</ele>
        <time>2019-02-03T07:51:28Z</time>
      </trkpt>
      <trkpt lat="43.32248" lon="5.53762">
        <ele>442.82</ele>
        <time>2019-02-03T07:51:32Z</time>
      </trkpt>
      <trkpt lat="43.32248" lon="5.5376">
        <ele>443.79</ele>
        <time>2019-02-03T07:51:34Z</time>
      </trkpt>
      <trkpt lat="43.32251" lon="5.53757">
        <ele>444.75</ele>
        <time>2019-02-03T07:51:41Z</time>
      </trkpt>
      <trkpt lat="43.32253" lon="5.53754">
        <ele>444.75</ele>
        <time>2019-02-03T07:51:43Z</time>
      </trkpt>
      <trkpt lat="43.32255" lon="5.53744">
        <ele>447.15</ele>
        <time>2019-02-03T07:51:56Z</time>
      </trkpt>
      <trkpt lat="43.32256" lon="5.53742">
        <ele>447.15</ele>
        <time>2019-02-03T07:52:14Z</time>
      </trkpt>
      <trkpt lat="43.32261" lon="5.53734">
        <ele>450.03</ele>
        <time>2019-02-03T07:52:23Z</time>
      </trkpt>
      <trkpt lat="43.32265" lon="5.5373">
        <ele>451.48</ele>
        <time>2019-02-03T07:52:30Z</time>
      </trkpt>
      <trkpt lat="43.32268" lon="5.53729">
        <ele>453.4</ele>
        <time>2019-02-03T07:52:33Z</time>
      </trkpt>
      <trkpt lat="43.32272" lon="5.5373">
        <ele>452.92</ele>
        <time>2019-02-03T07:52:36Z</time>
      </trkpt>
      <trkpt lat="43.32274" lon="5.53733">
        <ele>454.36</ele>
        <time>2019-02-03T07:52:41Z</time>
      </trkpt>
      <trkpt lat="43.32278" lon="5.53733">
        <ele>454.84</ele>
        <time>2019-02-03T07:52:46Z</time>
      </trkpt>
      <trkpt lat="43.32282" lon="5.53732">
        <ele>456.76</ele>
        <time>2019-02-03T07:52:50Z</time>
      </trkpt>
      <trkpt lat="43.32283" lon="5.53732">
        <ele>456.76</ele>
        <time>2019-02-03T07:52:51Z</time>
      </trkpt>
      <trkpt lat="43.32287" lon="5.53734">
        <ele>457.72</ele>
        <time>2019-02-03T07:52:55Z</time>
      </trkpt>
      <trkpt lat="43.32291" lon="5.53736">
        <ele>459.65</ele>
        <time>2019-02-03T07:53:00Z</time>
      </trkpt>
      <trkpt lat="43.32294" lon="5.53732">
        <ele>461.09</ele>
        <time>2019-02-03T07:53:05Z</time>
      </trkpt>
      <trkpt lat="43.32297" lon="5.53726">
        <ele>463.01</ele>
        <time>2019-02-03T07:53:09Z</time>
      </trkpt>
      <trkpt lat="43.32298" lon="5.53723">
        <ele>463.49</ele>
        <time>2019-02-03T07:53:11Z</time>
      </trkpt>
      <trkpt lat="43.32301" lon="5.53716">
        <ele>463.97</ele>
        <time>2019-02-03T07:53:16Z</time>
      </trkpt>
      <trkpt lat="43.32305" lon="5.53711">
        <ele>463.49</ele>
        <time>2019-02-03T07:53:22Z</time>
      </trkpt>
      <trkpt lat="43.32308" lon="5.53709">
        <ele>462.53</ele>
        <time>2019-02-03T07:53:24Z</time>
      </trkpt>
      <trkpt lat="43.3231" lon="5.53708">
        <ele>461.57</ele>
        <time>2019-02-03T07:53:26Z</time>
      </trkpt>
      <trkpt lat="43.32317" lon="5.5371">
        <ele>460.61</ele>
        <time>2019-02-03T07:53:31Z</time>
      </trkpt>
      <trkpt lat="43.32322" lon="5.53712">
        <ele>460.61</ele>
        <time>2019-02-03T07:53:36Z</time>
      </trkpt>
      <trkpt lat="43.32325" lon="5.53712">
        <ele>461.57</ele>
        <time>2019-02-03T07:53:39Z</time>
      </trkpt>
      <trkpt lat="43.32334" lon="5.53716">
        <ele>462.05</ele>
        <time>2019-02-03T07:53:47Z</time>
      </trkpt>
      <trkpt lat="43.32351" lon="5.53718">
        <ele>462.05</ele>
        <time>2019-02-03T07:54:01Z</time>
      </trkpt>
      <trkpt lat="43.32357" lon="5.53721">
        <ele>461.57</ele>
        <time>2019-02-03T07:54:05Z</time>
      </trkpt>
      <trkpt lat="43.32374" lon="5.53722">
        <ele>462.05</ele>
        <time>2019-02-03T07:54:18Z</time>
      </trkpt>
      <trkpt lat="43.32374" lon="5.53722">
        <ele>463.01</ele>
        <time>2019-02-03T07:54:19Z</time>
      </trkpt>
      <trkpt lat="43.32382" lon="5.53722">
        <ele>461.09</ele>
        <time>2019-02-03T07:54:24Z</time>
      </trkpt>
      <trkpt lat="43.32386" lon="5.53721">
        <ele>460.13</ele>
        <time>2019-02-03T07:54:28Z</time>
      </trkpt>
      <trkpt lat="43.32392" lon="5.53722">
        <ele>460.61</ele>
        <time>2019-02-03T07:54:32Z</time>
      </trkpt>
      <trkpt lat="43.3241" lon="5.53721">
        <ele>460.61</ele>
        <time>2019-02-03T07:54:45Z</time>
      </trkpt>
      <trkpt lat="43.32426" lon="5.53723">
        <ele>462.53</ele>
        <time>2019-02-03T07:54:58Z</time>
      </trkpt>
      <trkpt lat="43.32427" lon="5.53723">
        <ele>463.01</ele>
        <time>2019-02-03T07:54:59Z</time>
      </trkpt>
      <trkpt lat="43.32435" lon="5.53723">
        <ele>462.53</ele>
        <time>2019-02-03T07:55:08Z</time>
      </trkpt>
      <trkpt lat="43.32441" lon="5.53723">
        <ele>462.05</ele>
        <time>2019-02-03T07:55:13Z</time>
      </trkpt>
      <trkpt lat="43.32455" lon="5.53723">
        <ele>465.42</ele>
        <time>2019-02-03T07:55:26Z</time>
      </trkpt>
      <trkpt lat="43.32468" lon="5.53725">
        <ele>466.38</ele>
        <time>2019-02-03T07:55:37Z</time>
      </trkpt>
      <trkpt lat="43.32483" lon="5.53727">
        <ele>466.86</ele>
        <time>2019-02-03T07:55:48Z</time>
      </trkpt>
      <trkpt lat="43.32489" lon="5.53727">
        <ele>467.82</ele>
        <time>2019-02-03T07:55:54Z</time>
      </trkpt>
      <trkpt lat="43.32508" lon="5.53727">
        <ele>468.78</ele>
        <time>2019-02-03T07:56:08Z</time>
      </trkpt>
      <trkpt lat="43.32521" lon="5.53729">
        <ele>470.22</ele>
        <time>2019-02-03T07:56:19Z</time>
      </trkpt>
      <trkpt lat="43.32524" lon="5.5373">
        <ele>471.18</ele>
        <time>2019-02-03T07:56:22Z</time>
      </trkpt>
      <trkpt lat="43.32539" lon="5.53731">
        <ele>470.7</ele>
        <time>2019-02-03T07:56:34Z</time>
      </trkpt>
      <trkpt lat="43.32542" lon="5.53732">
        <ele>470.7</ele>
        <time>2019-02-03T07:56:37Z</time>
      </trkpt>
      <trkpt lat="43.32546" lon="5.53733">
        <ele>470.7</ele>
        <time>2019-02-03T07:56:40Z</time>
      </trkpt>
      <trkpt lat="43.32549" lon="5.53734">
        <ele>471.18</ele>
        <time>2019-02-03T07:56:43Z</time>
      </trkpt>
      <trkpt lat="43.32562" lon="5.53746">
        <ele>472.14</ele>
        <time>2019-02-03T07:56:56Z</time>
      </trkpt>
      <trkpt lat="43.32563" lon="5.53748">
        <ele>472.14</ele>
        <time>2019-02-03T07:56:57Z</time>
      </trkpt>
      <trkpt lat="43.3257" lon="5.53761">
        <ele>472.14</ele>
        <time>2019-02-03T07:57:08Z</time>
      </trkpt>
      <trkpt lat="43.32577" lon="5.53776">
        <ele>473.11</ele>
        <time>2019-02-03T07:57:18Z</time>
      </trkpt>
      <trkpt lat="43.32577" lon="5.53777">
        <ele>473.11</ele>
        <time>2019-02-03T07:57:19Z</time>
      </trkpt>
      <trkpt lat="43.3258" lon="5.53786">
        <ele>474.07</ele>
        <time>2019-02-03T07:57:25Z</time>
      </trkpt>
      <trkpt lat="43.32585" lon="5.538">
        <ele>476.95</ele>
        <time>2019-02-03T07:57:36Z</time>
      </trkpt>
      <trkpt lat="43.32587" lon="5.53806">
        <ele>477.43</ele>
        <time>2019-02-03T07:57:40Z</time>
      </trkpt>
      <trkpt lat="43.3259" lon="5.5381">
        <ele>477.91</ele>
        <time>2019-02-03T07:57:44Z</time>
      </trkpt>
      <trkpt lat="43.32597" lon="5.53822">
        <ele>479.84</ele>
        <time>2019-02-03T07:57:55Z</time>
      </trkpt>
      <trkpt lat="43.32598" lon="5.53825">
        <ele>480.8</ele>
        <time>2019-02-03T07:57:57Z</time>
      </trkpt>
      <trkpt lat="43.32599" lon="5.53828">
        <ele>481.28</ele>
        <time>2019-02-03T07:57:59Z</time>
      </trkpt>
      <trkpt lat="43.32602" lon="5.53835">
        <ele>481.28</ele>
        <time>2019-02-03T07:58:04Z</time>
      </trkpt>
      <trkpt lat="43.32604" lon="5.53841">
        <ele>483.2</ele>
        <time>2019-02-03T07:58:08Z</time>
      </trkpt>
      <trkpt lat="43.32606" lon="5.53846">
        <ele>483.2</ele>
        <time>2019-02-03T07:58:13Z</time>
      </trkpt>
      <trkpt lat="43.32607" lon="5.53849">
        <ele>484.16</ele>
        <time>2019-02-03T07:58:15Z</time>
      </trkpt>
      <trkpt lat="43.3261" lon="5.5386">
        <ele>485.6</ele>
        <time>2019-02-03T07:58:23Z</time>
      </trkpt>
      <trkpt lat="43.32613" lon="5.53868">
        <ele>486.08</ele>
        <time>2019-02-03T07:58:29Z</time>
      </trkpt>
      <trkpt lat="43.32616" lon="5.53879">
        <ele>486.08</ele>
        <time>2019-02-03T07:58:37Z</time>
      </trkpt>
      <trkpt lat="43.32618" lon="5.53891">
        <ele>487.53</ele>
        <time>2019-02-03T07:58:45Z</time>
      </trkpt>
      <trkpt lat="43.32624" lon="5.53905">
        <ele>490.41</ele>
        <time>2019-02-03T07:58:57Z</time>
      </trkpt>
      <trkpt lat="43.32629" lon="5.53913">
        <ele>491.37</ele>
        <time>2019-02-03T07:59:07Z</time>
      </trkpt>
      <trkpt lat="43.32631" lon="5.5392">
        <ele>492.81</ele>
        <time>2019-02-03T07:59:12Z</time>
      </trkpt>
      <trkpt lat="43.32633" lon="5.53924">
        <ele>493.77</ele>
        <time>2019-02-03T07:59:15Z</time>
      </trkpt>
      <trkpt lat="43.32635" lon="5.53929">
        <ele>494.26</ele>
        <time>2019-02-03T07:59:19Z</time>
      </trkpt>
      <trkpt lat="43.32637" lon="5.53934">
        <ele>495.7</ele>
        <time>2019-02-03T07:59:23Z</time>
      </trkpt>
      <trkpt lat="43.3264" lon="5.53948">
        <ele>496.66</ele>
        <time>2019-02-03T07:59:33Z</time>
      </trkpt>
      <trkpt lat="43.32641" lon="5.53951">
        <ele>496.66</ele>
        <time>2019-02-03T07:59:36Z</time>
      </trkpt>
      <trkpt lat="43.32643" lon="5.53959">
        <ele>497.62</ele>
        <time>2019-02-03T07:59:41Z</time>
      </trkpt>
      <trkpt lat="43.32644" lon="5.53964">
        <ele>498.58</ele>
        <time>2019-02-03T07:59:46Z</time>
      </trkpt>
      <trkpt lat="43.32645" lon="5.53968">
        <ele>500.5</ele>
        <time>2019-02-03T07:59:49Z</time>
      </trkpt>
      <trkpt lat="43.32647" lon="5.53973">
        <ele>500.98</ele>
        <time>2019-02-03T07:59:53Z</time>
      </trkpt>
      <trkpt lat="43.3265" lon="5.53977">
        <ele>502.43</ele>
        <time>2019-02-03T07:59:57Z</time>
      </trkpt>
      <trkpt lat="43.32653" lon="5.53981">
        <ele>502.91</ele>
        <time>2019-02-03T08:00:01Z</time>
      </trkpt>
      <trkpt lat="43.32657" lon="5.53982">
        <ele>505.79</ele>
        <time>2019-02-03T08:00:05Z</time>
      </trkpt>
      <trkpt lat="43.32658" lon="5.53982">
        <ele>503.39</ele>
        <time>2019-02-03T08:00:09Z</time>
      </trkpt>
      <trkpt lat="43.32658" lon="5.53982">
        <ele>502.91</ele>
        <time>2019-02-03T08:00:11Z</time>
      </trkpt>
      <trkpt lat="43.32658" lon="5.53983">
        <ele>501.46</ele>
        <time>2019-02-03T08:00:16Z</time>
      </trkpt>
      <trkpt lat="43.32659" lon="5.53985">
        <ele>499.06</ele>
        <time>2019-02-03T08:00:19Z</time>
      </trkpt>
      <trkpt lat="43.32661" lon="5.53986">
        <ele>501.95</ele>
        <time>2019-02-03T08:00:21Z</time>
      </trkpt>
      <trkpt lat="43.32664" lon="5.53987">
        <ele>499.54</ele>
        <time>2019-02-03T08:00:24Z</time>
      </trkpt>
      <trkpt lat="43.32666" lon="5.53988">
        <ele>498.58</ele>
        <time>2019-02-03T08:00:26Z</time>
      </trkpt>
      <trkpt lat="43.32667" lon="5.53988">
        <ele>498.1</ele>
        <time>2019-02-03T08:00:33Z</time>
      </trkpt>
      <trkpt lat="43.32677" lon="5.53995">
        <ele>497.14</ele>
        <time>2019-02-03T08:00:42Z</time>
      </trkpt>
      <trkpt lat="43.32682" lon="5.54">
        <ele>495.7</ele>
        <time>2019-02-03T08:00:47Z</time>
      </trkpt>
      <trkpt lat="43.32688" lon="5.54002">
        <ele>495.22</ele>
        <time>2019-02-03T08:00:53Z</time>
      </trkpt>
      <trkpt lat="43.32699" lon="5.54">
        <ele>495.7</ele>
        <time>2019-02-03T08:01:05Z</time>
      </trkpt>
      <trkpt lat="43.32708" lon="5.5399">
        <ele>498.1</ele>
        <time>2019-02-03T08:01:16Z</time>
      </trkpt>
      <trkpt lat="43.32714" lon="5.53985">
        <ele>499.54</ele>
        <time>2019-02-03T08:01:23Z</time>
      </trkpt>
      <trkpt lat="43.32719" lon="5.53983">
        <ele>500.5</ele>
        <time>2019-02-03T08:01:28Z</time>
      </trkpt>
      <trkpt lat="43.32725" lon="5.53983">
        <ele>501.46</ele>
        <time>2019-02-03T08:01:33Z</time>
      </trkpt>
      <trkpt lat="43.32729" lon="5.53982">
        <ele>501.95</ele>
        <time>2019-02-03T08:01:37Z</time>
      </trkpt>
      <trkpt lat="43.32733" lon="5.5398">
        <ele>503.87</ele>
        <time>2019-02-03T08:01:41Z</time>
      </trkpt>
      <trkpt lat="43.32737" lon="5.53978">
        <ele>504.83</ele>
        <time>2019-02-03T08:01:45Z</time>
      </trkpt>
      <trkpt lat="43.3274" lon="5.53977">
        <ele>505.31</ele>
        <time>2019-02-03T08:01:56Z</time>
      </trkpt>
      <trkpt lat="43.32739" lon="5.53976">
        <ele>505.31</ele>
        <time>2019-02-03T08:02:10Z</time>
      </trkpt>
      <trkpt lat="43.32739" lon="5.53976">
        <ele>504.35</ele>
        <time>2019-02-03T08:02:39Z</time>
      </trkpt>
      <trkpt lat="43.32739" lon="5.53976">
        <ele>504.35</ele>
        <time>2019-02-03T08:03:11Z</time>
      </trkpt>
      <trkpt lat="43.32739" lon="5.53976">
        <ele>503.87</ele>
        <time>2019-02-03T08:03:31Z</time>
      </trkpt>
      <trkpt lat="43.32739" lon="5.53976">
        <ele>503.87</ele>
        <time>2019-02-03T08:03:50Z</time>
      </trkpt>
      <trkpt lat="43.3274" lon="5.53976">
        <ele>503.87</ele>
        <time>2019-02-03T08:04:03Z</time>
      </trkpt>
      <trkpt lat="43.32743" lon="5.53978">
        <ele>504.83</ele>
        <time>2019-02-03T08:04:09Z</time>
      </trkpt>
      <trkpt lat="43.3275" lon="5.53978">
        <ele>506.27</ele>
        <time>2019-02-03T08:04:17Z</time>
      </trkpt>
      <trkpt lat="43.32755" lon="5.53977">
        <ele>507.71</ele>
        <time>2019-02-03T08:04:22Z</time>
      </trkpt>
      <trkpt lat="43.3276" lon="5.53976">
        <ele>508.67</ele>
        <time>2019-02-03T08:04:27Z</time>
      </trkpt>
      <trkpt lat="43.32764" lon="5.53975">
        <ele>508.67</ele>
        <time>2019-02-03T08:04:31Z</time>
      </trkpt>
      <trkpt lat="43.32768" lon="5.53973">
        <ele>512.04</ele>
        <time>2019-02-03T08:04:36Z</time>
      </trkpt>
      <trkpt lat="43.32772" lon="5.53973">
        <ele>513.96</ele>
        <time>2019-02-03T08:04:39Z</time>
      </trkpt>
      <trkpt lat="43.32783" lon="5.53969">
        <ele>513.48</ele>
        <time>2019-02-03T08:04:50Z</time>
      </trkpt>
      <trkpt lat="43.32792" lon="5.53964">
        <ele>516.37</ele>
        <time>2019-02-03T08:05:01Z</time>
      </trkpt>
      <trkpt lat="43.32797" lon="5.53961">
        <ele>519.73</ele>
        <time>2019-02-03T08:05:06Z</time>
      </trkpt>
      <trkpt lat="43.32798" lon="5.53961">
        <ele>519.25</ele>
        <time>2019-02-03T08:05:08Z</time>
      </trkpt>
      <trkpt lat="43.32801" lon="5.5396">
        <ele>519.25</ele>
        <time>2019-02-03T08:05:11Z</time>
      </trkpt>
      <trkpt lat="43.32803" lon="5.53958">
        <ele>519.73</ele>
        <time>2019-02-03T08:05:13Z</time>
      </trkpt>
      <trkpt lat="43.32805" lon="5.53957">
        <ele>520.21</ele>
        <time>2019-02-03T08:05:16Z</time>
      </trkpt>
      <trkpt lat="43.32807" lon="5.53957">
        <ele>521.17</ele>
        <time>2019-02-03T08:05:18Z</time>
      </trkpt>
      <trkpt lat="43.32817" lon="5.53954">
        <ele>522.13</ele>
        <time>2019-02-03T08:05:29Z</time>
      </trkpt>
      <trkpt lat="43.32825" lon="5.53953">
        <ele>524.06</ele>
        <time>2019-02-03T08:05:37Z</time>
      </trkpt>
      <trkpt lat="43.32834" lon="5.53953">
        <ele>525.98</ele>
        <time>2019-02-03T08:05:45Z</time>
      </trkpt>
      <trkpt lat="43.32837" lon="5.53954">
        <ele>526.46</ele>
        <time>2019-02-03T08:05:49Z</time>
      </trkpt>
      <trkpt lat="43.32848" lon="5.5396">
        <ele>528.86</ele>
        <time>2019-02-03T08:06:00Z</time>
      </trkpt>
      <trkpt lat="43.32852" lon="5.53963">
        <ele>529.82</ele>
        <time>2019-02-03T08:06:04Z</time>
      </trkpt>
      <trkpt lat="43.32855" lon="5.53962">
        <ele>528.86</ele>
        <time>2019-02-03T08:06:17Z</time>
      </trkpt>
      <trkpt lat="43.32856" lon="5.53962">
        <ele>529.34</ele>
        <time>2019-02-03T08:06:29Z</time>
      </trkpt>
      <trkpt lat="43.32855" lon="5.53962">
        <ele>532.71</ele>
        <time>2019-02-03T08:06:37Z</time>
      </trkpt>
      <trkpt lat="43.32855" lon="5.53962">
        <ele>532.71</ele>
        <time>2019-02-03T08:06:38Z</time>
      </trkpt>
      <trkpt lat="43.32855" lon="5.53962">
        <ele>529.82</ele>
        <time>2019-02-03T08:06:43Z</time>
      </trkpt>
      <trkpt lat="43.32855" lon="5.53962">
        <ele>529.34</ele>
        <time>2019-02-03T08:06:44Z</time>
      </trkpt>
      <trkpt lat="43.32861" lon="5.53967">
        <ele>529.82</ele>
        <time>2019-02-03T08:06:49Z</time>
      </trkpt>
      <trkpt lat="43.32871" lon="5.53975">
        <ele>529.82</ele>
        <time>2019-02-03T08:06:56Z</time>
      </trkpt>
      <trkpt lat="43.32873" lon="5.53978">
        <ele>530.3</ele>
        <time>2019-02-03T08:06:59Z</time>
      </trkpt>
      <trkpt lat="43.32881" lon="5.53986">
        <ele>530.79</ele>
        <time>2019-02-03T08:07:07Z</time>
      </trkpt>
      <trkpt lat="43.32888" lon="5.53998">
        <ele>529.82</ele>
        <time>2019-02-03T08:07:15Z</time>
      </trkpt>
      <trkpt lat="43.32891" lon="5.54004">
        <ele>529.82</ele>
        <time>2019-02-03T08:07:20Z</time>
      </trkpt>
      <trkpt lat="43.32894" lon="5.54008">
        <ele>528.38</ele>
        <time>2019-02-03T08:07:24Z</time>
      </trkpt>
      <trkpt lat="43.32895" lon="5.54011">
        <ele>529.82</ele>
        <time>2019-02-03T08:07:26Z</time>
      </trkpt>
      <trkpt lat="43.32897" lon="5.54015">
        <ele>529.82</ele>
        <time>2019-02-03T08:07:29Z</time>
      </trkpt>
      <trkpt lat="43.32902" lon="5.54023">
        <ele>531.75</ele>
        <time>2019-02-03T08:07:36Z</time>
      </trkpt>
      <trkpt lat="43.32906" lon="5.54033">
        <ele>533.19</ele>
        <time>2019-02-03T08:07:42Z</time>
      </trkpt>
      <trkpt lat="43.32907" lon="5.54036">
        <ele>532.71</ele>
        <time>2019-02-03T08:07:47Z</time>
      </trkpt>
      <trkpt lat="43.32911" lon="5.54044">
        <ele>533.19</ele>
        <time>2019-02-03T08:07:53Z</time>
      </trkpt>
      <trkpt lat="43.32915" lon="5.54054">
        <ele>533.67</ele>
        <time>2019-02-03T08:07:59Z</time>
      </trkpt>
      <trkpt lat="43.32921" lon="5.54064">
        <ele>534.15</ele>
        <time>2019-02-03T08:08:06Z</time>
      </trkpt>
      <trkpt lat="43.32924" lon="5.5407">
        <ele>535.59</ele>
        <time>2019-02-03T08:08:10Z</time>
      </trkpt>
      <trkpt lat="43.32928" lon="5.54076">
        <ele>536.07</ele>
        <time>2019-02-03T08:08:15Z</time>
      </trkpt>
      <trkpt lat="43.32935" lon="5.54081">
        <ele>537.03</ele>
        <time>2019-02-03T08:08:22Z</time>
      </trkpt>
      <trkpt lat="43.32941" lon="5.54093">
        <ele>539.44</ele>
        <time>2019-02-03T08:08:31Z</time>
      </trkpt>
      <trkpt lat="43.32948" lon="5.54102">
        <ele>540.88</ele>
        <time>2019-02-03T08:08:39Z</time>
      </trkpt>
      <trkpt lat="43.32964" lon="5.54102">
        <ele>544.24</ele>
        <time>2019-02-03T08:08:52Z</time>
      </trkpt>
      <trkpt lat="43.32979" lon="5.54093">
        <ele>543.76</ele>
        <time>2019-02-03T08:09:04Z</time>
      </trkpt>
      <trkpt lat="43.32982" lon="5.54089">
        <ele>544.72</ele>
        <time>2019-02-03T08:09:07Z</time>
      </trkpt>
      <trkpt lat="43.32993" lon="5.54085">
        <ele>547.13</ele>
        <time>2019-02-03T08:09:17Z</time>
      </trkpt>
      <trkpt lat="43.32996" lon="5.54084">
        <ele>547.61</ele>
        <time>2019-02-03T08:09:20Z</time>
      </trkpt>
      <trkpt lat="43.33002" lon="5.54084">
        <ele>548.09</ele>
        <time>2019-02-03T08:09:25Z</time>
      </trkpt>
      <trkpt lat="43.33007" lon="5.54086">
        <ele>550.01</ele>
        <time>2019-02-03T08:09:30Z</time>
      </trkpt>
      <trkpt lat="43.33018" lon="5.54095">
        <ele>550.97</ele>
        <time>2019-02-03T08:09:42Z</time>
      </trkpt>
      <trkpt lat="43.33019" lon="5.54096">
        <ele>551.93</ele>
        <time>2019-02-03T08:09:45Z</time>
      </trkpt>
      <trkpt lat="43.33021" lon="5.541">
        <ele>553.38</ele>
        <time>2019-02-03T08:09:48Z</time>
      </trkpt>
      <trkpt lat="43.33025" lon="5.54107">
        <ele>552.9</ele>
        <time>2019-02-03T08:09:54Z</time>
      </trkpt>
      <trkpt lat="43.33033" lon="5.5412">
        <ele>555.3</ele>
        <time>2019-02-03T08:10:05Z</time>
      </trkpt>
      <trkpt lat="43.33041" lon="5.54132">
        <ele>557.22</ele>
        <time>2019-02-03T08:10:15Z</time>
      </trkpt>
      <trkpt lat="43.33046" lon="5.54136">
        <ele>557.7</ele>
        <time>2019-02-03T08:10:20Z</time>
      </trkpt>
      <trkpt lat="43.3305" lon="5.5414">
        <ele>558.66</ele>
        <time>2019-02-03T08:10:25Z</time>
      </trkpt>
      <trkpt lat="43.33052" lon="5.54143">
        <ele>557.7</ele>
        <time>2019-02-03T08:10:30Z</time>
      </trkpt>
      <trkpt lat="43.33054" lon="5.54145">
        <ele>558.66</ele>
        <time>2019-02-03T08:10:32Z</time>
      </trkpt>
      <trkpt lat="43.3306" lon="5.5415">
        <ele>559.62</ele>
        <time>2019-02-03T08:10:40Z</time>
      </trkpt>
      <trkpt lat="43.33063" lon="5.54152">
        <ele>561.07</ele>
        <time>2019-02-03T08:10:43Z</time>
      </trkpt>
      <trkpt lat="43.33067" lon="5.54156">
        <ele>562.03</ele>
        <time>2019-02-03T08:10:48Z</time>
      </trkpt>
      <trkpt lat="43.33075" lon="5.54165">
        <ele>563.47</ele>
        <time>2019-02-03T08:10:59Z</time>
      </trkpt>
      <trkpt lat="43.33077" lon="5.54167">
        <ele>564.43</ele>
        <time>2019-02-03T08:11:02Z</time>
      </trkpt>
      <trkpt lat="43.33083" lon="5.54171">
        <ele>566.35</ele>
        <time>2019-02-03T08:11:08Z</time>
      </trkpt>
      <trkpt lat="43.33087" lon="5.54174">
        <ele>566.35</ele>
        <time>2019-02-03T08:11:13Z</time>
      </trkpt>
      <trkpt lat="43.3309" lon="5.54175">
        <ele>567.8</ele>
        <time>2019-02-03T08:11:16Z</time>
      </trkpt>
      <trkpt lat="43.33092" lon="5.54177">
        <ele>568.76</ele>
        <time>2019-02-03T08:11:18Z</time>
      </trkpt>
      <trkpt lat="43.33093" lon="5.54177">
        <ele>569.24</ele>
        <time>2019-02-03T08:11:19Z</time>
      </trkpt>
      <trkpt lat="43.33097" lon="5.54182">
        <ele>570.2</ele>
        <time>2019-02-03T08:11:25Z</time>
      </trkpt>
      <trkpt lat="43.331" lon="5.54185">
        <ele>571.16</ele>
        <time>2019-02-03T08:11:29Z</time>
      </trkpt>
      <trkpt lat="43.33104" lon="5.54188">
        <ele>571.16</ele>
        <time>2019-02-03T08:11:34Z</time>
      </trkpt>
      <trkpt lat="43.3311" lon="5.54193">
        <ele>573.56</ele>
        <time>2019-02-03T08:11:41Z</time>
      </trkpt>
      <trkpt lat="43.33114" lon="5.54195">
        <ele>575.49</ele>
        <time>2019-02-03T08:11:45Z</time>
      </trkpt>
      <trkpt lat="43.3312" lon="5.54198">
        <ele>575.97</ele>
        <time>2019-02-03T08:11:55Z</time>
      </trkpt>
      <trkpt lat="43.33123" lon="5.54201">
        <ele>576.45</ele>
        <time>2019-02-03T08:12:05Z</time>
      </trkpt>
      <trkpt lat="43.33125" lon="5.54206">
        <ele>576.93</ele>
        <time>2019-02-03T08:12:14Z</time>
      </trkpt>
      <trkpt lat="43.33119" lon="5.54209">
        <ele>575.97</ele>
        <time>2019-02-03T08:12:19Z</time>
      </trkpt>
      <trkpt lat="43.33118" lon="5.5421">
        <ele>574.53</ele>
        <time>2019-02-03T08:12:23Z</time>
      </trkpt>
      <trkpt lat="43.33118" lon="5.5421">
        <ele>575.97</ele>
        <time>2019-02-03T08:12:40Z</time>
      </trkpt>
      <trkpt lat="43.33118" lon="5.5421">
        <ele>575.49</ele>
        <time>2019-02-03T08:12:56Z</time>
      </trkpt>
      <trkpt lat="43.33119" lon="5.5421">
        <ele>575.49</ele>
        <time>2019-02-03T08:13:04Z</time>
      </trkpt>
      <trkpt lat="43.33118" lon="5.54208">
        <ele>576.45</ele>
        <time>2019-02-03T08:13:13Z</time>
      </trkpt>
      <trkpt lat="43.33119" lon="5.5421">
        <ele>575.49</ele>
        <time>2019-02-03T08:13:20Z</time>
      </trkpt>
      <trkpt lat="43.3312" lon="5.54221">
        <ele>575.49</ele>
        <time>2019-02-03T08:13:25Z</time>
      </trkpt>
      <trkpt lat="43.3312" lon="5.54231">
        <ele>575.97</ele>
        <time>2019-02-03T08:13:31Z</time>
      </trkpt>
      <trkpt lat="43.33122" lon="5.54246">
        <ele>580.77</ele>
        <time>2019-02-03T08:13:40Z</time>
      </trkpt>
      <trkpt lat="43.33131" lon="5.54254">
        <ele>581.25</ele>
        <time>2019-02-03T08:13:51Z</time>
      </trkpt>
      <trkpt lat="43.33132" lon="5.54257">
        <ele>583.18</ele>
        <time>2019-02-03T08:14:04Z</time>
      </trkpt>
      <trkpt lat="43.33132" lon="5.54257">
        <ele>582.7</ele>
        <time>2019-02-03T08:14:32Z</time>
      </trkpt>
      <trkpt lat="43.33132" lon="5.54257">
        <ele>582.7</ele>
        <time>2019-02-03T08:14:38Z</time>
      </trkpt>
      <trkpt lat="43.33143" lon="5.54249">
        <ele>583.66</ele>
        <time>2019-02-03T08:14:48Z</time>
      </trkpt>
      <trkpt lat="43.3316" lon="5.54239">
        <ele>584.62</ele>
        <time>2019-02-03T08:15:02Z</time>
      </trkpt>
      <trkpt lat="43.33169" lon="5.54238">
        <ele>584.62</ele>
        <time>2019-02-03T08:15:09Z</time>
      </trkpt>
      <trkpt lat="43.33173" lon="5.54237">
        <ele>585.58</ele>
        <time>2019-02-03T08:15:12Z</time>
      </trkpt>
      <trkpt lat="43.33179" lon="5.54235">
        <ele>587.02</ele>
        <time>2019-02-03T08:15:17Z</time>
      </trkpt>
      <trkpt lat="43.33194" lon="5.54233">
        <ele>587.98</ele>
        <time>2019-02-03T08:15:29Z</time>
      </trkpt>
      <trkpt lat="43.33201" lon="5.54234">
        <ele>590.39</ele>
        <time>2019-02-03T08:15:35Z</time>
      </trkpt>
      <trkpt lat="43.33208" lon="5.54237">
        <ele>591.83</ele>
        <time>2019-02-03T08:15:40Z</time>
      </trkpt>
      <trkpt lat="43.3321" lon="5.54236">
        <ele>591.35</ele>
        <time>2019-02-03T08:15:42Z</time>
      </trkpt>
      <trkpt lat="43.33227" lon="5.54249">
        <ele>593.75</ele>
        <time>2019-02-03T08:15:55Z</time>
      </trkpt>
      <trkpt lat="43.33228" lon="5.54249">
        <ele>593.75</ele>
        <time>2019-02-03T08:15:56Z</time>
      </trkpt>
      <trkpt lat="43.3323" lon="5.54253">
        <ele>594.23</ele>
        <time>2019-02-03T08:15:59Z</time>
      </trkpt>
      <trkpt lat="43.33248" lon="5.54275">
        <ele>597.12</ele>
        <time>2019-02-03T08:16:13Z</time>
      </trkpt>
      <trkpt lat="43.33256" lon="5.54282">
        <ele>598.08</ele>
        <time>2019-02-03T08:16:18Z</time>
      </trkpt>
      <trkpt lat="43.33268" lon="5.54298">
        <ele>596.15</ele>
        <time>2019-02-03T08:16:31Z</time>
      </trkpt>
      <trkpt lat="43.33274" lon="5.54305">
        <ele>597.6</ele>
        <time>2019-02-03T08:16:36Z</time>
      </trkpt>
      <trkpt lat="43.33276" lon="5.54306">
        <ele>597.6</ele>
        <time>2019-02-03T08:16:38Z</time>
      </trkpt>
      <trkpt lat="43.33277" lon="5.54309">
        <ele>599.04</ele>
        <time>2019-02-03T08:16:40Z</time>
      </trkpt>
      <trkpt lat="43.33284" lon="5.54319">
        <ele>599.04</ele>
        <time>2019-02-03T08:16:49Z</time>
      </trkpt>
      <trkpt lat="43.33285" lon="5.54315">
        <ele>600.48</ele>
        <time>2019-02-03T08:16:52Z</time>
      </trkpt>
      <trkpt lat="43.33286" lon="5.54307">
        <ele>600</ele>
        <time>2019-02-03T08:16:58Z</time>
      </trkpt>
      <trkpt lat="43.33289" lon="5.54302">
        <ele>600.96</ele>
        <time>2019-02-03T08:17:04Z</time>
      </trkpt>
      <trkpt lat="43.33294" lon="5.54304">
        <ele>600.48</ele>
        <time>2019-02-03T08:17:16Z</time>
      </trkpt>
      <trkpt lat="43.33294" lon="5.54304">
        <ele>599.52</ele>
        <time>2019-02-03T08:17:17Z</time>
      </trkpt>
      <trkpt lat="43.33289" lon="5.54303">
        <ele>601.44</ele>
        <time>2019-02-03T08:17:27Z</time>
      </trkpt>
      <trkpt lat="43.33285" lon="5.54322">
        <ele>600.48</ele>
        <time>2019-02-03T08:17:38Z</time>
      </trkpt>
      <trkpt lat="43.33288" lon="5.54331">
        <ele>601.44</ele>
        <time>2019-02-03T08:17:43Z</time>
      </trkpt>
      <trkpt lat="43.33291" lon="5.54335">
        <ele>601.44</ele>
        <time>2019-02-03T08:17:46Z</time>
      </trkpt>
      <trkpt lat="43.33292" lon="5.54337">
        <ele>601.92</ele>
        <time>2019-02-03T08:17:48Z</time>
      </trkpt>
      <trkpt lat="43.33295" lon="5.54343">
        <ele>601.92</ele>
        <time>2019-02-03T08:17:52Z</time>
      </trkpt>
      <trkpt lat="43.33297" lon="5.54348">
        <ele>602.88</ele>
        <time>2019-02-03T08:17:56Z</time>
      </trkpt>
      <trkpt lat="43.33302" lon="5.5436">
        <ele>604.33</ele>
        <time>2019-02-03T08:18:04Z</time>
      </trkpt>
      <trkpt lat="43.33302" lon="5.54361">
        <ele>603.36</ele>
        <time>2019-02-03T08:18:05Z</time>
      </trkpt>
      <trkpt lat="43.33308" lon="5.54385">
        <ele>605.29</ele>
        <time>2019-02-03T08:18:18Z</time>
      </trkpt>
      <trkpt lat="43.33311" lon="5.54398">
        <ele>606.73</ele>
        <time>2019-02-03T08:18:26Z</time>
      </trkpt>
      <trkpt lat="43.33316" lon="5.54417">
        <ele>607.69</ele>
        <time>2019-02-03T08:18:37Z</time>
      </trkpt>
      <trkpt lat="43.33319" lon="5.54425">
        <ele>608.65</ele>
        <time>2019-02-03T08:18:42Z</time>
      </trkpt>
      <trkpt lat="43.33321" lon="5.54432">
        <ele>609.13</ele>
        <time>2019-02-03T08:18:46Z</time>
      </trkpt>
      <trkpt lat="43.33327" lon="5.54443">
        <ele>610.57</ele>
        <time>2019-02-03T08:18:54Z</time>
      </trkpt>
      <trkpt lat="43.33328" lon="5.54447">
        <ele>611.54</ele>
        <time>2019-02-03T08:18:57Z</time>
      </trkpt>
      <trkpt lat="43.33333" lon="5.54457">
        <ele>612.02</ele>
        <time>2019-02-03T08:19:04Z</time>
      </trkpt>
      <trkpt lat="43.3334" lon="5.54467">
        <ele>612.5</ele>
        <time>2019-02-03T08:19:12Z</time>
      </trkpt>
      <trkpt lat="43.33349" lon="5.54483">
        <ele>614.42</ele>
        <time>2019-02-03T08:19:23Z</time>
      </trkpt>
      <trkpt lat="43.33357" lon="5.545">
        <ele>614.42</ele>
        <time>2019-02-03T08:19:35Z</time>
      </trkpt>
      <trkpt lat="43.3336" lon="5.54504">
        <ele>615.38</ele>
        <time>2019-02-03T08:19:43Z</time>
      </trkpt>
      <trkpt lat="43.33361" lon="5.54506">
        <ele>617.3</ele>
        <time>2019-02-03T08:19:45Z</time>
      </trkpt>
      <trkpt lat="43.33362" lon="5.54513">
        <ele>614.9</ele>
        <time>2019-02-03T08:19:49Z</time>
      </trkpt>
      <trkpt lat="43.33364" lon="5.54524">
        <ele>616.82</ele>
        <time>2019-02-03T08:19:54Z</time>
      </trkpt>
      <trkpt lat="43.33368" lon="5.54541">
        <ele>617.78</ele>
        <time>2019-02-03T08:20:04Z</time>
      </trkpt>
      <trkpt lat="43.33368" lon="5.54557">
        <ele>617.78</ele>
        <time>2019-02-03T08:20:13Z</time>
      </trkpt>
      <trkpt lat="43.33369" lon="5.54572">
        <ele>617.78</ele>
        <time>2019-02-03T08:20:24Z</time>
      </trkpt>
      <trkpt lat="43.33369" lon="5.5458">
        <ele>618.26</ele>
        <time>2019-02-03T08:20:28Z</time>
      </trkpt>
      <trkpt lat="43.33369" lon="5.54603">
        <ele>620.19</ele>
        <time>2019-02-03T08:20:40Z</time>
      </trkpt>
      <trkpt lat="43.33369" lon="5.54604">
        <ele>620.19</ele>
        <time>2019-02-03T08:20:41Z</time>
      </trkpt>
      <trkpt lat="43.33373" lon="5.54627">
        <ele>620.67</ele>
        <time>2019-02-03T08:20:55Z</time>
      </trkpt>
      <trkpt lat="43.33384" lon="5.54648">
        <ele>619.71</ele>
        <time>2019-02-03T08:21:09Z</time>
      </trkpt>
      <trkpt lat="43.33394" lon="5.54663">
        <ele>619.71</ele>
        <time>2019-02-03T08:21:20Z</time>
      </trkpt>
      <trkpt lat="43.33398" lon="5.54668">
        <ele>619.71</ele>
        <time>2019-02-03T08:21:25Z</time>
      </trkpt>
      <trkpt lat="43.33412" lon="5.54678">
        <ele>621.15</ele>
        <time>2019-02-03T08:21:37Z</time>
      </trkpt>
      <trkpt lat="43.33424" lon="5.54687">
        <ele>622.11</ele>
        <time>2019-02-03T08:21:48Z</time>
      </trkpt>
      <trkpt lat="43.3343" lon="5.54697">
        <ele>621.63</ele>
        <time>2019-02-03T08:21:55Z</time>
      </trkpt>
      <trkpt lat="43.33435" lon="5.54714">
        <ele>622.11</ele>
        <time>2019-02-03T08:22:06Z</time>
      </trkpt>
      <trkpt lat="43.33434" lon="5.54735">
        <ele>622.11</ele>
        <time>2019-02-03T08:22:18Z</time>
      </trkpt>
      <trkpt lat="43.33432" lon="5.54755">
        <ele>622.59</ele>
        <time>2019-02-03T08:22:29Z</time>
      </trkpt>
      <trkpt lat="43.33431" lon="5.54763">
        <ele>622.11</ele>
        <time>2019-02-03T08:22:34Z</time>
      </trkpt>
      <trkpt lat="43.3343" lon="5.54772">
        <ele>623.55</ele>
        <time>2019-02-03T08:22:39Z</time>
      </trkpt>
      <trkpt lat="43.33429" lon="5.54794">
        <ele>622.11</ele>
        <time>2019-02-03T08:22:51Z</time>
      </trkpt>
      <trkpt lat="43.33428" lon="5.54813">
        <ele>620.67</ele>
        <time>2019-02-03T08:23:02Z</time>
      </trkpt>
      <trkpt lat="43.3343" lon="5.54818">
        <ele>619.71</ele>
        <time>2019-02-03T08:23:06Z</time>
      </trkpt>
      <trkpt lat="43.3343" lon="5.54826">
        <ele>618.26</ele>
        <time>2019-02-03T08:23:11Z</time>
      </trkpt>
      <trkpt lat="43.33431" lon="5.54836">
        <ele>619.23</ele>
        <time>2019-02-03T08:23:16Z</time>
      </trkpt>
      <trkpt lat="43.3343" lon="5.54844">
        <ele>616.82</ele>
        <time>2019-02-03T08:23:22Z</time>
      </trkpt>
      <trkpt lat="43.33431" lon="5.54856">
        <ele>617.3</ele>
        <time>2019-02-03T08:23:28Z</time>
      </trkpt>
      <trkpt lat="43.33431" lon="5.54872">
        <ele>618.75</ele>
        <time>2019-02-03T08:23:38Z</time>
      </trkpt>
      <trkpt lat="43.33432" lon="5.54876">
        <ele>618.75</ele>
        <time>2019-02-03T08:23:41Z</time>
      </trkpt>
      <trkpt lat="43.33434" lon="5.54888">
        <ele>618.75</ele>
        <time>2019-02-03T08:23:48Z</time>
      </trkpt>
      <trkpt lat="43.33435" lon="5.54906">
        <ele>618.26</ele>
        <time>2019-02-03T08:23:57Z</time>
      </trkpt>
      <trkpt lat="43.33437" lon="5.5491">
        <ele>618.26</ele>
        <time>2019-02-03T08:24:00Z</time>
      </trkpt>
      <trkpt lat="43.3344" lon="5.54924">
        <ele>619.71</ele>
        <time>2019-02-03T08:24:09Z</time>
      </trkpt>
      <trkpt lat="43.33443" lon="5.54942">
        <ele>619.71</ele>
        <time>2019-02-03T08:24:20Z</time>
      </trkpt>
      <trkpt lat="43.33447" lon="5.5495">
        <ele>619.71</ele>
        <time>2019-02-03T08:24:25Z</time>
      </trkpt>
      <trkpt lat="43.33447" lon="5.54955">
        <ele>619.71</ele>
        <time>2019-02-03T08:24:28Z</time>
      </trkpt>
      <trkpt lat="43.3345" lon="5.54969">
        <ele>620.19</ele>
        <time>2019-02-03T08:24:37Z</time>
      </trkpt>
      <trkpt lat="43.33454" lon="5.54987">
        <ele>620.19</ele>
        <time>2019-02-03T08:24:48Z</time>
      </trkpt>
      <trkpt lat="43.33457" lon="5.55002">
        <ele>620.67</ele>
        <time>2019-02-03T08:24:58Z</time>
      </trkpt>
      <trkpt lat="43.33457" lon="5.55003">
        <ele>620.19</ele>
        <time>2019-02-03T08:25:00Z</time>
      </trkpt>
      <trkpt lat="43.33458" lon="5.55007">
        <ele>620.67</ele>
        <time>2019-02-03T08:25:03Z</time>
      </trkpt>
      <trkpt lat="43.33457" lon="5.55013">
        <ele>620.67</ele>
        <time>2019-02-03T08:25:06Z</time>
      </trkpt>
      <trkpt lat="43.33462" lon="5.5503">
        <ele>622.59</ele>
        <time>2019-02-03T08:25:18Z</time>
      </trkpt>
      <trkpt lat="43.33462" lon="5.55031">
        <ele>622.59</ele>
        <time>2019-02-03T08:25:19Z</time>
      </trkpt>
      <trkpt lat="43.33465" lon="5.55035">
        <ele>623.07</ele>
        <time>2019-02-03T08:25:23Z</time>
      </trkpt>
      <trkpt lat="43.33474" lon="5.5505">
        <ele>624.51</ele>
        <time>2019-02-03T08:25:34Z</time>
      </trkpt>
      <trkpt lat="43.33477" lon="5.55055">
        <ele>625.96</ele>
        <time>2019-02-03T08:25:37Z</time>
      </trkpt>
      <trkpt lat="43.33481" lon="5.55061">
        <ele>625.47</ele>
        <time>2019-02-03T08:25:42Z</time>
      </trkpt>
      <trkpt lat="43.33483" lon="5.55064">
        <ele>624.99</ele>
        <time>2019-02-03T08:25:44Z</time>
      </trkpt>
      <trkpt lat="43.33489" lon="5.55073">
        <ele>626.44</ele>
        <time>2019-02-03T08:25:51Z</time>
      </trkpt>
      <trkpt lat="43.33491" lon="5.55075">
        <ele>626.92</ele>
        <time>2019-02-03T08:25:57Z</time>
      </trkpt>
      <trkpt lat="43.33491" lon="5.55077">
        <ele>627.88</ele>
        <time>2019-02-03T08:26:00Z</time>
      </trkpt>
      <trkpt lat="43.33493" lon="5.55081">
        <ele>627.88</ele>
        <time>2019-02-03T08:26:03Z</time>
      </trkpt>
      <trkpt lat="43.33497" lon="5.55084">
        <ele>628.84</ele>
        <time>2019-02-03T08:26:06Z</time>
      </trkpt>
      <trkpt lat="43.33501" lon="5.55088">
        <ele>629.32</ele>
        <time>2019-02-03T08:26:11Z</time>
      </trkpt>
      <trkpt lat="43.33504" lon="5.55089">
        <ele>629.32</ele>
        <time>2019-02-03T08:26:15Z</time>
      </trkpt>
      <trkpt lat="43.33507" lon="5.55091">
        <ele>629.32</ele>
        <time>2019-02-03T08:26:18Z</time>
      </trkpt>
      <trkpt lat="43.33512" lon="5.55091">
        <ele>630.28</ele>
        <time>2019-02-03T08:26:23Z</time>
      </trkpt>
      <trkpt lat="43.33527" lon="5.55077">
        <ele>628.36</ele>
        <time>2019-02-03T08:26:36Z</time>
      </trkpt>
      <trkpt lat="43.33531" lon="5.5507">
        <ele>628.36</ele>
        <time>2019-02-03T08:26:42Z</time>
      </trkpt>
      <trkpt lat="43.33536" lon="5.55064">
        <ele>627.88</ele>
        <time>2019-02-03T08:26:47Z</time>
      </trkpt>
      <trkpt lat="43.33543" lon="5.55054">
        <ele>630.28</ele>
        <time>2019-02-03T08:26:53Z</time>
      </trkpt>
      <trkpt lat="43.3355" lon="5.55039">
        <ele>630.76</ele>
        <time>2019-02-03T08:27:04Z</time>
      </trkpt>
      <trkpt lat="43.33556" lon="5.55019">
        <ele>629.8</ele>
        <time>2019-02-03T08:27:16Z</time>
      </trkpt>
      <trkpt lat="43.33557" lon="5.55013">
        <ele>630.76</ele>
        <time>2019-02-03T08:27:20Z</time>
      </trkpt>
      <trkpt lat="43.33562" lon="5.54993">
        <ele>631.24</ele>
        <time>2019-02-03T08:27:32Z</time>
      </trkpt>
      <trkpt lat="43.33566" lon="5.54978">
        <ele>632.68</ele>
        <time>2019-02-03T08:27:41Z</time>
      </trkpt>
      <trkpt lat="43.33567" lon="5.54969">
        <ele>632.2</ele>
        <time>2019-02-03T08:27:48Z</time>
      </trkpt>
      <trkpt lat="43.3357" lon="5.54953">
        <ele>634.13</ele>
        <time>2019-02-03T08:27:58Z</time>
      </trkpt>
      <trkpt lat="43.33572" lon="5.54948">
        <ele>634.61</ele>
        <time>2019-02-03T08:28:01Z</time>
      </trkpt>
      <trkpt lat="43.33577" lon="5.54927">
        <ele>634.13</ele>
        <time>2019-02-03T08:28:13Z</time>
      </trkpt>
      <trkpt lat="43.33582" lon="5.54908">
        <ele>635.09</ele>
        <time>2019-02-03T08:28:24Z</time>
      </trkpt>
      <trkpt lat="43.33583" lon="5.54904">
        <ele>635.09</ele>
        <time>2019-02-03T08:28:26Z</time>
      </trkpt>
      <trkpt lat="43.33592" lon="5.54883">
        <ele>636.05</ele>
        <time>2019-02-03T08:28:39Z</time>
      </trkpt>
      <trkpt lat="43.33605" lon="5.54869">
        <ele>636.05</ele>
        <time>2019-02-03T08:28:51Z</time>
      </trkpt>
      <trkpt lat="43.33616" lon="5.54861">
        <ele>637.01</ele>
        <time>2019-02-03T08:29:00Z</time>
      </trkpt>
      <trkpt lat="43.33624" lon="5.54855">
        <ele>636.53</ele>
        <time>2019-02-03T08:29:05Z</time>
      </trkpt>
      <trkpt lat="43.33642" lon="5.54843">
        <ele>637.49</ele>
        <time>2019-02-03T08:29:19Z</time>
      </trkpt>
      <trkpt lat="43.33659" lon="5.54833">
        <ele>637.97</ele>
        <time>2019-02-03T08:29:33Z</time>
      </trkpt>
      <trkpt lat="43.33671" lon="5.54833">
        <ele>637.01</ele>
        <time>2019-02-03T08:29:42Z</time>
      </trkpt>
      <trkpt lat="43.33675" lon="5.54831">
        <ele>637.01</ele>
        <time>2019-02-03T08:29:46Z</time>
      </trkpt>
      <trkpt lat="43.33686" lon="5.54828">
        <ele>636.53</ele>
        <time>2019-02-03T08:29:53Z</time>
      </trkpt>
      <trkpt lat="43.33695" lon="5.54827">
        <ele>636.05</ele>
        <time>2019-02-03T08:30:01Z</time>
      </trkpt>
      <trkpt lat="43.33709" lon="5.54823">
        <ele>635.57</ele>
        <time>2019-02-03T08:30:10Z</time>
      </trkpt>
      <trkpt lat="43.33728" lon="5.54818">
        <ele>635.57</ele>
        <time>2019-02-03T08:30:25Z</time>
      </trkpt>
      <trkpt lat="43.33742" lon="5.54815">
        <ele>636.53</ele>
        <time>2019-02-03T08:30:36Z</time>
      </trkpt>
      <trkpt lat="43.33747" lon="5.54815">
        <ele>637.01</ele>
        <time>2019-02-03T08:30:40Z</time>
      </trkpt>
      <trkpt lat="43.33759" lon="5.54815">
        <ele>637.97</ele>
        <time>2019-02-03T08:30:49Z</time>
      </trkpt>
      <trkpt lat="43.33774" lon="5.54817">
        <ele>638.93</ele>
        <time>2019-02-03T08:31:01Z</time>
      </trkpt>
      <trkpt lat="43.33787" lon="5.54817">
        <ele>638.93</ele>
        <time>2019-02-03T08:31:12Z</time>
      </trkpt>
      <trkpt lat="43.33802" lon="5.54818">
        <ele>640.86</ele>
        <time>2019-02-03T08:31:23Z</time>
      </trkpt>
      <trkpt lat="43.33804" lon="5.54818">
        <ele>642.3</ele>
        <time>2019-02-03T08:31:25Z</time>
      </trkpt>
      <trkpt lat="43.33807" lon="5.54819">
        <ele>640.86</ele>
        <time>2019-02-03T08:31:27Z</time>
      </trkpt>
      <trkpt lat="43.33815" lon="5.54819">
        <ele>641.82</ele>
        <time>2019-02-03T08:31:33Z</time>
      </trkpt>
      <trkpt lat="43.33833" lon="5.5482">
        <ele>642.3</ele>
        <time>2019-02-03T08:31:47Z</time>
      </trkpt>
      <trkpt lat="43.33847" lon="5.5482">
        <ele>643.26</ele>
        <time>2019-02-03T08:31:58Z</time>
      </trkpt>
      <trkpt lat="43.33853" lon="5.54819">
        <ele>644.7</ele>
        <time>2019-02-03T08:32:04Z</time>
      </trkpt>
      <trkpt lat="43.33867" lon="5.54814">
        <ele>646.14</ele>
        <time>2019-02-03T08:32:15Z</time>
      </trkpt>
      <trkpt lat="43.33878" lon="5.54807">
        <ele>647.1</ele>
        <time>2019-02-03T08:32:26Z</time>
      </trkpt>
      <trkpt lat="43.3389" lon="5.54799">
        <ele>648.55</ele>
        <time>2019-02-03T08:32:36Z</time>
      </trkpt>
      <trkpt lat="43.33903" lon="5.54788">
        <ele>649.03</ele>
        <time>2019-02-03T08:32:49Z</time>
      </trkpt>
      <trkpt lat="43.33903" lon="5.54788">
        <ele>648.07</ele>
        <time>2019-02-03T08:32:52Z</time>
      </trkpt>
      <trkpt lat="43.33906" lon="5.54785">
        <ele>650.47</ele>
        <time>2019-02-03T08:32:55Z</time>
      </trkpt>
      <trkpt lat="43.33914" lon="5.5478">
        <ele>650.95</ele>
        <time>2019-02-03T08:33:02Z</time>
      </trkpt>
      <trkpt lat="43.33928" lon="5.5477">
        <ele>652.39</ele>
        <time>2019-02-03T08:33:14Z</time>
      </trkpt>
      <trkpt lat="43.33941" lon="5.54765">
        <ele>653.35</ele>
        <time>2019-02-03T08:33:26Z</time>
      </trkpt>
      <trkpt lat="43.33956" lon="5.54758">
        <ele>654.8</ele>
        <time>2019-02-03T08:33:38Z</time>
      </trkpt>
      <trkpt lat="43.33958" lon="5.54758">
        <ele>654.31</ele>
        <time>2019-02-03T08:33:40Z</time>
      </trkpt>
      <trkpt lat="43.33963" lon="5.54758">
        <ele>655.28</ele>
        <time>2019-02-03T08:33:44Z</time>
      </trkpt>
      <trkpt lat="43.33965" lon="5.54757">
        <ele>654.31</ele>
        <time>2019-02-03T08:33:47Z</time>
      </trkpt>
      <trkpt lat="43.33973" lon="5.54759">
        <ele>652.87</ele>
        <time>2019-02-03T08:33:55Z</time>
      </trkpt>
      <trkpt lat="43.33977" lon="5.54762">
        <ele>650.95</ele>
        <time>2019-02-03T08:33:58Z</time>
      </trkpt>
      <trkpt lat="43.33979" lon="5.54764">
        <ele>648.55</ele>
        <time>2019-02-03T08:34:02Z</time>
      </trkpt>
      <trkpt lat="43.3398" lon="5.54764">
        <ele>650.47</ele>
        <time>2019-02-03T08:34:11Z</time>
      </trkpt>
      <trkpt lat="43.33984" lon="5.54766">
        <ele>647.59</ele>
        <time>2019-02-03T08:34:19Z</time>
      </trkpt>
      <trkpt lat="43.33986" lon="5.54766">
        <ele>649.03</ele>
        <time>2019-02-03T08:34:20Z</time>
      </trkpt>
      <trkpt lat="43.33992" lon="5.54769">
        <ele>649.03</ele>
        <time>2019-02-03T08:34:31Z</time>
      </trkpt>
      <trkpt lat="43.33993" lon="5.5477">
        <ele>648.55</ele>
        <time>2019-02-03T08:34:33Z</time>
      </trkpt>
      <trkpt lat="43.34004" lon="5.54768">
        <ele>647.59</ele>
        <time>2019-02-03T08:34:42Z</time>
      </trkpt>
      <trkpt lat="43.34005" lon="5.54766">
        <ele>647.59</ele>
        <time>2019-02-03T08:34:44Z</time>
      </trkpt>
      <trkpt lat="43.34009" lon="5.54762">
        <ele>646.14</ele>
        <time>2019-02-03T08:34:48Z</time>
      </trkpt>
      <trkpt lat="43.34013" lon="5.5476">
        <ele>645.66</ele>
        <time>2019-02-03T08:34:52Z</time>
      </trkpt>
      <trkpt lat="43.34016" lon="5.5476">
        <ele>645.66</ele>
        <time>2019-02-03T08:34:54Z</time>
      </trkpt>
      <trkpt lat="43.34018" lon="5.54757">
        <ele>644.22</ele>
        <time>2019-02-03T08:34:57Z</time>
      </trkpt>
      <trkpt lat="43.34019" lon="5.54755">
        <ele>644.22</ele>
        <time>2019-02-03T08:34:59Z</time>
      </trkpt>
      <trkpt lat="43.34025" lon="5.54753">
        <ele>644.7</ele>
        <time>2019-02-03T08:35:06Z</time>
      </trkpt>
      <trkpt lat="43.34031" lon="5.54753">
        <ele>645.18</ele>
        <time>2019-02-03T08:35:19Z</time>
      </trkpt>
      <trkpt lat="43.34036" lon="5.54752">
        <ele>644.7</ele>
        <time>2019-02-03T08:35:30Z</time>
      </trkpt>
      <trkpt lat="43.34041" lon="5.5475">
        <ele>645.66</ele>
        <time>2019-02-03T08:35:37Z</time>
      </trkpt>
      <trkpt lat="43.34049" lon="5.54745">
        <ele>646.14</ele>
        <time>2019-02-03T08:35:45Z</time>
      </trkpt>
      <trkpt lat="43.34058" lon="5.54738">
        <ele>646.14</ele>
        <time>2019-02-03T08:35:56Z</time>
      </trkpt>
      <trkpt lat="43.34068" lon="5.54737">
        <ele>648.07</ele>
        <time>2019-02-03T08:36:07Z</time>
      </trkpt>
      <trkpt lat="43.34071" lon="5.54732">
        <ele>649.99</ele>
        <time>2019-02-03T08:36:12Z</time>
      </trkpt>
      <trkpt lat="43.34072" lon="5.5473">
        <ele>650.47</ele>
        <time>2019-02-03T08:36:14Z</time>
      </trkpt>
      <trkpt lat="43.34074" lon="5.54728">
        <ele>651.43</ele>
        <time>2019-02-03T08:36:17Z</time>
      </trkpt>
      <trkpt lat="43.34083" lon="5.54724">
        <ele>653.83</ele>
        <time>2019-02-03T08:36:28Z</time>
      </trkpt>
      <trkpt lat="43.34087" lon="5.54718">
        <ele>655.28</ele>
        <time>2019-02-03T08:36:36Z</time>
      </trkpt>
      <trkpt lat="43.3409" lon="5.54709">
        <ele>657.2</ele>
        <time>2019-02-03T08:36:44Z</time>
      </trkpt>
      <trkpt lat="43.34093" lon="5.54704">
        <ele>659.12</ele>
        <time>2019-02-03T08:36:55Z</time>
      </trkpt>
      <trkpt lat="43.341" lon="5.54703">
        <ele>661.52</ele>
        <time>2019-02-03T08:37:05Z</time>
      </trkpt>
      <trkpt lat="43.34101" lon="5.54702">
        <ele>662.49</ele>
        <time>2019-02-03T08:37:07Z</time>
      </trkpt>
      <trkpt lat="43.34108" lon="5.54699">
        <ele>664.41</ele>
        <time>2019-02-03T08:37:19Z</time>
      </trkpt>
      <trkpt lat="43.34109" lon="5.54698">
        <ele>666.81</ele>
        <time>2019-02-03T08:37:29Z</time>
      </trkpt>
      <trkpt lat="43.34116" lon="5.54695">
        <ele>667.77</ele>
        <time>2019-02-03T08:37:38Z</time>
      </trkpt>
      <trkpt lat="43.3412" lon="5.54693">
        <ele>670.18</ele>
        <time>2019-02-03T08:37:50Z</time>
      </trkpt>
      <trkpt lat="43.34122" lon="5.54696">
        <ele>670.18</ele>
        <time>2019-02-03T08:37:53Z</time>
      </trkpt>
      <trkpt lat="43.34125" lon="5.54695">
        <ele>671.62</ele>
        <time>2019-02-03T08:37:57Z</time>
      </trkpt>
      <trkpt lat="43.34127" lon="5.54694">
        <ele>671.62</ele>
        <time>2019-02-03T08:38:00Z</time>
      </trkpt>
      <trkpt lat="43.34135" lon="5.54682">
        <ele>673.54</ele>
        <time>2019-02-03T08:38:11Z</time>
      </trkpt>
      <trkpt lat="43.34136" lon="5.5468">
        <ele>673.54</ele>
        <time>2019-02-03T08:38:13Z</time>
      </trkpt>
      <trkpt lat="43.34141" lon="5.54672">
        <ele>674.98</ele>
        <time>2019-02-03T08:38:22Z</time>
      </trkpt>
      <trkpt lat="43.34144" lon="5.5467">
        <ele>675.46</ele>
        <time>2019-02-03T08:38:26Z</time>
      </trkpt>
      <trkpt lat="43.34151" lon="5.54654">
        <ele>677.87</ele>
        <time>2019-02-03T08:38:37Z</time>
      </trkpt>
      <trkpt lat="43.3415" lon="5.54651">
        <ele>677.39</ele>
        <time>2019-02-03T08:38:40Z</time>
      </trkpt>
      <trkpt lat="43.34147" lon="5.54642">
        <ele>676.42</ele>
        <time>2019-02-03T08:38:46Z</time>
      </trkpt>
      <trkpt lat="43.34146" lon="5.54635">
        <ele>675.94</ele>
        <time>2019-02-03T08:38:51Z</time>
      </trkpt>
      <trkpt lat="43.34142" lon="5.54617">
        <ele>676.42</ele>
        <time>2019-02-03T08:39:03Z</time>
      </trkpt>
      <trkpt lat="43.3414" lon="5.5461">
        <ele>675.46</ele>
        <time>2019-02-03T08:39:07Z</time>
      </trkpt>
      <trkpt lat="43.34138" lon="5.54606">
        <ele>676.42</ele>
        <time>2019-02-03T08:39:10Z</time>
      </trkpt>
      <trkpt lat="43.34139" lon="5.54597">
        <ele>677.39</ele>
        <time>2019-02-03T08:39:21Z</time>
      </trkpt>
      <trkpt lat="43.3414" lon="5.54594">
        <ele>675.94</ele>
        <time>2019-02-03T08:39:28Z</time>
      </trkpt>
      <trkpt lat="43.34146" lon="5.54572">
        <ele>677.39</ele>
        <time>2019-02-03T08:39:43Z</time>
      </trkpt>
      <trkpt lat="43.34149" lon="5.54555">
        <ele>677.87</ele>
        <time>2019-02-03T08:39:55Z</time>
      </trkpt>
      <trkpt lat="43.34158" lon="5.54545">
        <ele>678.35</ele>
        <time>2019-02-03T08:40:05Z</time>
      </trkpt>
      <trkpt lat="43.34161" lon="5.54545">
        <ele>678.83</ele>
        <time>2019-02-03T08:40:07Z</time>
      </trkpt>
      <trkpt lat="43.34173" lon="5.54545">
        <ele>678.83</ele>
        <time>2019-02-03T08:40:17Z</time>
      </trkpt>
      <trkpt lat="43.34175" lon="5.54543">
        <ele>678.35</ele>
        <time>2019-02-03T08:40:20Z</time>
      </trkpt>
      <trkpt lat="43.34175" lon="5.54542">
        <ele>678.83</ele>
        <time>2019-02-03T08:40:23Z</time>
      </trkpt>
      <trkpt lat="43.34179" lon="5.5454">
        <ele>679.79</ele>
        <time>2019-02-03T08:40:31Z</time>
      </trkpt>
      <trkpt lat="43.34187" lon="5.54539">
        <ele>680.27</ele>
        <time>2019-02-03T08:40:39Z</time>
      </trkpt>
      <trkpt lat="43.34193" lon="5.54538">
        <ele>676.91</ele>
        <time>2019-02-03T08:40:45Z</time>
      </trkpt>
      <trkpt lat="43.34197" lon="5.54537">
        <ele>681.23</ele>
        <time>2019-02-03T08:40:49Z</time>
      </trkpt>
      <trkpt lat="43.342" lon="5.54534">
        <ele>679.31</ele>
        <time>2019-02-03T08:40:52Z</time>
      </trkpt>
      <trkpt lat="43.34201" lon="5.54533">
        <ele>679.79</ele>
        <time>2019-02-03T08:40:53Z</time>
      </trkpt>
      <trkpt lat="43.34206" lon="5.54523">
        <ele>682.19</ele>
        <time>2019-02-03T08:40:59Z</time>
      </trkpt>
      <trkpt lat="43.34208" lon="5.54518">
        <ele>681.71</ele>
        <time>2019-02-03T08:41:02Z</time>
      </trkpt>
      <trkpt lat="43.34211" lon="5.54495">
        <ele>680.27</ele>
        <time>2019-02-03T08:41:16Z</time>
      </trkpt>
      <trkpt lat="43.34211" lon="5.54495">
        <ele>680.27</ele>
        <time>2019-02-03T08:41:17Z</time>
      </trkpt>
      <trkpt lat="43.34211" lon="5.54491">
        <ele>680.27</ele>
        <time>2019-02-03T08:41:19Z</time>
      </trkpt>
      <trkpt lat="43.34211" lon="5.54477">
        <ele>680.27</ele>
        <time>2019-02-03T08:41:29Z</time>
      </trkpt>
      <trkpt lat="43.34208" lon="5.54466">
        <ele>679.31</ele>
        <time>2019-02-03T08:41:36Z</time>
      </trkpt>
      <trkpt lat="43.34205" lon="5.54443">
        <ele>679.79</ele>
        <time>2019-02-03T08:41:48Z</time>
      </trkpt>
      <trkpt lat="43.34205" lon="5.54442">
        <ele>678.83</ele>
        <time>2019-02-03T08:41:51Z</time>
      </trkpt>
      <trkpt lat="43.34205" lon="5.54424">
        <ele>680.27</ele>
        <time>2019-02-03T08:42:01Z</time>
      </trkpt>
      <trkpt lat="43.34206" lon="5.54411">
        <ele>680.75</ele>
        <time>2019-02-03T08:42:10Z</time>
      </trkpt>
      <trkpt lat="43.34209" lon="5.54406">
        <ele>680.75</ele>
        <time>2019-02-03T08:42:13Z</time>
      </trkpt>
      <trkpt lat="43.34212" lon="5.54387">
        <ele>678.35</ele>
        <time>2019-02-03T08:42:25Z</time>
      </trkpt>
      <trkpt lat="43.34212" lon="5.54387">
        <ele>678.35</ele>
        <time>2019-02-03T08:42:26Z</time>
      </trkpt>
      <trkpt lat="43.34213" lon="5.54385">
        <ele>678.35</ele>
        <time>2019-02-03T08:42:33Z</time>
      </trkpt>
      <trkpt lat="43.34213" lon="5.54378">
        <ele>678.35</ele>
        <time>2019-02-03T08:42:39Z</time>
      </trkpt>
      <trkpt lat="43.34214" lon="5.54373">
        <ele>679.31</ele>
        <time>2019-02-03T08:42:42Z</time>
      </trkpt>
      <trkpt lat="43.34216" lon="5.54356">
        <ele>677.87</ele>
        <time>2019-02-03T08:42:53Z</time>
      </trkpt>
      <trkpt lat="43.34218" lon="5.54345">
        <ele>674.5</ele>
        <time>2019-02-03T08:42:59Z</time>
      </trkpt>
      <trkpt lat="43.3422" lon="5.54342">
        <ele>676.91</ele>
        <time>2019-02-03T08:43:02Z</time>
      </trkpt>
      <trkpt lat="43.34221" lon="5.54338">
        <ele>672.1</ele>
        <time>2019-02-03T08:43:05Z</time>
      </trkpt>
      <trkpt lat="43.34221" lon="5.54335">
        <ele>670.18</ele>
        <time>2019-02-03T08:43:08Z</time>
      </trkpt>
      <trkpt lat="43.34221" lon="5.54329">
        <ele>668.25</ele>
        <time>2019-02-03T08:43:14Z</time>
      </trkpt>
      <trkpt lat="43.3422" lon="5.54319">
        <ele>665.85</ele>
        <time>2019-02-03T08:43:22Z</time>
      </trkpt>
      <trkpt lat="43.34223" lon="5.54307">
        <ele>662.49</ele>
        <time>2019-02-03T08:43:33Z</time>
      </trkpt>
      <trkpt lat="43.34224" lon="5.54298">
        <ele>660.08</ele>
        <time>2019-02-03T08:43:40Z</time>
      </trkpt>
      <trkpt lat="43.34224" lon="5.54295">
        <ele>659.12</ele>
        <time>2019-02-03T08:43:42Z</time>
      </trkpt>
      <trkpt lat="43.34224" lon="5.54286">
        <ele>658.16</ele>
        <time>2019-02-03T08:43:49Z</time>
      </trkpt>
      <trkpt lat="43.34224" lon="5.54278">
        <ele>653.83</ele>
        <time>2019-02-03T08:43:56Z</time>
      </trkpt>
      <trkpt lat="43.34224" lon="5.54278">
        <ele>654.31</ele>
        <time>2019-02-03T08:43:57Z</time>
      </trkpt>
      <trkpt lat="43.34224" lon="5.54277">
        <ele>655.76</ele>
        <time>2019-02-03T08:44:13Z</time>
      </trkpt>
      <trkpt lat="43.34225" lon="5.54271">
        <ele>653.35</ele>
        <time>2019-02-03T08:44:29Z</time>
      </trkpt>
      <trkpt lat="43.34226" lon="5.54266">
        <ele>652.39</ele>
        <time>2019-02-03T08:44:32Z</time>
      </trkpt>
      <trkpt lat="43.34225" lon="5.54261">
        <ele>650.95</ele>
        <time>2019-02-03T08:44:36Z</time>
      </trkpt>
      <trkpt lat="43.34225" lon="5.54254">
        <ele>647.59</ele>
        <time>2019-02-03T08:44:40Z</time>
      </trkpt>
      <trkpt lat="43.34226" lon="5.54252">
        <ele>647.59</ele>
        <time>2019-02-03T08:44:41Z</time>
      </trkpt>
      <trkpt lat="43.34227" lon="5.54244">
        <ele>650.47</ele>
        <time>2019-02-03T08:44:46Z</time>
      </trkpt>
      <trkpt lat="43.34226" lon="5.54237">
        <ele>649.51</ele>
        <time>2019-02-03T08:44:52Z</time>
      </trkpt>
      <trkpt lat="43.34225" lon="5.54235">
        <ele>647.1</ele>
        <time>2019-02-03T08:44:55Z</time>
      </trkpt>
      <trkpt lat="43.34226" lon="5.5423">
        <ele>646.14</ele>
        <time>2019-02-03T08:44:59Z</time>
      </trkpt>
      <trkpt lat="43.3424" lon="5.54223">
        <ele>644.7</ele>
        <time>2019-02-03T08:45:12Z</time>
      </trkpt>
      <trkpt lat="43.3424" lon="5.54223">
        <ele>644.7</ele>
        <time>2019-02-03T08:45:13Z</time>
      </trkpt>
      <trkpt lat="43.34243" lon="5.54221">
        <ele>644.22</ele>
        <time>2019-02-03T08:45:15Z</time>
      </trkpt>
      <trkpt lat="43.34246" lon="5.54218">
        <ele>643.74</ele>
        <time>2019-02-03T08:45:18Z</time>
      </trkpt>
      <trkpt lat="43.34249" lon="5.54214">
        <ele>644.22</ele>
        <time>2019-02-03T08:45:21Z</time>
      </trkpt>
      <trkpt lat="43.34253" lon="5.54207">
        <ele>641.82</ele>
        <time>2019-02-03T08:45:27Z</time>
      </trkpt>
      <trkpt lat="43.34253" lon="5.54202">
        <ele>641.34</ele>
        <time>2019-02-03T08:45:30Z</time>
      </trkpt>
      <trkpt lat="43.34258" lon="5.54191">
        <ele>639.41</ele>
        <time>2019-02-03T08:45:40Z</time>
      </trkpt>
      <trkpt lat="43.34259" lon="5.54188">
        <ele>638.45</ele>
        <time>2019-02-03T08:45:42Z</time>
      </trkpt>
      <trkpt lat="43.34264" lon="5.54171">
        <ele>636.05</ele>
        <time>2019-02-03T08:45:54Z</time>
      </trkpt>
      <trkpt lat="43.34269" lon="5.54156">
        <ele>633.65</ele>
        <time>2019-02-03T08:46:04Z</time>
      </trkpt>
      <trkpt lat="43.34272" lon="5.5415">
        <ele>632.68</ele>
        <time>2019-02-03T08:46:09Z</time>
      </trkpt>
      <trkpt lat="43.34277" lon="5.5414">
        <ele>629.32</ele>
        <time>2019-02-03T08:46:19Z</time>
      </trkpt>
      <trkpt lat="43.34282" lon="5.54134">
        <ele>628.36</ele>
        <time>2019-02-03T08:46:24Z</time>
      </trkpt>
      <trkpt lat="43.34286" lon="5.54125">
        <ele>627.88</ele>
        <time>2019-02-03T08:46:30Z</time>
      </trkpt>
      <trkpt lat="43.34286" lon="5.54122">
        <ele>627.88</ele>
        <time>2019-02-03T08:46:32Z</time>
      </trkpt>
      <trkpt lat="43.34286" lon="5.54118">
        <ele>626.44</ele>
        <time>2019-02-03T08:46:38Z</time>
      </trkpt>
      <trkpt lat="43.34285" lon="5.54112">
        <ele>626.92</ele>
        <time>2019-02-03T08:46:43Z</time>
      </trkpt>
      <trkpt lat="43.34284" lon="5.54103">
        <ele>625.47</ele>
        <time>2019-02-03T08:46:50Z</time>
      </trkpt>
      <trkpt lat="43.34285" lon="5.54096">
        <ele>624.03</ele>
        <time>2019-02-03T08:46:56Z</time>
      </trkpt>
      <trkpt lat="43.34287" lon="5.54088">
        <ele>624.51</ele>
        <time>2019-02-03T08:47:00Z</time>
      </trkpt>
      <trkpt lat="43.34288" lon="5.54084">
        <ele>624.51</ele>
        <time>2019-02-03T08:47:02Z</time>
      </trkpt>
      <trkpt lat="43.34289" lon="5.5408">
        <ele>624.03</ele>
        <time>2019-02-03T08:47:06Z</time>
      </trkpt>
      <trkpt lat="43.34293" lon="5.54069">
        <ele>620.67</ele>
        <time>2019-02-03T08:47:16Z</time>
      </trkpt>
      <trkpt lat="43.34293" lon="5.54069">
        <ele>620.67</ele>
        <time>2019-02-03T08:47:17Z</time>
      </trkpt>
      <trkpt lat="43.34293" lon="5.54069">
        <ele>622.59</ele>
        <time>2019-02-03T08:47:33Z</time>
      </trkpt>
      <trkpt lat="43.34294" lon="5.54067">
        <ele>622.11</ele>
        <time>2019-02-03T08:47:37Z</time>
      </trkpt>
      <trkpt lat="43.343" lon="5.54059">
        <ele>620.67</ele>
        <time>2019-02-03T08:47:45Z</time>
      </trkpt>
      <trkpt lat="43.34306" lon="5.54057">
        <ele>619.71</ele>
        <time>2019-02-03T08:47:51Z</time>
      </trkpt>
      <trkpt lat="43.34311" lon="5.54052">
        <ele>617.78</ele>
        <time>2019-02-03T08:47:57Z</time>
      </trkpt>
      <trkpt lat="43.34313" lon="5.54049">
        <ele>617.78</ele>
        <time>2019-02-03T08:48:01Z</time>
      </trkpt>
      <trkpt lat="43.34323" lon="5.54042">
        <ele>616.82</ele>
        <time>2019-02-03T08:48:11Z</time>
      </trkpt>
      <trkpt lat="43.34326" lon="5.5404">
        <ele>615.86</ele>
        <time>2019-02-03T08:48:14Z</time>
      </trkpt>
      <trkpt lat="43.34332" lon="5.54037">
        <ele>612.98</ele>
        <time>2019-02-03T08:48:19Z</time>
      </trkpt>
      <trkpt lat="43.34333" lon="5.54037">
        <ele>612.5</ele>
        <time>2019-02-03T08:48:21Z</time>
      </trkpt>
      <trkpt lat="43.3434" lon="5.54032">
        <ele>611.54</ele>
        <time>2019-02-03T08:48:30Z</time>
      </trkpt>
      <trkpt lat="43.34344" lon="5.54029">
        <ele>610.57</ele>
        <time>2019-02-03T08:48:36Z</time>
      </trkpt>
      <trkpt lat="43.34353" lon="5.54025">
        <ele>609.13</ele>
        <time>2019-02-03T08:48:46Z</time>
      </trkpt>
      <trkpt lat="43.34363" lon="5.54026">
        <ele>607.21</ele>
        <time>2019-02-03T08:48:54Z</time>
      </trkpt>
      <trkpt lat="43.34371" lon="5.5403">
        <ele>605.29</ele>
        <time>2019-02-03T08:49:02Z</time>
      </trkpt>
      <trkpt lat="43.34374" lon="5.5403">
        <ele>604.81</ele>
        <time>2019-02-03T08:49:05Z</time>
      </trkpt>
      <trkpt lat="43.34379" lon="5.54027">
        <ele>604.33</ele>
        <time>2019-02-03T08:49:10Z</time>
      </trkpt>
      <trkpt lat="43.34383" lon="5.54027">
        <ele>602.88</ele>
        <time>2019-02-03T08:49:14Z</time>
      </trkpt>
      <trkpt lat="43.34396" lon="5.5403">
        <ele>600</ele>
        <time>2019-02-03T08:49:28Z</time>
      </trkpt>
      <trkpt lat="43.34399" lon="5.54029">
        <ele>598.56</ele>
        <time>2019-02-03T08:49:32Z</time>
      </trkpt>
      <trkpt lat="43.34409" lon="5.54019">
        <ele>598.08</ele>
        <time>2019-02-03T08:49:43Z</time>
      </trkpt>
      <trkpt lat="43.34415" lon="5.54012">
        <ele>597.6</ele>
        <time>2019-02-03T08:49:50Z</time>
      </trkpt>
      <trkpt lat="43.34415" lon="5.54007">
        <ele>597.12</ele>
        <time>2019-02-03T08:49:54Z</time>
      </trkpt>
      <trkpt lat="43.34416" lon="5.54004">
        <ele>597.6</ele>
        <time>2019-02-03T08:50:09Z</time>
      </trkpt>
      <trkpt lat="43.34417" lon="5.54004">
        <ele>597.12</ele>
        <time>2019-02-03T08:50:23Z</time>
      </trkpt>
      <trkpt lat="43.34418" lon="5.54003">
        <ele>596.15</ele>
        <time>2019-02-03T08:50:26Z</time>
      </trkpt>
      <trkpt lat="43.34421" lon="5.53994">
        <ele>596.64</ele>
        <time>2019-02-03T08:50:32Z</time>
      </trkpt>
      <trkpt lat="43.34421" lon="5.53978">
        <ele>597.12</ele>
        <time>2019-02-03T08:50:42Z</time>
      </trkpt>
      <trkpt lat="43.34424" lon="5.53971">
        <ele>595.19</ele>
        <time>2019-02-03T08:50:46Z</time>
      </trkpt>
      <trkpt lat="43.34427" lon="5.53967">
        <ele>594.71</ele>
        <time>2019-02-03T08:50:52Z</time>
      </trkpt>
      <trkpt lat="43.34431" lon="5.53957">
        <ele>594.23</ele>
        <time>2019-02-03T08:51:00Z</time>
      </trkpt>
      <trkpt lat="43.34428" lon="5.53949">
        <ele>593.75</ele>
        <time>2019-02-03T08:51:04Z</time>
      </trkpt>
      <trkpt lat="43.34424" lon="5.53939">
        <ele>592.31</ele>
        <time>2019-02-03T08:51:12Z</time>
      </trkpt>
      <trkpt lat="43.34423" lon="5.53935">
        <ele>592.31</ele>
        <time>2019-02-03T08:51:14Z</time>
      </trkpt>
      <trkpt lat="43.34417" lon="5.5392">
        <ele>590.87</ele>
        <time>2019-02-03T08:51:25Z</time>
      </trkpt>
      <trkpt lat="43.34415" lon="5.53917">
        <ele>590.39</ele>
        <time>2019-02-03T08:51:28Z</time>
      </trkpt>
      <trkpt lat="43.34415" lon="5.53912">
        <ele>590.87</ele>
        <time>2019-02-03T08:51:31Z</time>
      </trkpt>
      <trkpt lat="43.34417" lon="5.53898">
        <ele>595.19</ele>
        <time>2019-02-03T08:51:43Z</time>
      </trkpt>
      <trkpt lat="43.34417" lon="5.53898">
        <ele>595.19</ele>
        <time>2019-02-03T08:51:44Z</time>
      </trkpt>
      <trkpt lat="43.34419" lon="5.53894">
        <ele>595.67</ele>
        <time>2019-02-03T08:51:48Z</time>
      </trkpt>
      <trkpt lat="43.34417" lon="5.53887">
        <ele>597.12</ele>
        <time>2019-02-03T08:52:01Z</time>
      </trkpt>
      <trkpt lat="43.34417" lon="5.53887">
        <ele>597.12</ele>
        <time>2019-02-03T08:52:04Z</time>
      </trkpt>
      <trkpt lat="43.34417" lon="5.53896">
        <ele>595.67</ele>
        <time>2019-02-03T08:52:16Z</time>
      </trkpt>
      <trkpt lat="43.34417" lon="5.53895">
        <ele>596.64</ele>
        <time>2019-02-03T08:52:34Z</time>
      </trkpt>
      <trkpt lat="43.34417" lon="5.53895">
        <ele>596.15</ele>
        <time>2019-02-03T08:52:55Z</time>
      </trkpt>
      <trkpt lat="43.34418" lon="5.53892">
        <ele>597.6</ele>
        <time>2019-02-03T08:53:10Z</time>
      </trkpt>
      <trkpt lat="43.34416" lon="5.53885">
        <ele>597.6</ele>
        <time>2019-02-03T08:53:18Z</time>
      </trkpt>
      <trkpt lat="43.34415" lon="5.53882">
        <ele>598.08</ele>
        <time>2019-02-03T08:53:20Z</time>
      </trkpt>
      <trkpt lat="43.34415" lon="5.53876">
        <ele>597.6</ele>
        <time>2019-02-03T08:53:23Z</time>
      </trkpt>
      <trkpt lat="43.34416" lon="5.53866">
        <ele>597.6</ele>
        <time>2019-02-03T08:53:29Z</time>
      </trkpt>
      <trkpt lat="43.34418" lon="5.53854">
        <ele>598.08</ele>
        <time>2019-02-03T08:53:35Z</time>
      </trkpt>
      <trkpt lat="43.34418" lon="5.53849">
        <ele>598.08</ele>
        <time>2019-02-03T08:53:37Z</time>
      </trkpt>
      <trkpt lat="43.34423" lon="5.53832">
        <ele>600.96</ele>
        <time>2019-02-03T08:53:48Z</time>
      </trkpt>
      <trkpt lat="43.34425" lon="5.53828">
        <ele>601.44</ele>
        <time>2019-02-03T08:53:51Z</time>
      </trkpt>
      <trkpt lat="43.34427" lon="5.53817">
        <ele>600</ele>
        <time>2019-02-03T08:53:57Z</time>
      </trkpt>
      <trkpt lat="43.34431" lon="5.53798">
        <ele>600.48</ele>
        <time>2019-02-03T08:54:08Z</time>
      </trkpt>
      <trkpt lat="43.34431" lon="5.53796">
        <ele>600</ele>
        <time>2019-02-03T08:54:09Z</time>
      </trkpt>
      <trkpt lat="43.34431" lon="5.53787">
        <ele>599.04</ele>
        <time>2019-02-03T08:54:13Z</time>
      </trkpt>
      <trkpt lat="43.34432" lon="5.53778">
        <ele>597.12</ele>
        <time>2019-02-03T08:54:18Z</time>
      </trkpt>
      <trkpt lat="43.34433" lon="5.53775">
        <ele>597.12</ele>
        <time>2019-02-03T08:54:22Z</time>
      </trkpt>
      <trkpt lat="43.34436" lon="5.5377">
        <ele>596.64</ele>
        <time>2019-02-03T08:54:33Z</time>
      </trkpt>
      <trkpt lat="43.34438" lon="5.5377">
        <ele>596.64</ele>
        <time>2019-02-03T08:54:34Z</time>
      </trkpt>
      <trkpt lat="43.34446" lon="5.53769">
        <ele>598.56</ele>
        <time>2019-02-03T08:54:41Z</time>
      </trkpt>
      <trkpt lat="43.34462" lon="5.53771">
        <ele>599.52</ele>
        <time>2019-02-03T08:54:53Z</time>
      </trkpt>
      <trkpt lat="43.34465" lon="5.53772">
        <ele>599.52</ele>
        <time>2019-02-03T08:54:57Z</time>
      </trkpt>
      <trkpt lat="43.34468" lon="5.53773">
        <ele>599.52</ele>
        <time>2019-02-03T08:54:59Z</time>
      </trkpt>
      <trkpt lat="43.34475" lon="5.53774">
        <ele>599.04</ele>
        <time>2019-02-03T08:55:10Z</time>
      </trkpt>
      <trkpt lat="43.34475" lon="5.53774">
        <ele>598.56</ele>
        <time>2019-02-03T08:55:14Z</time>
      </trkpt>
      <trkpt lat="43.34478" lon="5.5377">
        <ele>598.08</ele>
        <time>2019-02-03T08:55:18Z</time>
      </trkpt>
      <trkpt lat="43.34483" lon="5.53771">
        <ele>597.12</ele>
        <time>2019-02-03T08:55:23Z</time>
      </trkpt>
      <trkpt lat="43.34486" lon="5.53771">
        <ele>596.15</ele>
        <time>2019-02-03T08:55:26Z</time>
      </trkpt>
      <trkpt lat="43.34491" lon="5.5377">
        <ele>593.27</ele>
        <time>2019-02-03T08:55:33Z</time>
      </trkpt>
      <trkpt lat="43.34494" lon="5.53768">
        <ele>592.79</ele>
        <time>2019-02-03T08:55:36Z</time>
      </trkpt>
      <trkpt lat="43.345" lon="5.53767">
        <ele>591.83</ele>
        <time>2019-02-03T08:55:42Z</time>
      </trkpt>
      <trkpt lat="43.34506" lon="5.53767">
        <ele>589.91</ele>
        <time>2019-02-03T08:55:54Z</time>
      </trkpt>
      <trkpt lat="43.34511" lon="5.53765">
        <ele>589.43</ele>
        <time>2019-02-03T08:56:00Z</time>
      </trkpt>
      <trkpt lat="43.34513" lon="5.53765">
        <ele>588.46</ele>
        <time>2019-02-03T08:56:04Z</time>
      </trkpt>
      <trkpt lat="43.34516" lon="5.53762">
        <ele>588.95</ele>
        <time>2019-02-03T08:56:07Z</time>
      </trkpt>
      <trkpt lat="43.34518" lon="5.53759">
        <ele>588.95</ele>
        <time>2019-02-03T08:56:10Z</time>
      </trkpt>
      <trkpt lat="43.34524" lon="5.53749">
        <ele>590.39</ele>
        <time>2019-02-03T08:56:17Z</time>
      </trkpt>
      <trkpt lat="43.34525" lon="5.53738">
        <ele>590.39</ele>
        <time>2019-02-03T08:56:23Z</time>
      </trkpt>
      <trkpt lat="43.34525" lon="5.53716">
        <ele>590.39</ele>
        <time>2019-02-03T08:56:37Z</time>
      </trkpt>
      <trkpt lat="43.34525" lon="5.53698">
        <ele>589.43</ele>
        <time>2019-02-03T08:56:48Z</time>
      </trkpt>
      <trkpt lat="43.34526" lon="5.5369">
        <ele>588.95</ele>
        <time>2019-02-03T08:56:52Z</time>
      </trkpt>
      <trkpt lat="43.34525" lon="5.53679">
        <ele>587.5</ele>
        <time>2019-02-03T08:56:58Z</time>
      </trkpt>
      <trkpt lat="43.34528" lon="5.53669">
        <ele>591.35</ele>
        <time>2019-02-03T08:57:09Z</time>
      </trkpt>
      <trkpt lat="43.34528" lon="5.53666">
        <ele>592.31</ele>
        <time>2019-02-03T08:57:18Z</time>
      </trkpt>
      <trkpt lat="43.34529" lon="5.53668">
        <ele>591.83</ele>
        <time>2019-02-03T08:57:33Z</time>
      </trkpt>
      <trkpt lat="43.3453" lon="5.53669">
        <ele>591.83</ele>
        <time>2019-02-03T08:57:37Z</time>
      </trkpt>
      <trkpt lat="43.34537" lon="5.53657">
        <ele>589.91</ele>
        <time>2019-02-03T09:00:37Z</time>
      </trkpt>
      <trkpt lat="43.34538" lon="5.53658">
        <ele>593.75</ele>
        <time>2019-02-03T09:00:38Z</time>
      </trkpt>
      <trkpt lat="43.34527" lon="5.53667">
        <ele>592.79</ele>
        <time>2019-02-03T09:00:48Z</time>
      </trkpt>
      <trkpt lat="43.34527" lon="5.53665">
        <ele>591.83</ele>
        <time>2019-02-03T09:01:15Z</time>
      </trkpt>
      <trkpt lat="43.34525" lon="5.5367">
        <ele>589.43</ele>
        <time>2019-02-03T09:01:24Z</time>
      </trkpt>
      <trkpt lat="43.34528" lon="5.53683">
        <ele>588.95</ele>
        <time>2019-02-03T09:01:30Z</time>
      </trkpt>
      <trkpt lat="43.34528" lon="5.53697">
        <ele>589.91</ele>
        <time>2019-02-03T09:01:36Z</time>
      </trkpt>
      <trkpt lat="43.34526" lon="5.5372">
        <ele>590.39</ele>
        <time>2019-02-03T09:01:48Z</time>
      </trkpt>
      <trkpt lat="43.34525" lon="5.53731">
        <ele>591.35</ele>
        <time>2019-02-03T09:01:54Z</time>
      </trkpt>
      <trkpt lat="43.34524" lon="5.53744">
        <ele>590.87</ele>
        <time>2019-02-03T09:01:59Z</time>
      </trkpt>
      <trkpt lat="43.34512" lon="5.53765">
        <ele>589.91</ele>
        <time>2019-02-03T09:02:11Z</time>
      </trkpt>
      <trkpt lat="43.34509" lon="5.53766">
        <ele>590.39</ele>
        <time>2019-02-03T09:02:15Z</time>
      </trkpt>
      <trkpt lat="43.34505" lon="5.53755">
        <ele>587.02</ele>
        <time>2019-02-03T09:02:24Z</time>
      </trkpt>
      <trkpt lat="43.34503" lon="5.5375">
        <ele>586.06</ele>
        <time>2019-02-03T09:02:29Z</time>
      </trkpt>
      <trkpt lat="43.34501" lon="5.53747">
        <ele>584.62</ele>
        <time>2019-02-03T09:02:32Z</time>
      </trkpt>
      <trkpt lat="43.345" lon="5.53741">
        <ele>583.66</ele>
        <time>2019-02-03T09:02:36Z</time>
      </trkpt>
      <trkpt lat="43.34498" lon="5.53739">
        <ele>583.66</ele>
        <time>2019-02-03T09:02:38Z</time>
      </trkpt>
      <trkpt lat="43.34496" lon="5.53737">
        <ele>581.73</ele>
        <time>2019-02-03T09:02:48Z</time>
      </trkpt>
      <trkpt lat="43.34493" lon="5.53734">
        <ele>581.73</ele>
        <time>2019-02-03T09:02:52Z</time>
      </trkpt>
      <trkpt lat="43.34491" lon="5.53728">
        <ele>580.29</ele>
        <time>2019-02-03T09:02:56Z</time>
      </trkpt>
      <trkpt lat="43.34487" lon="5.53716">
        <ele>578.37</ele>
        <time>2019-02-03T09:03:05Z</time>
      </trkpt>
      <trkpt lat="43.34486" lon="5.5371">
        <ele>577.41</ele>
        <time>2019-02-03T09:03:13Z</time>
      </trkpt>
      <trkpt lat="43.34482" lon="5.537">
        <ele>574.04</ele>
        <time>2019-02-03T09:03:22Z</time>
      </trkpt>
      <trkpt lat="43.34481" lon="5.53696">
        <ele>573.08</ele>
        <time>2019-02-03T09:03:25Z</time>
      </trkpt>
      <trkpt lat="43.34478" lon="5.53694">
        <ele>572.12</ele>
        <time>2019-02-03T09:03:28Z</time>
      </trkpt>
      <trkpt lat="43.34467" lon="5.53684">
        <ele>568.28</ele>
        <time>2019-02-03T09:03:40Z</time>
      </trkpt>
      <trkpt lat="43.3446" lon="5.53678">
        <ele>566.35</ele>
        <time>2019-02-03T09:03:47Z</time>
      </trkpt>
      <trkpt lat="43.34455" lon="5.53674">
        <ele>563.47</ele>
        <time>2019-02-03T09:03:58Z</time>
      </trkpt>
      <trkpt lat="43.34452" lon="5.53667">
        <ele>562.03</ele>
        <time>2019-02-03T09:04:03Z</time>
      </trkpt>
      <trkpt lat="43.34443" lon="5.53657">
        <ele>560.59</ele>
        <time>2019-02-03T09:04:12Z</time>
      </trkpt>
      <trkpt lat="43.34441" lon="5.53653">
        <ele>559.62</ele>
        <time>2019-02-03T09:04:14Z</time>
      </trkpt>
      <trkpt lat="43.34436" lon="5.53648">
        <ele>558.66</ele>
        <time>2019-02-03T09:04:19Z</time>
      </trkpt>
      <trkpt lat="43.34431" lon="5.53643">
        <ele>557.7</ele>
        <time>2019-02-03T09:04:24Z</time>
      </trkpt>
      <trkpt lat="43.34418" lon="5.53635">
        <ele>555.3</ele>
        <time>2019-02-03T09:04:35Z</time>
      </trkpt>
      <trkpt lat="43.34415" lon="5.53635">
        <ele>554.34</ele>
        <time>2019-02-03T09:04:38Z</time>
      </trkpt>
      <trkpt lat="43.34408" lon="5.53633">
        <ele>552.9</ele>
        <time>2019-02-03T09:04:43Z</time>
      </trkpt>
      <trkpt lat="43.34403" lon="5.53632">
        <ele>552.9</ele>
        <time>2019-02-03T09:04:46Z</time>
      </trkpt>
      <trkpt lat="43.34389" lon="5.53632">
        <ele>551.93</ele>
        <time>2019-02-03T09:04:56Z</time>
      </trkpt>
      <trkpt lat="43.34376" lon="5.53636">
        <ele>552.41</ele>
        <time>2019-02-03T09:05:07Z</time>
      </trkpt>
      <trkpt lat="43.34376" lon="5.53636">
        <ele>551.45</ele>
        <time>2019-02-03T09:05:24Z</time>
      </trkpt>
      <trkpt lat="43.34376" lon="5.53636">
        <ele>551.45</ele>
        <time>2019-02-03T09:05:27Z</time>
      </trkpt>
      <trkpt lat="43.34358" lon="5.53636">
        <ele>550.01</ele>
        <time>2019-02-03T09:05:38Z</time>
      </trkpt>
      <trkpt lat="43.34351" lon="5.53635">
        <ele>549.05</ele>
        <time>2019-02-03T09:05:43Z</time>
      </trkpt>
      <trkpt lat="43.34337" lon="5.53633">
        <ele>547.13</ele>
        <time>2019-02-03T09:05:53Z</time>
      </trkpt>
      <trkpt lat="43.34326" lon="5.53633">
        <ele>545.69</ele>
        <time>2019-02-03T09:05:59Z</time>
      </trkpt>
      <trkpt lat="43.3432" lon="5.53634">
        <ele>545.2</ele>
        <time>2019-02-03T09:06:04Z</time>
      </trkpt>
      <trkpt lat="43.34316" lon="5.53638">
        <ele>544.24</ele>
        <time>2019-02-03T09:06:07Z</time>
      </trkpt>
      <trkpt lat="43.3431" lon="5.53646">
        <ele>542.8</ele>
        <time>2019-02-03T09:06:14Z</time>
      </trkpt>
      <trkpt lat="43.34302" lon="5.53648">
        <ele>542.8</ele>
        <time>2019-02-03T09:06:20Z</time>
      </trkpt>
      <trkpt lat="43.34293" lon="5.53646">
        <ele>541.84</ele>
        <time>2019-02-03T09:06:28Z</time>
      </trkpt>
      <trkpt lat="43.34288" lon="5.53642">
        <ele>541.36</ele>
        <time>2019-02-03T09:06:33Z</time>
      </trkpt>
      <trkpt lat="43.34278" lon="5.53635">
        <ele>540.88</ele>
        <time>2019-02-03T09:06:42Z</time>
      </trkpt>
      <trkpt lat="43.34274" lon="5.53632">
        <ele>540.4</ele>
        <time>2019-02-03T09:06:46Z</time>
      </trkpt>
      <trkpt lat="43.34269" lon="5.53628">
        <ele>539.92</ele>
        <time>2019-02-03T09:06:52Z</time>
      </trkpt>
      <trkpt lat="43.34265" lon="5.53628">
        <ele>539.92</ele>
        <time>2019-02-03T09:06:57Z</time>
      </trkpt>
      <trkpt lat="43.34264" lon="5.53631">
        <ele>538.96</ele>
        <time>2019-02-03T09:07:09Z</time>
      </trkpt>
      <trkpt lat="43.34263" lon="5.5363">
        <ele>538.96</ele>
        <time>2019-02-03T09:07:13Z</time>
      </trkpt>
      <trkpt lat="43.3426" lon="5.5363">
        <ele>538.48</ele>
        <time>2019-02-03T09:07:16Z</time>
      </trkpt>
      <trkpt lat="43.34251" lon="5.53629">
        <ele>535.11</ele>
        <time>2019-02-03T09:07:27Z</time>
      </trkpt>
      <trkpt lat="43.34249" lon="5.53628">
        <ele>535.11</ele>
        <time>2019-02-03T09:07:41Z</time>
      </trkpt>
      <trkpt lat="43.34249" lon="5.53628">
        <ele>535.59</ele>
        <time>2019-02-03T09:08:07Z</time>
      </trkpt>
      <trkpt lat="43.3425" lon="5.53628">
        <ele>535.11</ele>
        <time>2019-02-03T09:08:30Z</time>
      </trkpt>
      <trkpt lat="43.34243" lon="5.53626">
        <ele>534.63</ele>
        <time>2019-02-03T09:08:40Z</time>
      </trkpt>
      <trkpt lat="43.34234" lon="5.53633">
        <ele>530.79</ele>
        <time>2019-02-03T09:08:50Z</time>
      </trkpt>
      <trkpt lat="43.34233" lon="5.53633">
        <ele>529.34</ele>
        <time>2019-02-03T09:08:55Z</time>
      </trkpt>
      <trkpt lat="43.34233" lon="5.53633">
        <ele>528.86</ele>
        <time>2019-02-03T09:08:57Z</time>
      </trkpt>
      <trkpt lat="43.34234" lon="5.53629">
        <ele>528.86</ele>
        <time>2019-02-03T09:08:59Z</time>
      </trkpt>
      <trkpt lat="43.34236" lon="5.53621">
        <ele>525.5</ele>
        <time>2019-02-03T09:09:08Z</time>
      </trkpt>
      <trkpt lat="43.34236" lon="5.5362">
        <ele>524.54</ele>
        <time>2019-02-03T09:09:10Z</time>
      </trkpt>
      <trkpt lat="43.34142" lon="5.53756">
        <ele>523.09</ele>
        <time>2019-02-03T09:09:17Z</time>
      </trkpt>
      <trkpt lat="43.34159" lon="5.53731">
        <ele>521.65</ele>
        <time>2019-02-03T09:09:28Z</time>
      </trkpt>
      <trkpt lat="43.34159" lon="5.53731">
        <ele>522.13</ele>
        <time>2019-02-03T09:09:30Z</time>
      </trkpt>
      <trkpt lat="43.34168" lon="5.53706">
        <ele>521.17</ele>
        <time>2019-02-03T09:09:33Z</time>
      </trkpt>
      <trkpt lat="43.34175" lon="5.53694">
        <ele>518.77</ele>
        <time>2019-02-03T09:09:43Z</time>
      </trkpt>
      <trkpt lat="43.34183" lon="5.53677">
        <ele>515.4</ele>
        <time>2019-02-03T09:09:52Z</time>
      </trkpt>
      <trkpt lat="43.34197" lon="5.53657">
        <ele>514.92</ele>
        <time>2019-02-03T09:09:53Z</time>
      </trkpt>
      <trkpt lat="43.34197" lon="5.53661">
        <ele>513</ele>
        <time>2019-02-03T09:09:59Z</time>
      </trkpt>
      <trkpt lat="43.34197" lon="5.5366">
        <ele>511.56</ele>
        <time>2019-02-03T09:10:12Z</time>
      </trkpt>
      <trkpt lat="43.34201" lon="5.5365">
        <ele>509.64</ele>
        <time>2019-02-03T09:10:28Z</time>
      </trkpt>
      <trkpt lat="43.34198" lon="5.5365">
        <ele>509.64</ele>
        <time>2019-02-03T09:10:35Z</time>
      </trkpt>
      <trkpt lat="43.34195" lon="5.53652">
        <ele>508.67</ele>
        <time>2019-02-03T09:10:38Z</time>
      </trkpt>
      <trkpt lat="43.34193" lon="5.5365">
        <ele>507.23</ele>
        <time>2019-02-03T09:10:42Z</time>
      </trkpt>
      <trkpt lat="43.3419" lon="5.53646">
        <ele>504.35</ele>
        <time>2019-02-03T09:10:55Z</time>
      </trkpt>
      <trkpt lat="43.34188" lon="5.53645">
        <ele>503.87</ele>
        <time>2019-02-03T09:11:04Z</time>
      </trkpt>
      <trkpt lat="43.3418" lon="5.53646">
        <ele>503.87</ele>
        <time>2019-02-03T09:11:10Z</time>
      </trkpt>
      <trkpt lat="43.34172" lon="5.53645">
        <ele>501.46</ele>
        <time>2019-02-03T09:11:21Z</time>
      </trkpt>
      <trkpt lat="43.34164" lon="5.5364">
        <ele>499.54</ele>
        <time>2019-02-03T09:11:30Z</time>
      </trkpt>
      <trkpt lat="43.34155" lon="5.53638">
        <ele>498.1</ele>
        <time>2019-02-03T09:11:36Z</time>
      </trkpt>
      <trkpt lat="43.34145" lon="5.53635">
        <ele>496.66</ele>
        <time>2019-02-03T09:11:43Z</time>
      </trkpt>
      <trkpt lat="43.34143" lon="5.53634">
        <ele>495.22</ele>
        <time>2019-02-03T09:11:54Z</time>
      </trkpt>
      <trkpt lat="43.34139" lon="5.53632">
        <ele>494.26</ele>
        <time>2019-02-03T09:11:58Z</time>
      </trkpt>
      <trkpt lat="43.34134" lon="5.53629">
        <ele>493.29</ele>
        <time>2019-02-03T09:12:03Z</time>
      </trkpt>
      <trkpt lat="43.34127" lon="5.53625">
        <ele>492.33</ele>
        <time>2019-02-03T09:12:09Z</time>
      </trkpt>
      <trkpt lat="43.34118" lon="5.53623">
        <ele>490.89</ele>
        <time>2019-02-03T09:12:15Z</time>
      </trkpt>
      <trkpt lat="43.34115" lon="5.53623">
        <ele>490.41</ele>
        <time>2019-02-03T09:12:18Z</time>
      </trkpt>
      <trkpt lat="43.34112" lon="5.53622">
        <ele>489.93</ele>
        <time>2019-02-03T09:12:20Z</time>
      </trkpt>
      <trkpt lat="43.34109" lon="5.53621">
        <ele>488.97</ele>
        <time>2019-02-03T09:12:23Z</time>
      </trkpt>
      <trkpt lat="43.34102" lon="5.53618">
        <ele>488.01</ele>
        <time>2019-02-03T09:12:28Z</time>
      </trkpt>
      <trkpt lat="43.34097" lon="5.5362">
        <ele>487.53</ele>
        <time>2019-02-03T09:12:33Z</time>
      </trkpt>
      <trkpt lat="43.34093" lon="5.53618">
        <ele>487.05</ele>
        <time>2019-02-03T09:12:36Z</time>
      </trkpt>
      <trkpt lat="43.34085" lon="5.53619">
        <ele>486.56</ele>
        <time>2019-02-03T09:12:43Z</time>
      </trkpt>
      <trkpt lat="43.34073" lon="5.53609">
        <ele>483.2</ele>
        <time>2019-02-03T09:12:55Z</time>
      </trkpt>
      <trkpt lat="43.34067" lon="5.53605">
        <ele>482.24</ele>
        <time>2019-02-03T09:12:59Z</time>
      </trkpt>
      <trkpt lat="43.34065" lon="5.53603">
        <ele>482.24</ele>
        <time>2019-02-03T09:13:01Z</time>
      </trkpt>
      <trkpt lat="43.34061" lon="5.53603">
        <ele>481.76</ele>
        <time>2019-02-03T09:13:06Z</time>
      </trkpt>
      <trkpt lat="43.34059" lon="5.53601">
        <ele>481.76</ele>
        <time>2019-02-03T09:13:08Z</time>
      </trkpt>
      <trkpt lat="43.34044" lon="5.53594">
        <ele>479.84</ele>
        <time>2019-02-03T09:13:19Z</time>
      </trkpt>
      <trkpt lat="43.34044" lon="5.53593">
        <ele>479.35</ele>
        <time>2019-02-03T09:13:20Z</time>
      </trkpt>
      <trkpt lat="43.34041" lon="5.5359">
        <ele>478.87</ele>
        <time>2019-02-03T09:13:23Z</time>
      </trkpt>
      <trkpt lat="43.3403" lon="5.53585">
        <ele>476.47</ele>
        <time>2019-02-03T09:13:34Z</time>
      </trkpt>
      <trkpt lat="43.34029" lon="5.53585">
        <ele>475.99</ele>
        <time>2019-02-03T09:13:42Z</time>
      </trkpt>
      <trkpt lat="43.34027" lon="5.53587">
        <ele>475.51</ele>
        <time>2019-02-03T09:13:44Z</time>
      </trkpt>
      <trkpt lat="43.34021" lon="5.53585">
        <ele>474.55</ele>
        <time>2019-02-03T09:13:48Z</time>
      </trkpt>
      <trkpt lat="43.34017" lon="5.53584">
        <ele>474.07</ele>
        <time>2019-02-03T09:13:51Z</time>
      </trkpt>
      <trkpt lat="43.34015" lon="5.53585">
        <ele>473.59</ele>
        <time>2019-02-03T09:13:53Z</time>
      </trkpt>
      <trkpt lat="43.34013" lon="5.53586">
        <ele>473.11</ele>
        <time>2019-02-03T09:13:56Z</time>
      </trkpt>
      <trkpt lat="43.34008" lon="5.53589">
        <ele>473.11</ele>
        <time>2019-02-03T09:14:00Z</time>
      </trkpt>
      <trkpt lat="43.34002" lon="5.53587">
        <ele>477.43</ele>
        <time>2019-02-03T09:14:11Z</time>
      </trkpt>
      <trkpt lat="43.34001" lon="5.53586">
        <ele>477.43</ele>
        <time>2019-02-03T09:14:13Z</time>
      </trkpt>
      <trkpt lat="43.33998" lon="5.53583">
        <ele>476.95</ele>
        <time>2019-02-03T09:14:17Z</time>
      </trkpt>
      <trkpt lat="43.3399" lon="5.53576">
        <ele>475.99</ele>
        <time>2019-02-03T09:14:24Z</time>
      </trkpt>
      <trkpt lat="43.33979" lon="5.53567">
        <ele>473.11</ele>
        <time>2019-02-03T09:14:36Z</time>
      </trkpt>
      <trkpt lat="43.33975" lon="5.53562">
        <ele>472.14</ele>
        <time>2019-02-03T09:14:40Z</time>
      </trkpt>
      <trkpt lat="43.3397" lon="5.53554">
        <ele>470.7</ele>
        <time>2019-02-03T09:14:48Z</time>
      </trkpt>
      <trkpt lat="43.33965" lon="5.53552">
        <ele>469.26</ele>
        <time>2019-02-03T09:14:59Z</time>
      </trkpt>
      <trkpt lat="43.33965" lon="5.53552">
        <ele>468.78</ele>
        <time>2019-02-03T09:15:03Z</time>
      </trkpt>
      <trkpt lat="43.33958" lon="5.53545">
        <ele>467.82</ele>
        <time>2019-02-03T09:15:11Z</time>
      </trkpt>
      <trkpt lat="43.33953" lon="5.53542">
        <ele>466.86</ele>
        <time>2019-02-03T09:15:15Z</time>
      </trkpt>
      <trkpt lat="43.33945" lon="5.53535">
        <ele>464.45</ele>
        <time>2019-02-03T09:15:24Z</time>
      </trkpt>
      <trkpt lat="43.33942" lon="5.53533">
        <ele>464.45</ele>
        <time>2019-02-03T09:15:26Z</time>
      </trkpt>
      <trkpt lat="43.33933" lon="5.53527">
        <ele>463.49</ele>
        <time>2019-02-03T09:15:35Z</time>
      </trkpt>
      <trkpt lat="43.33922" lon="5.53525">
        <ele>462.53</ele>
        <time>2019-02-03T09:15:43Z</time>
      </trkpt>
      <trkpt lat="43.33921" lon="5.53523">
        <ele>461.57</ele>
        <time>2019-02-03T09:15:46Z</time>
      </trkpt>
      <trkpt lat="43.33913" lon="5.53519">
        <ele>459.65</ele>
        <time>2019-02-03T09:15:53Z</time>
      </trkpt>
      <trkpt lat="43.33903" lon="5.53513">
        <ele>456.76</ele>
        <time>2019-02-03T09:16:05Z</time>
      </trkpt>
      <trkpt lat="43.339" lon="5.53511">
        <ele>456.28</ele>
        <time>2019-02-03T09:16:08Z</time>
      </trkpt>
      <trkpt lat="43.33889" lon="5.53506">
        <ele>453.4</ele>
        <time>2019-02-03T09:16:19Z</time>
      </trkpt>
      <trkpt lat="43.33879" lon="5.53504">
        <ele>451</ele>
        <time>2019-02-03T09:16:28Z</time>
      </trkpt>
      <trkpt lat="43.33876" lon="5.53504">
        <ele>450.52</ele>
        <time>2019-02-03T09:16:31Z</time>
      </trkpt>
      <trkpt lat="43.33869" lon="5.53499">
        <ele>448.11</ele>
        <time>2019-02-03T09:16:39Z</time>
      </trkpt>
      <trkpt lat="43.33861" lon="5.53495">
        <ele>446.19</ele>
        <time>2019-02-03T09:16:46Z</time>
      </trkpt>
      <trkpt lat="43.33855" lon="5.53494">
        <ele>445.23</ele>
        <time>2019-02-03T09:16:51Z</time>
      </trkpt>
      <trkpt lat="43.3385" lon="5.53493">
        <ele>444.27</ele>
        <time>2019-02-03T09:16:55Z</time>
      </trkpt>
      <trkpt lat="43.33847" lon="5.53493">
        <ele>443.79</ele>
        <time>2019-02-03T09:16:58Z</time>
      </trkpt>
      <trkpt lat="43.33841" lon="5.5349">
        <ele>442.82</ele>
        <time>2019-02-03T09:17:02Z</time>
      </trkpt>
      <trkpt lat="43.33838" lon="5.53488">
        <ele>441.38</ele>
        <time>2019-02-03T09:17:12Z</time>
      </trkpt>
      <trkpt lat="43.33836" lon="5.53487">
        <ele>440.42</ele>
        <time>2019-02-03T09:17:25Z</time>
      </trkpt>
      <trkpt lat="43.33831" lon="5.53487">
        <ele>439.94</ele>
        <time>2019-02-03T09:17:31Z</time>
      </trkpt>
      <trkpt lat="43.33826" lon="5.53486">
        <ele>438.98</ele>
        <time>2019-02-03T09:17:35Z</time>
      </trkpt>
      <trkpt lat="43.3382" lon="5.53489">
        <ele>437.54</ele>
        <time>2019-02-03T09:17:39Z</time>
      </trkpt>
      <trkpt lat="43.3381" lon="5.53489">
        <ele>435.61</ele>
        <time>2019-02-03T09:17:49Z</time>
      </trkpt>
      <trkpt lat="43.33806" lon="5.53493">
        <ele>434.17</ele>
        <time>2019-02-03T09:17:54Z</time>
      </trkpt>
      <trkpt lat="43.33803" lon="5.53492">
        <ele>433.21</ele>
        <time>2019-02-03T09:17:57Z</time>
      </trkpt>
      <trkpt lat="43.33796" lon="5.5349">
        <ele>429.37</ele>
        <time>2019-02-03T09:18:08Z</time>
      </trkpt>
      <trkpt lat="43.33796" lon="5.53489">
        <ele>429.37</ele>
        <time>2019-02-03T09:18:09Z</time>
      </trkpt>
      <trkpt lat="43.33789" lon="5.53485">
        <ele>425.52</ele>
        <time>2019-02-03T09:18:17Z</time>
      </trkpt>
      <trkpt lat="43.33789" lon="5.53485">
        <ele>425.04</ele>
        <time>2019-02-03T09:18:18Z</time>
      </trkpt>
      <trkpt lat="43.33788" lon="5.53483">
        <ele>424.08</ele>
        <time>2019-02-03T09:18:21Z</time>
      </trkpt>
      <trkpt lat="43.33782" lon="5.53484">
        <ele>422.64</ele>
        <time>2019-02-03T09:18:26Z</time>
      </trkpt>
      <trkpt lat="43.3377" lon="5.5348">
        <ele>419.75</ele>
        <time>2019-02-03T09:18:37Z</time>
      </trkpt>
      <trkpt lat="43.33767" lon="5.53481">
        <ele>419.27</ele>
        <time>2019-02-03T09:18:40Z</time>
      </trkpt>
      <trkpt lat="43.33763" lon="5.53482">
        <ele>418.79</ele>
        <time>2019-02-03T09:18:52Z</time>
      </trkpt>
      <trkpt lat="43.33758" lon="5.53481">
        <ele>417.83</ele>
        <time>2019-02-03T09:19:01Z</time>
      </trkpt>
      <trkpt lat="43.33754" lon="5.53482">
        <ele>416.87</ele>
        <time>2019-02-03T09:19:06Z</time>
      </trkpt>
      <trkpt lat="43.33748" lon="5.5348">
        <ele>415.43</ele>
        <time>2019-02-03T09:19:13Z</time>
      </trkpt>
      <trkpt lat="43.33739" lon="5.53482">
        <ele>414.95</ele>
        <time>2019-02-03T09:19:20Z</time>
      </trkpt>
      <trkpt lat="43.33737" lon="5.53481">
        <ele>414.95</ele>
        <time>2019-02-03T09:19:22Z</time>
      </trkpt>
      <trkpt lat="43.33736" lon="5.53481">
        <ele>414.47</ele>
        <time>2019-02-03T09:19:24Z</time>
      </trkpt>
      <trkpt lat="43.33729" lon="5.53481">
        <ele>413.98</ele>
        <time>2019-02-03T09:19:30Z</time>
      </trkpt>
      <trkpt lat="43.33726" lon="5.53482">
        <ele>413.98</ele>
        <time>2019-02-03T09:19:32Z</time>
      </trkpt>
      <trkpt lat="43.3372" lon="5.5348">
        <ele>413.98</ele>
        <time>2019-02-03T09:19:39Z</time>
      </trkpt>
      <trkpt lat="43.33711" lon="5.53468">
        <ele>412.06</ele>
        <time>2019-02-03T09:19:50Z</time>
      </trkpt>
      <trkpt lat="43.33711" lon="5.53467">
        <ele>411.58</ele>
        <time>2019-02-03T09:19:51Z</time>
      </trkpt>
      <trkpt lat="43.33708" lon="5.53465">
        <ele>412.06</ele>
        <time>2019-02-03T09:19:55Z</time>
      </trkpt>
      <trkpt lat="43.337" lon="5.53455">
        <ele>412.06</ele>
        <time>2019-02-03T09:20:04Z</time>
      </trkpt>
      <trkpt lat="43.33687" lon="5.53448">
        <ele>411.58</ele>
        <time>2019-02-03T09:20:15Z</time>
      </trkpt>
      <trkpt lat="43.33685" lon="5.53443">
        <ele>411.1</ele>
        <time>2019-02-03T09:20:18Z</time>
      </trkpt>
      <trkpt lat="43.33683" lon="5.53442">
        <ele>410.14</ele>
        <time>2019-02-03T09:20:20Z</time>
      </trkpt>
      <trkpt lat="43.33674" lon="5.53434">
        <ele>408.22</ele>
        <time>2019-02-03T09:20:29Z</time>
      </trkpt>
      <trkpt lat="43.3366" lon="5.53422">
        <ele>407.26</ele>
        <time>2019-02-03T09:20:41Z</time>
      </trkpt>
      <trkpt lat="43.3365" lon="5.53409">
        <ele>406.77</ele>
        <time>2019-02-03T09:20:51Z</time>
      </trkpt>
      <trkpt lat="43.33645" lon="5.53403">
        <ele>405.81</ele>
        <time>2019-02-03T09:20:58Z</time>
      </trkpt>
      <trkpt lat="43.3364" lon="5.53399">
        <ele>405.33</ele>
        <time>2019-02-03T09:21:03Z</time>
      </trkpt>
      <trkpt lat="43.33636" lon="5.53394">
        <ele>403.41</ele>
        <time>2019-02-03T09:21:09Z</time>
      </trkpt>
      <trkpt lat="43.33632" lon="5.5339">
        <ele>401.97</ele>
        <time>2019-02-03T09:21:18Z</time>
      </trkpt>
      <trkpt lat="43.33625" lon="5.53385">
        <ele>401.97</ele>
        <time>2019-02-03T09:21:23Z</time>
      </trkpt>
      <trkpt lat="43.3362" lon="5.53382">
        <ele>401.49</ele>
        <time>2019-02-03T09:21:30Z</time>
      </trkpt>
      <trkpt lat="43.33619" lon="5.53381">
        <ele>401.01</ele>
        <time>2019-02-03T09:21:33Z</time>
      </trkpt>
      <trkpt lat="43.33613" lon="5.53373">
        <ele>400.05</ele>
        <time>2019-02-03T09:21:40Z</time>
      </trkpt>
      <trkpt lat="43.33607" lon="5.53366">
        <ele>399.57</ele>
        <time>2019-02-03T09:21:46Z</time>
      </trkpt>
      <trkpt lat="43.33605" lon="5.53363">
        <ele>399.08</ele>
        <time>2019-02-03T09:21:48Z</time>
      </trkpt>
      <trkpt lat="43.33597" lon="5.53351">
        <ele>395.72</ele>
        <time>2019-02-03T09:22:00Z</time>
      </trkpt>
      <trkpt lat="43.33594" lon="5.53348">
        <ele>395.24</ele>
        <time>2019-02-03T09:22:03Z</time>
      </trkpt>
      <trkpt lat="43.33591" lon="5.53343">
        <ele>394.28</ele>
        <time>2019-02-03T09:22:07Z</time>
      </trkpt>
      <trkpt lat="43.33585" lon="5.53338">
        <ele>393.32</ele>
        <time>2019-02-03T09:22:12Z</time>
      </trkpt>
      <trkpt lat="43.3358" lon="5.53332">
        <ele>392.84</ele>
        <time>2019-02-03T09:22:17Z</time>
      </trkpt>
      <trkpt lat="43.33574" lon="5.53328">
        <ele>392.84</ele>
        <time>2019-02-03T09:22:21Z</time>
      </trkpt>
      <trkpt lat="43.33568" lon="5.53324">
        <ele>391.39</ele>
        <time>2019-02-03T09:22:27Z</time>
      </trkpt>
      <trkpt lat="43.33565" lon="5.53322">
        <ele>390.43</ele>
        <time>2019-02-03T09:22:30Z</time>
      </trkpt>
      <trkpt lat="43.33555" lon="5.53315">
        <ele>388.99</ele>
        <time>2019-02-03T09:22:39Z</time>
      </trkpt>
      <trkpt lat="43.33542" lon="5.5331">
        <ele>387.55</ele>
        <time>2019-02-03T09:22:48Z</time>
      </trkpt>
      <trkpt lat="43.33534" lon="5.53305">
        <ele>385.15</ele>
        <time>2019-02-03T09:22:57Z</time>
      </trkpt>
      <trkpt lat="43.33528" lon="5.53303">
        <ele>384.18</ele>
        <time>2019-02-03T09:23:01Z</time>
      </trkpt>
      <trkpt lat="43.33522" lon="5.53302">
        <ele>382.74</ele>
        <time>2019-02-03T09:23:08Z</time>
      </trkpt>
      <trkpt lat="43.33514" lon="5.533">
        <ele>382.26</ele>
        <time>2019-02-03T09:23:14Z</time>
      </trkpt>
      <trkpt lat="43.33504" lon="5.53301">
        <ele>379.38</ele>
        <time>2019-02-03T09:23:23Z</time>
      </trkpt>
      <trkpt lat="43.335" lon="5.53302">
        <ele>378.9</ele>
        <time>2019-02-03T09:23:25Z</time>
      </trkpt>
      <trkpt lat="43.33494" lon="5.53302">
        <ele>378.42</ele>
        <time>2019-02-03T09:23:29Z</time>
      </trkpt>
      <trkpt lat="43.3348" lon="5.53316">
        <ele>376.01</ele>
        <time>2019-02-03T09:23:41Z</time>
      </trkpt>
      <trkpt lat="43.33479" lon="5.53318">
        <ele>376.01</ele>
        <time>2019-02-03T09:23:43Z</time>
      </trkpt>
      <trkpt lat="43.33476" lon="5.53321">
        <ele>375.53</ele>
        <time>2019-02-03T09:23:46Z</time>
      </trkpt>
      <trkpt lat="43.33467" lon="5.53334">
        <ele>372.65</ele>
        <time>2019-02-03T09:23:55Z</time>
      </trkpt>
      <trkpt lat="43.33466" lon="5.53336">
        <ele>372.17</ele>
        <time>2019-02-03T09:23:57Z</time>
      </trkpt>
      <trkpt lat="43.3346" lon="5.53345">
        <ele>370.24</ele>
        <time>2019-02-03T09:24:05Z</time>
      </trkpt>
      <trkpt lat="43.3346" lon="5.53346">
        <ele>369.76</ele>
        <time>2019-02-03T09:24:06Z</time>
      </trkpt>
      <trkpt lat="43.33457" lon="5.53348">
        <ele>369.28</ele>
        <time>2019-02-03T09:24:09Z</time>
      </trkpt>
      <trkpt lat="43.33456" lon="5.5335">
        <ele>368.8</ele>
        <time>2019-02-03T09:24:12Z</time>
      </trkpt>
      <trkpt lat="43.33449" lon="5.53358">
        <ele>366.4</ele>
        <time>2019-02-03T09:24:23Z</time>
      </trkpt>
      <trkpt lat="43.33446" lon="5.53366">
        <ele>364.96</ele>
        <time>2019-02-03T09:24:30Z</time>
      </trkpt>
      <trkpt lat="43.33443" lon="5.53371">
        <ele>363.04</ele>
        <time>2019-02-03T09:24:34Z</time>
      </trkpt>
      <trkpt lat="43.33436" lon="5.53386">
        <ele>362.07</ele>
        <time>2019-02-03T09:24:48Z</time>
      </trkpt>
      <trkpt lat="43.33434" lon="5.53389">
        <ele>361.11</ele>
        <time>2019-02-03T09:24:51Z</time>
      </trkpt>
      <trkpt lat="43.33432" lon="5.53392">
        <ele>360.63</ele>
        <time>2019-02-03T09:24:53Z</time>
      </trkpt>
      <trkpt lat="43.33424" lon="5.53405">
        <ele>357.75</ele>
        <time>2019-02-03T09:25:04Z</time>
      </trkpt>
      <trkpt lat="43.33413" lon="5.5342">
        <ele>356.31</ele>
        <time>2019-02-03T09:25:16Z</time>
      </trkpt>
      <trkpt lat="43.33407" lon="5.53424">
        <ele>355.34</ele>
        <time>2019-02-03T09:25:21Z</time>
      </trkpt>
      <trkpt lat="43.33402" lon="5.5343">
        <ele>354.86</ele>
        <time>2019-02-03T09:25:27Z</time>
      </trkpt>
      <trkpt lat="43.33393" lon="5.53426">
        <ele>354.86</ele>
        <time>2019-02-03T09:25:38Z</time>
      </trkpt>
      <trkpt lat="43.33392" lon="5.53426">
        <ele>355.34</ele>
        <time>2019-02-03T09:25:40Z</time>
      </trkpt>
      <trkpt lat="43.3339" lon="5.53425">
        <ele>355.34</ele>
        <time>2019-02-03T09:25:42Z</time>
      </trkpt>
      <trkpt lat="43.33388" lon="5.53429">
        <ele>356.79</ele>
        <time>2019-02-03T09:25:46Z</time>
      </trkpt>
      <trkpt lat="43.33386" lon="5.53436">
        <ele>357.75</ele>
        <time>2019-02-03T09:25:57Z</time>
      </trkpt>
      <trkpt lat="43.33386" lon="5.53436">
        <ele>358.23</ele>
        <time>2019-02-03T09:26:17Z</time>
      </trkpt>
      <trkpt lat="43.33386" lon="5.53436">
        <ele>358.23</ele>
        <time>2019-02-03T09:26:38Z</time>
      </trkpt>
      <trkpt lat="43.33386" lon="5.53436">
        <ele>358.71</ele>
        <time>2019-02-03T09:27:01Z</time>
      </trkpt>
      <trkpt lat="43.33386" lon="5.53441">
        <ele>359.67</ele>
        <time>2019-02-03T09:27:05Z</time>
      </trkpt>
      <trkpt lat="43.33385" lon="5.53452">
        <ele>359.19</ele>
        <time>2019-02-03T09:27:11Z</time>
      </trkpt>
      <trkpt lat="43.33385" lon="5.53463">
        <ele>359.67</ele>
        <time>2019-02-03T09:27:23Z</time>
      </trkpt>
      <trkpt lat="43.33387" lon="5.53467">
        <ele>359.67</ele>
        <time>2019-02-03T09:27:26Z</time>
      </trkpt>
      <trkpt lat="43.33392" lon="5.53471">
        <ele>359.67</ele>
        <time>2019-02-03T09:27:32Z</time>
      </trkpt>
      <trkpt lat="43.33398" lon="5.53477">
        <ele>359.67</ele>
        <time>2019-02-03T09:27:40Z</time>
      </trkpt>
      <trkpt lat="43.33399" lon="5.53476">
        <ele>358.71</ele>
        <time>2019-02-03T09:27:50Z</time>
      </trkpt>
      <trkpt lat="43.33399" lon="5.53476">
        <ele>358.23</ele>
        <time>2019-02-03T09:28:03Z</time>
      </trkpt>
      <trkpt lat="43.33399" lon="5.53477">
        <ele>359.19</ele>
        <time>2019-02-03T09:28:13Z</time>
      </trkpt>
      <trkpt lat="43.33404" lon="5.53476">
        <ele>360.15</ele>
        <time>2019-02-03T09:28:24Z</time>
      </trkpt>
      <trkpt lat="43.33405" lon="5.53477">
        <ele>360.15</ele>
        <time>2019-02-03T09:28:36Z</time>
      </trkpt>
      <trkpt lat="43.33408" lon="5.5349">
        <ele>362.55</ele>
        <time>2019-02-03T09:28:47Z</time>
      </trkpt>
      <trkpt lat="43.33409" lon="5.53492">
        <ele>365.44</ele>
        <time>2019-02-03T09:28:53Z</time>
      </trkpt>
      <trkpt lat="43.33409" lon="5.53498">
        <ele>366.88</ele>
        <time>2019-02-03T09:29:04Z</time>
      </trkpt>
      <trkpt lat="43.33409" lon="5.53499">
        <ele>367.84</ele>
        <time>2019-02-03T09:29:06Z</time>
      </trkpt>
      <trkpt lat="43.33409" lon="5.53502">
        <ele>368.32</ele>
        <time>2019-02-03T09:29:17Z</time>
      </trkpt>
      <trkpt lat="43.3341" lon="5.53503">
        <ele>369.76</ele>
        <time>2019-02-03T09:29:20Z</time>
      </trkpt>
      <trkpt lat="43.33411" lon="5.53506">
        <ele>372.65</ele>
        <time>2019-02-03T09:29:28Z</time>
      </trkpt>
      <trkpt lat="43.33412" lon="5.5351">
        <ele>374.09</ele>
        <time>2019-02-03T09:29:31Z</time>
      </trkpt>
      <trkpt lat="43.33416" lon="5.53517">
        <ele>375.53</ele>
        <time>2019-02-03T09:29:41Z</time>
      </trkpt>
      <trkpt lat="43.33422" lon="5.53522">
        <ele>377.94</ele>
        <time>2019-02-03T09:29:51Z</time>
      </trkpt>
      <trkpt lat="43.33425" lon="5.53523">
        <ele>379.86</ele>
        <time>2019-02-03T09:29:55Z</time>
      </trkpt>
      <trkpt lat="43.33429" lon="5.53525">
        <ele>382.26</ele>
        <time>2019-02-03T09:30:06Z</time>
      </trkpt>
      <trkpt lat="43.33429" lon="5.53528">
        <ele>384.66</ele>
        <time>2019-02-03T09:30:16Z</time>
      </trkpt>
      <trkpt lat="43.33429" lon="5.53528">
        <ele>383.7</ele>
        <time>2019-02-03T09:30:40Z</time>
      </trkpt>
      <trkpt lat="43.3343" lon="5.53529">
        <ele>383.7</ele>
        <time>2019-02-03T09:31:01Z</time>
      </trkpt>
      <trkpt lat="43.3343" lon="5.53529">
        <ele>384.18</ele>
        <time>2019-02-03T09:31:26Z</time>
      </trkpt>
      <trkpt lat="43.33431" lon="5.53531">
        <ele>385.15</ele>
        <time>2019-02-03T09:31:47Z</time>
      </trkpt>
      <trkpt lat="43.33432" lon="5.53534">
        <ele>386.11</ele>
        <time>2019-02-03T09:31:51Z</time>
      </trkpt>
      <trkpt lat="43.33436" lon="5.53538">
        <ele>388.03</ele>
        <time>2019-02-03T09:32:02Z</time>
      </trkpt>
      <trkpt lat="43.33437" lon="5.5354">
        <ele>388.51</ele>
        <time>2019-02-03T09:32:24Z</time>
      </trkpt>
      <trkpt lat="43.33437" lon="5.53544">
        <ele>390.91</ele>
        <time>2019-02-03T09:32:34Z</time>
      </trkpt>
      <trkpt lat="43.33436" lon="5.53549">
        <ele>393.32</ele>
        <time>2019-02-03T09:32:45Z</time>
      </trkpt>
      <trkpt lat="43.33434" lon="5.53552">
        <ele>393.8</ele>
        <time>2019-02-03T09:32:50Z</time>
      </trkpt>
      <trkpt lat="43.33431" lon="5.53561">
        <ele>394.28</ele>
        <time>2019-02-03T09:33:00Z</time>
      </trkpt>
      <trkpt lat="43.33431" lon="5.53562">
        <ele>395.24</ele>
        <time>2019-02-03T09:33:02Z</time>
      </trkpt>
      <trkpt lat="43.3343" lon="5.53566">
        <ele>395.72</ele>
        <time>2019-02-03T09:33:05Z</time>
      </trkpt>
      <trkpt lat="43.33429" lon="5.53571">
        <ele>397.16</ele>
        <time>2019-02-03T09:33:18Z</time>
      </trkpt>
      <trkpt lat="43.33428" lon="5.53571">
        <ele>399.57</ele>
        <time>2019-02-03T09:33:26Z</time>
      </trkpt>
      <trkpt lat="43.33434" lon="5.5357">
        <ele>401.01</ele>
        <time>2019-02-03T09:33:39Z</time>
      </trkpt>
      <trkpt lat="43.33434" lon="5.53571">
        <ele>400.05</ele>
        <time>2019-02-03T09:33:52Z</time>
      </trkpt>
      <trkpt lat="43.33435" lon="5.53571">
        <ele>400.53</ele>
        <time>2019-02-03T09:34:11Z</time>
      </trkpt>
      <trkpt lat="43.3344" lon="5.5357">
        <ele>400.05</ele>
        <time>2019-02-03T09:34:15Z</time>
      </trkpt>
      <trkpt lat="43.33441" lon="5.5357">
        <ele>400.05</ele>
        <time>2019-02-03T09:34:19Z</time>
      </trkpt>
      <trkpt lat="43.33451" lon="5.5357">
        <ele>402.93</ele>
        <time>2019-02-03T09:34:29Z</time>
      </trkpt>
      <trkpt lat="43.33455" lon="5.53567">
        <ele>401.01</ele>
        <time>2019-02-03T09:34:37Z</time>
      </trkpt>
      <trkpt lat="43.33463" lon="5.53563">
        <ele>400.05</ele>
        <time>2019-02-03T09:34:49Z</time>
      </trkpt>
      <trkpt lat="43.33468" lon="5.53566">
        <ele>402.45</ele>
        <time>2019-02-03T09:34:58Z</time>
      </trkpt>
      <trkpt lat="43.33472" lon="5.53569">
        <ele>404.37</ele>
        <time>2019-02-03T09:35:07Z</time>
      </trkpt>
      <trkpt lat="43.33478" lon="5.53571">
        <ele>405.33</ele>
        <time>2019-02-03T09:35:19Z</time>
      </trkpt>
      <trkpt lat="43.33482" lon="5.53581">
        <ele>404.85</ele>
        <time>2019-02-03T09:35:38Z</time>
      </trkpt>
      <trkpt lat="43.33489" lon="5.53584">
        <ele>404.37</ele>
        <time>2019-02-03T09:35:58Z</time>
      </trkpt>
      <trkpt lat="43.3349" lon="5.53583">
        <ele>404.85</ele>
        <time>2019-02-03T09:36:18Z</time>
      </trkpt>
      <trkpt lat="43.3349" lon="5.53583">
        <ele>404.85</ele>
        <time>2019-02-03T09:36:36Z</time>
      </trkpt>
      <trkpt lat="43.33489" lon="5.53581">
        <ele>404.37</ele>
        <time>2019-02-03T09:36:40Z</time>
      </trkpt>
      <trkpt lat="43.33475" lon="5.53571">
        <ele>403.41</ele>
        <time>2019-02-03T09:36:50Z</time>
      </trkpt>
      <trkpt lat="43.33473" lon="5.53569">
        <ele>402.93</ele>
        <time>2019-02-03T09:36:53Z</time>
      </trkpt>
      <trkpt lat="43.3347" lon="5.53565">
        <ele>401.97</ele>
        <time>2019-02-03T09:37:06Z</time>
      </trkpt>
      <trkpt lat="43.33463" lon="5.5356">
        <ele>401.01</ele>
        <time>2019-02-03T09:37:19Z</time>
      </trkpt>
      <trkpt lat="43.33463" lon="5.5356">
        <ele>401.49</ele>
        <time>2019-02-03T09:37:21Z</time>
      </trkpt>
      <trkpt lat="43.3346" lon="5.53563">
        <ele>401.49</ele>
        <time>2019-02-03T09:37:26Z</time>
      </trkpt>
      <trkpt lat="43.33458" lon="5.53566">
        <ele>402.45</ele>
        <time>2019-02-03T09:37:29Z</time>
      </trkpt>
      <trkpt lat="43.33454" lon="5.53566">
        <ele>401.97</ele>
        <time>2019-02-03T09:37:34Z</time>
      </trkpt>
      <trkpt lat="43.33452" lon="5.53567">
        <ele>401.49</ele>
        <time>2019-02-03T09:37:36Z</time>
      </trkpt>
      <trkpt lat="43.33448" lon="5.53567">
        <ele>400.53</ele>
        <time>2019-02-03T09:37:49Z</time>
      </trkpt>
      <trkpt lat="43.33447" lon="5.53568">
        <ele>400.05</ele>
        <time>2019-02-03T09:37:52Z</time>
      </trkpt>
      <trkpt lat="43.33444" lon="5.53573">
        <ele>400.53</ele>
        <time>2019-02-03T09:38:05Z</time>
      </trkpt>
      <trkpt lat="43.33437" lon="5.53577">
        <ele>399.57</ele>
        <time>2019-02-03T09:38:11Z</time>
      </trkpt>
      <trkpt lat="43.3343" lon="5.53583">
        <ele>399.57</ele>
        <time>2019-02-03T09:38:19Z</time>
      </trkpt>
      <trkpt lat="43.33423" lon="5.53589">
        <ele>399.57</ele>
        <time>2019-02-03T09:38:26Z</time>
      </trkpt>
      <trkpt lat="43.33421" lon="5.53594">
        <ele>399.08</ele>
        <time>2019-02-03T09:38:30Z</time>
      </trkpt>
      <trkpt lat="43.3342" lon="5.53597">
        <ele>399.57</ele>
        <time>2019-02-03T09:38:36Z</time>
      </trkpt>
      <trkpt lat="43.33418" lon="5.53611">
        <ele>398.6</ele>
        <time>2019-02-03T09:38:47Z</time>
      </trkpt>
      <trkpt lat="43.33418" lon="5.53613">
        <ele>398.12</ele>
        <time>2019-02-03T09:38:48Z</time>
      </trkpt>
      <trkpt lat="43.3342" lon="5.53622">
        <ele>400.05</ele>
        <time>2019-02-03T09:38:59Z</time>
      </trkpt>
      <trkpt lat="43.3342" lon="5.53623">
        <ele>399.57</ele>
        <time>2019-02-03T09:39:02Z</time>
      </trkpt>
      <trkpt lat="43.33421" lon="5.53631">
        <ele>401.97</ele>
        <time>2019-02-03T09:39:12Z</time>
      </trkpt>
      <trkpt lat="43.33423" lon="5.53633">
        <ele>402.45</ele>
        <time>2019-02-03T09:39:19Z</time>
      </trkpt>
      <trkpt lat="43.33422" lon="5.53635">
        <ele>404.37</ele>
        <time>2019-02-03T09:39:30Z</time>
      </trkpt>
      <trkpt lat="43.33419" lon="5.53643">
        <ele>405.81</ele>
        <time>2019-02-03T09:39:40Z</time>
      </trkpt>
      <trkpt lat="43.33418" lon="5.53646">
        <ele>406.77</ele>
        <time>2019-02-03T09:39:44Z</time>
      </trkpt>
      <trkpt lat="43.33413" lon="5.53655">
        <ele>406.77</ele>
        <time>2019-02-03T09:39:53Z</time>
      </trkpt>
      <trkpt lat="43.33413" lon="5.53655">
        <ele>406.77</ele>
        <time>2019-02-03T09:39:57Z</time>
      </trkpt>
      <trkpt lat="43.33416" lon="5.5365">
        <ele>406.77</ele>
        <time>2019-02-03T09:40:06Z</time>
      </trkpt>
      <trkpt lat="43.33414" lon="5.53645">
        <ele>404.37</ele>
        <time>2019-02-03T09:40:15Z</time>
      </trkpt>
      <trkpt lat="43.33411" lon="5.53635">
        <ele>402.93</ele>
        <time>2019-02-03T09:40:30Z</time>
      </trkpt>
      <trkpt lat="43.33414" lon="5.53631">
        <ele>401.49</ele>
        <time>2019-02-03T09:40:38Z</time>
      </trkpt>
      <trkpt lat="43.33418" lon="5.53623">
        <ele>402.45</ele>
        <time>2019-02-03T09:40:49Z</time>
      </trkpt>
      <trkpt lat="43.33419" lon="5.53623">
        <ele>401.01</ele>
        <time>2019-02-03T09:40:55Z</time>
      </trkpt>
      <trkpt lat="43.33422" lon="5.53608">
        <ele>400.53</ele>
        <time>2019-02-03T09:41:06Z</time>
      </trkpt>
      <trkpt lat="43.33423" lon="5.53601">
        <ele>400.53</ele>
        <time>2019-02-03T09:41:14Z</time>
      </trkpt>
      <trkpt lat="43.33424" lon="5.53595">
        <ele>400.53</ele>
        <time>2019-02-03T09:41:25Z</time>
      </trkpt>
      <trkpt lat="43.33424" lon="5.53594">
        <ele>399.57</ele>
        <time>2019-02-03T09:41:37Z</time>
      </trkpt>
      <trkpt lat="43.33427" lon="5.5359">
        <ele>400.53</ele>
        <time>2019-02-03T09:41:47Z</time>
      </trkpt>
      <trkpt lat="43.33433" lon="5.53581">
        <ele>400.53</ele>
        <time>2019-02-03T09:41:58Z</time>
      </trkpt>
      <trkpt lat="43.33432" lon="5.53574">
        <ele>399.57</ele>
        <time>2019-02-03T09:42:07Z</time>
      </trkpt>
      <trkpt lat="43.3343" lon="5.53567">
        <ele>397.16</ele>
        <time>2019-02-03T09:42:18Z</time>
      </trkpt>
      <trkpt lat="43.33433" lon="5.53561">
        <ele>395.72</ele>
        <time>2019-02-03T09:42:27Z</time>
      </trkpt>
      <trkpt lat="43.33436" lon="5.53556">
        <ele>393.8</ele>
        <time>2019-02-03T09:42:37Z</time>
      </trkpt>
      <trkpt lat="43.33439" lon="5.53554">
        <ele>394.28</ele>
        <time>2019-02-03T09:42:40Z</time>
      </trkpt>
      <trkpt lat="43.33442" lon="5.53545">
        <ele>392.84</ele>
        <time>2019-02-03T09:42:53Z</time>
      </trkpt>
      <trkpt lat="43.33441" lon="5.53544">
        <ele>391.39</ele>
        <time>2019-02-03T09:43:10Z</time>
      </trkpt>
      <trkpt lat="43.33439" lon="5.5354">
        <ele>389.95</ele>
        <time>2019-02-03T09:43:22Z</time>
      </trkpt>
      <trkpt lat="43.33439" lon="5.5354">
        <ele>389.47</ele>
        <time>2019-02-03T09:43:25Z</time>
      </trkpt>
      <trkpt lat="43.33433" lon="5.5353">
        <ele>386.59</ele>
        <time>2019-02-03T09:43:36Z</time>
      </trkpt>
      <trkpt lat="43.33432" lon="5.53529">
        <ele>385.15</ele>
        <time>2019-02-03T09:43:55Z</time>
      </trkpt>
      <trkpt lat="43.33432" lon="5.53525">
        <ele>383.22</ele>
        <time>2019-02-03T09:44:07Z</time>
      </trkpt>
      <trkpt lat="43.33431" lon="5.53517">
        <ele>381.78</ele>
        <time>2019-02-03T09:44:27Z</time>
      </trkpt>
      <trkpt lat="43.33425" lon="5.53515">
        <ele>378.42</ele>
        <time>2019-02-03T09:44:35Z</time>
      </trkpt>
      <trkpt lat="43.33424" lon="5.53513">
        <ele>377.94</ele>
        <time>2019-02-03T09:44:37Z</time>
      </trkpt>
      <trkpt lat="43.33419" lon="5.53506">
        <ele>375.53</ele>
        <time>2019-02-03T09:44:50Z</time>
      </trkpt>
      <trkpt lat="43.33416" lon="5.53501">
        <ele>373.61</ele>
        <time>2019-02-03T09:44:59Z</time>
      </trkpt>
      <trkpt lat="43.33416" lon="5.53501">
        <ele>374.09</ele>
        <time>2019-02-03T09:45:21Z</time>
      </trkpt>
      <trkpt lat="43.33415" lon="5.53501">
        <ele>371.21</ele>
        <time>2019-02-03T09:45:38Z</time>
      </trkpt>
      <trkpt lat="43.33415" lon="5.535">
        <ele>371.21</ele>
        <time>2019-02-03T09:45:39Z</time>
      </trkpt>
      <trkpt lat="43.33414" lon="5.53497">
        <ele>369.76</ele>
        <time>2019-02-03T09:45:54Z</time>
      </trkpt>
      <trkpt lat="43.33413" lon="5.5349">
        <ele>366.88</ele>
        <time>2019-02-03T09:46:02Z</time>
      </trkpt>
      <trkpt lat="43.33413" lon="5.53488">
        <ele>366.4</ele>
        <time>2019-02-03T09:46:04Z</time>
      </trkpt>
      <trkpt lat="43.33413" lon="5.53489">
        <ele>365.44</ele>
        <time>2019-02-03T09:46:22Z</time>
      </trkpt>
      <trkpt lat="43.33412" lon="5.53483">
        <ele>363.04</ele>
        <time>2019-02-03T09:46:30Z</time>
      </trkpt>
      <trkpt lat="43.33407" lon="5.53478">
        <ele>362.07</ele>
        <time>2019-02-03T09:46:42Z</time>
      </trkpt>
      <trkpt lat="43.33405" lon="5.53478">
        <ele>361.59</ele>
        <time>2019-02-03T09:46:44Z</time>
      </trkpt>
      <trkpt lat="43.33397" lon="5.53479">
        <ele>361.59</ele>
        <time>2019-02-03T09:46:52Z</time>
      </trkpt>
      <trkpt lat="43.33393" lon="5.53474">
        <ele>362.07</ele>
        <time>2019-02-03T09:47:03Z</time>
      </trkpt>
      <trkpt lat="43.33391" lon="5.53472">
        <ele>362.55</ele>
        <time>2019-02-03T09:47:07Z</time>
      </trkpt>
      <trkpt lat="43.33389" lon="5.53467">
        <ele>362.55</ele>
        <time>2019-02-03T09:47:11Z</time>
      </trkpt>
      <trkpt lat="43.33389" lon="5.53464">
        <ele>363.04</ele>
        <time>2019-02-03T09:47:13Z</time>
      </trkpt>
      <trkpt lat="43.33389" lon="5.5346">
        <ele>362.55</ele>
        <time>2019-02-03T09:47:16Z</time>
      </trkpt>
      <trkpt lat="43.33386" lon="5.53454">
        <ele>362.55</ele>
        <time>2019-02-03T09:47:30Z</time>
      </trkpt>
      <trkpt lat="43.33386" lon="5.53454">
        <ele>362.07</ele>
        <time>2019-02-03T09:47:48Z</time>
      </trkpt>
      <trkpt lat="43.33386" lon="5.53454">
        <ele>361.59</ele>
        <time>2019-02-03T09:48:12Z</time>
      </trkpt>
      <trkpt lat="43.33387" lon="5.53447">
        <ele>361.59</ele>
        <time>2019-02-03T09:48:22Z</time>
      </trkpt>
      <trkpt lat="43.33388" lon="5.53441">
        <ele>361.11</ele>
        <time>2019-02-03T09:48:25Z</time>
      </trkpt>
      <trkpt lat="43.33392" lon="5.53431">
        <ele>358.71</ele>
        <time>2019-02-03T09:48:36Z</time>
      </trkpt>
      <trkpt lat="43.33394" lon="5.53431">
        <ele>358.71</ele>
        <time>2019-02-03T09:48:38Z</time>
      </trkpt>
      <trkpt lat="43.33397" lon="5.53428">
        <ele>358.71</ele>
        <time>2019-02-03T09:48:42Z</time>
      </trkpt>
      <trkpt lat="43.33397" lon="5.53422">
        <ele>357.75</ele>
        <time>2019-02-03T09:48:54Z</time>
      </trkpt>
      <trkpt lat="43.33397" lon="5.53422">
        <ele>357.75</ele>
        <time>2019-02-03T09:49:05Z</time>
      </trkpt>
      <trkpt lat="43.33397" lon="5.5342">
        <ele>357.75</ele>
        <time>2019-02-03T09:49:07Z</time>
      </trkpt>
      <trkpt lat="43.33396" lon="5.53412">
        <ele>357.75</ele>
        <time>2019-02-03T09:49:13Z</time>
      </trkpt>
      <trkpt lat="43.3339" lon="5.53396">
        <ele>356.31</ele>
        <time>2019-02-03T09:49:25Z</time>
      </trkpt>
      <trkpt lat="43.3339" lon="5.53393">
        <ele>356.31</ele>
        <time>2019-02-03T09:49:27Z</time>
      </trkpt>
      <trkpt lat="43.33387" lon="5.53382">
        <ele>355.34</ele>
        <time>2019-02-03T09:49:35Z</time>
      </trkpt>
      <trkpt lat="43.33386" lon="5.53377">
        <ele>355.34</ele>
        <time>2019-02-03T09:49:40Z</time>
      </trkpt>
      <trkpt lat="43.33383" lon="5.53372">
        <ele>354.86</ele>
        <time>2019-02-03T09:49:44Z</time>
      </trkpt>
      <trkpt lat="43.33378" lon="5.53363">
        <ele>354.86</ele>
        <time>2019-02-03T09:49:52Z</time>
      </trkpt>
      <trkpt lat="43.33376" lon="5.53358">
        <ele>355.34</ele>
        <time>2019-02-03T09:49:56Z</time>
      </trkpt>
      <trkpt lat="43.33372" lon="5.53353">
        <ele>354.38</ele>
        <time>2019-02-03T09:50:00Z</time>
      </trkpt>
      <trkpt lat="43.33368" lon="5.53351">
        <ele>353.9</ele>
        <time>2019-02-03T09:50:11Z</time>
      </trkpt>
      <trkpt lat="43.33367" lon="5.53351">
        <ele>354.38</ele>
        <time>2019-02-03T09:50:16Z</time>
      </trkpt>
      <trkpt lat="43.3336" lon="5.53349">
        <ele>354.38</ele>
        <time>2019-02-03T09:50:21Z</time>
      </trkpt>
      <trkpt lat="43.33355" lon="5.53347">
        <ele>352.94</ele>
        <time>2019-02-03T09:50:30Z</time>
      </trkpt>
      <trkpt lat="43.33342" lon="5.53341">
        <ele>352.46</ele>
        <time>2019-02-03T09:50:42Z</time>
      </trkpt>
      <trkpt lat="43.33336" lon="5.53331">
        <ele>351.98</ele>
        <time>2019-02-03T09:50:47Z</time>
      </trkpt>
      <trkpt lat="43.3333" lon="5.53317">
        <ele>351.02</ele>
        <time>2019-02-03T09:50:58Z</time>
      </trkpt>
      <trkpt lat="43.33329" lon="5.53314">
        <ele>351.02</ele>
        <time>2019-02-03T09:51:00Z</time>
      </trkpt>
      <trkpt lat="43.33328" lon="5.53311">
        <ele>351.02</ele>
        <time>2019-02-03T09:51:02Z</time>
      </trkpt>
      <trkpt lat="43.33316" lon="5.53296">
        <ele>350.54</ele>
        <time>2019-02-03T09:51:14Z</time>
      </trkpt>
      <trkpt lat="43.33315" lon="5.53295">
        <ele>350.54</ele>
        <time>2019-02-03T09:51:15Z</time>
      </trkpt>
      <trkpt lat="43.33302" lon="5.53283">
        <ele>348.62</ele>
        <time>2019-02-03T09:51:27Z</time>
      </trkpt>
      <trkpt lat="43.33285" lon="5.53279">
        <ele>347.65</ele>
        <time>2019-02-03T09:51:37Z</time>
      </trkpt>
      <trkpt lat="43.33278" lon="5.53281">
        <ele>347.17</ele>
        <time>2019-02-03T09:51:42Z</time>
      </trkpt>
      <trkpt lat="43.33263" lon="5.53285">
        <ele>345.25</ele>
        <time>2019-02-03T09:51:50Z</time>
      </trkpt>
      <trkpt lat="43.33247" lon="5.53286">
        <ele>341.41</ele>
        <time>2019-02-03T09:52:02Z</time>
      </trkpt>
      <trkpt lat="43.33245" lon="5.53285">
        <ele>341.41</ele>
        <time>2019-02-03T09:52:03Z</time>
      </trkpt>
      <trkpt lat="43.33232" lon="5.53283">
        <ele>338.04</ele>
        <time>2019-02-03T09:52:15Z</time>
      </trkpt>
      <trkpt lat="43.33219" lon="5.53276">
        <ele>335.16</ele>
        <time>2019-02-03T09:52:26Z</time>
      </trkpt>
      <trkpt lat="43.33205" lon="5.53279">
        <ele>332.75</ele>
        <time>2019-02-03T09:52:38Z</time>
      </trkpt>
      <trkpt lat="43.33194" lon="5.53278">
        <ele>330.35</ele>
        <time>2019-02-03T09:52:47Z</time>
      </trkpt>
      <trkpt lat="43.33185" lon="5.53275">
        <ele>328.43</ele>
        <time>2019-02-03T09:52:53Z</time>
      </trkpt>
      <trkpt lat="43.33172" lon="5.53276">
        <ele>325.54</ele>
        <time>2019-02-03T09:53:05Z</time>
      </trkpt>
      <trkpt lat="43.33163" lon="5.53276">
        <ele>322.66</ele>
        <time>2019-02-03T09:53:14Z</time>
      </trkpt>
      <trkpt lat="43.33154" lon="5.53268">
        <ele>319.78</ele>
        <time>2019-02-03T09:53:26Z</time>
      </trkpt>
      <trkpt lat="43.33153" lon="5.53266">
        <ele>319.3</ele>
        <time>2019-02-03T09:53:29Z</time>
      </trkpt>
      <trkpt lat="43.33151" lon="5.53263">
        <ele>318.33</ele>
        <time>2019-02-03T09:53:32Z</time>
      </trkpt>
      <trkpt lat="43.33141" lon="5.53255">
        <ele>315.93</ele>
        <time>2019-02-03T09:53:45Z</time>
      </trkpt>
      <trkpt lat="43.3313" lon="5.53249">
        <ele>313.05</ele>
        <time>2019-02-03T09:53:55Z</time>
      </trkpt>
      <trkpt lat="43.33125" lon="5.53245">
        <ele>312.09</ele>
        <time>2019-02-03T09:54:00Z</time>
      </trkpt>
      <trkpt lat="43.33117" lon="5.53243">
        <ele>310.16</ele>
        <time>2019-02-03T09:54:05Z</time>
      </trkpt>
      <trkpt lat="43.33113" lon="5.53237">
        <ele>308.24</ele>
        <time>2019-02-03T09:54:12Z</time>
      </trkpt>
      <trkpt lat="43.33109" lon="5.53234">
        <ele>307.76</ele>
        <time>2019-02-03T09:54:16Z</time>
      </trkpt>
      <trkpt lat="43.331" lon="5.53222">
        <ele>304.88</ele>
        <time>2019-02-03T09:54:26Z</time>
      </trkpt>
      <trkpt lat="43.33094" lon="5.53215">
        <ele>303.91</ele>
        <time>2019-02-03T09:54:33Z</time>
      </trkpt>
      <trkpt lat="43.33091" lon="5.53213">
        <ele>303.43</ele>
        <time>2019-02-03T09:54:48Z</time>
      </trkpt>
      <trkpt lat="43.33091" lon="5.53213">
        <ele>302.47</ele>
        <time>2019-02-03T09:55:04Z</time>
      </trkpt>
      <trkpt lat="43.33084" lon="5.53206">
        <ele>302.47</ele>
        <time>2019-02-03T09:55:16Z</time>
      </trkpt>
      <trkpt lat="43.33083" lon="5.53204">
        <ele>302.95</ele>
        <time>2019-02-03T09:55:18Z</time>
      </trkpt>
      <trkpt lat="43.33081" lon="5.53198">
        <ele>302.95</ele>
        <time>2019-02-03T09:55:26Z</time>
      </trkpt>
      <trkpt lat="43.33082" lon="5.53188">
        <ele>302.47</ele>
        <time>2019-02-03T09:55:32Z</time>
      </trkpt>
      <trkpt lat="43.33082" lon="5.53174">
        <ele>302.47</ele>
        <time>2019-02-03T09:55:41Z</time>
      </trkpt>
      <trkpt lat="43.33083" lon="5.53159">
        <ele>302.95</ele>
        <time>2019-02-03T09:55:50Z</time>
      </trkpt>
      <trkpt lat="43.33083" lon="5.53152">
        <ele>303.43</ele>
        <time>2019-02-03T09:56:01Z</time>
      </trkpt>
      <trkpt lat="43.33083" lon="5.53152">
        <ele>302.95</ele>
        <time>2019-02-03T09:56:06Z</time>
      </trkpt>
      <trkpt lat="43.33083" lon="5.53142">
        <ele>303.43</ele>
        <time>2019-02-03T09:56:19Z</time>
      </trkpt>
      <trkpt lat="43.33083" lon="5.53141">
        <ele>303.91</ele>
        <time>2019-02-03T09:56:20Z</time>
      </trkpt>
      <trkpt lat="43.33084" lon="5.53128">
        <ele>302.47</ele>
        <time>2019-02-03T09:56:26Z</time>
      </trkpt>
      <trkpt lat="43.33085" lon="5.53121">
        <ele>302.47</ele>
        <time>2019-02-03T09:56:29Z</time>
      </trkpt>
      <trkpt lat="43.33082" lon="5.53104">
        <ele>301.51</ele>
        <time>2019-02-03T09:56:40Z</time>
      </trkpt>
      <trkpt lat="43.3308" lon="5.53091">
        <ele>301.03</ele>
        <time>2019-02-03T09:56:46Z</time>
      </trkpt>
      <trkpt lat="43.33079" lon="5.53085">
        <ele>301.03</ele>
        <time>2019-02-03T09:56:49Z</time>
      </trkpt>
      <trkpt lat="43.33076" lon="5.53071">
        <ele>300.55</ele>
        <time>2019-02-03T09:56:55Z</time>
      </trkpt>
      <trkpt lat="43.33071" lon="5.53058">
        <ele>300.55</ele>
        <time>2019-02-03T09:57:05Z</time>
      </trkpt>
      <trkpt lat="43.33068" lon="5.53041">
        <ele>301.03</ele>
        <time>2019-02-03T09:57:14Z</time>
      </trkpt>
      <trkpt lat="43.33067" lon="5.53039">
        <ele>301.03</ele>
        <time>2019-02-03T09:57:16Z</time>
      </trkpt>
      <trkpt lat="43.33067" lon="5.53023">
        <ele>301.51</ele>
        <time>2019-02-03T09:57:25Z</time>
      </trkpt>
      <trkpt lat="43.33067" lon="5.52995">
        <ele>301.99</ele>
        <time>2019-02-03T09:57:39Z</time>
      </trkpt>
      <trkpt lat="43.33067" lon="5.52984">
        <ele>302.47</ele>
        <time>2019-02-03T09:57:45Z</time>
      </trkpt>
      <trkpt lat="43.33061" lon="5.52975">
        <ele>302.95</ele>
        <time>2019-02-03T09:57:56Z</time>
      </trkpt>
      <trkpt lat="43.33049" lon="5.52958">
        <ele>301.03</ele>
        <time>2019-02-03T09:58:08Z</time>
      </trkpt>
      <trkpt lat="43.33049" lon="5.52957">
        <ele>300.55</ele>
        <time>2019-02-03T09:58:09Z</time>
      </trkpt>
      <trkpt lat="43.33046" lon="5.52951">
        <ele>300.07</ele>
        <time>2019-02-03T09:58:14Z</time>
      </trkpt>
      <trkpt lat="43.33037" lon="5.52942">
        <ele>297.67</ele>
        <time>2019-02-03T09:58:24Z</time>
      </trkpt>
      <trkpt lat="43.33035" lon="5.52939">
        <ele>296.22</ele>
        <time>2019-02-03T09:58:27Z</time>
      </trkpt>
      <trkpt lat="43.3303" lon="5.52931">
        <ele>294.3</ele>
        <time>2019-02-03T09:58:36Z</time>
      </trkpt>
      <trkpt lat="43.33028" lon="5.52928">
        <ele>293.82</ele>
        <time>2019-02-03T09:58:39Z</time>
      </trkpt>
      <trkpt lat="43.33024" lon="5.52918">
        <ele>290.94</ele>
        <time>2019-02-03T09:58:48Z</time>
      </trkpt>
      <trkpt lat="43.33019" lon="5.52909">
        <ele>288.53</ele>
        <time>2019-02-03T09:58:57Z</time>
      </trkpt>
      <trkpt lat="43.33015" lon="5.52904">
        <ele>287.57</ele>
        <time>2019-02-03T09:59:01Z</time>
      </trkpt>
      <trkpt lat="43.33006" lon="5.52897">
        <ele>286.13</ele>
        <time>2019-02-03T09:59:12Z</time>
      </trkpt>
      <trkpt lat="43.33006" lon="5.52897">
        <ele>285.65</ele>
        <time>2019-02-03T09:59:15Z</time>
      </trkpt>
      <trkpt lat="43.33004" lon="5.52891">
        <ele>284.69</ele>
        <time>2019-02-03T09:59:21Z</time>
      </trkpt>
      <trkpt lat="43.32999" lon="5.52884">
        <ele>283.25</ele>
        <time>2019-02-03T09:59:26Z</time>
      </trkpt>
      <trkpt lat="43.32996" lon="5.52878">
        <ele>281.8</ele>
        <time>2019-02-03T09:59:32Z</time>
      </trkpt>
      <trkpt lat="43.32992" lon="5.52874">
        <ele>281.32</ele>
        <time>2019-02-03T09:59:36Z</time>
      </trkpt>
      <trkpt lat="43.32989" lon="5.52862">
        <ele>278.44</ele>
        <time>2019-02-03T09:59:45Z</time>
      </trkpt>
      <trkpt lat="43.32987" lon="5.5286">
        <ele>277.96</ele>
        <time>2019-02-03T09:59:47Z</time>
      </trkpt>
      <trkpt lat="43.32984" lon="5.52855">
        <ele>277</ele>
        <time>2019-02-03T09:59:51Z</time>
      </trkpt>
      <trkpt lat="43.32979" lon="5.52848">
        <ele>275.07</ele>
        <time>2019-02-03T10:00:03Z</time>
      </trkpt>
      <trkpt lat="43.32979" lon="5.52848">
        <ele>275.07</ele>
        <time>2019-02-03T10:00:04Z</time>
      </trkpt>
      <trkpt lat="43.32974" lon="5.52842">
        <ele>273.63</ele>
        <time>2019-02-03T10:00:11Z</time>
      </trkpt>
      <trkpt lat="43.32969" lon="5.52837">
        <ele>272.67</ele>
        <time>2019-02-03T10:00:15Z</time>
      </trkpt>
      <trkpt lat="43.32968" lon="5.52834">
        <ele>272.19</ele>
        <time>2019-02-03T10:00:17Z</time>
      </trkpt>
      <trkpt lat="43.32963" lon="5.52826">
        <ele>270.75</ele>
        <time>2019-02-03T10:00:22Z</time>
      </trkpt>
      <trkpt lat="43.32958" lon="5.52818">
        <ele>269.31</ele>
        <time>2019-02-03T10:00:29Z</time>
      </trkpt>
      <trkpt lat="43.32956" lon="5.52815">
        <ele>268.83</ele>
        <time>2019-02-03T10:00:32Z</time>
      </trkpt>
      <trkpt lat="43.32954" lon="5.52808">
        <ele>268.83</ele>
        <time>2019-02-03T10:00:38Z</time>
      </trkpt>
      <trkpt lat="43.32952" lon="5.52797">
        <ele>266.42</ele>
        <time>2019-02-03T10:00:50Z</time>
      </trkpt>
      <trkpt lat="43.32953" lon="5.52785">
        <ele>264.02</ele>
        <time>2019-02-03T10:01:00Z</time>
      </trkpt>
      <trkpt lat="43.32953" lon="5.52783">
        <ele>264.02</ele>
        <time>2019-02-03T10:01:01Z</time>
      </trkpt>
      <trkpt lat="43.32957" lon="5.52772">
        <ele>260.65</ele>
        <time>2019-02-03T10:01:13Z</time>
      </trkpt>
      <trkpt lat="43.32957" lon="5.52771">
        <ele>261.14</ele>
        <time>2019-02-03T10:01:14Z</time>
      </trkpt>
      <trkpt lat="43.32959" lon="5.52767">
        <ele>260.65</ele>
        <time>2019-02-03T10:01:16Z</time>
      </trkpt>
      <trkpt lat="43.32956" lon="5.52758">
        <ele>259.21</ele>
        <time>2019-02-03T10:01:23Z</time>
      </trkpt>
      <trkpt lat="43.32953" lon="5.52751">
        <ele>259.21</ele>
        <time>2019-02-03T10:01:27Z</time>
      </trkpt>
      <trkpt lat="43.32948" lon="5.5274">
        <ele>259.21</ele>
        <time>2019-02-03T10:01:35Z</time>
      </trkpt>
      <trkpt lat="43.32944" lon="5.52728">
        <ele>257.77</ele>
        <time>2019-02-03T10:01:46Z</time>
      </trkpt>
      <trkpt lat="43.32939" lon="5.52719">
        <ele>257.29</ele>
        <time>2019-02-03T10:01:54Z</time>
      </trkpt>
      <trkpt lat="43.3294" lon="5.52713">
        <ele>256.81</ele>
        <time>2019-02-03T10:01:57Z</time>
      </trkpt>
      <trkpt lat="43.32934" lon="5.527">
        <ele>255.85</ele>
        <time>2019-02-03T10:02:06Z</time>
      </trkpt>
      <trkpt lat="43.32934" lon="5.52697">
        <ele>255.85</ele>
        <time>2019-02-03T10:02:08Z</time>
      </trkpt>
      <trkpt lat="43.32927" lon="5.52681">
        <ele>254.41</ele>
        <time>2019-02-03T10:02:18Z</time>
      </trkpt>
      <trkpt lat="43.32921" lon="5.52667">
        <ele>254.41</ele>
        <time>2019-02-03T10:02:28Z</time>
      </trkpt>
      <trkpt lat="43.32912" lon="5.52653">
        <ele>253.93</ele>
        <time>2019-02-03T10:02:39Z</time>
      </trkpt>
      <trkpt lat="43.32912" lon="5.52652">
        <ele>253.93</ele>
        <time>2019-02-03T10:02:40Z</time>
      </trkpt>
      <trkpt lat="43.3291" lon="5.52646">
        <ele>253.93</ele>
        <time>2019-02-03T10:02:44Z</time>
      </trkpt>
      <trkpt lat="43.32903" lon="5.52638">
        <ele>252.96</ele>
        <time>2019-02-03T10:02:53Z</time>
      </trkpt>
      <trkpt lat="43.32902" lon="5.52635">
        <ele>252.96</ele>
        <time>2019-02-03T10:02:55Z</time>
      </trkpt>
      <trkpt lat="43.32897" lon="5.52625">
        <ele>252</ele>
        <time>2019-02-03T10:03:05Z</time>
      </trkpt>
      <trkpt lat="43.32896" lon="5.52625">
        <ele>252</ele>
        <time>2019-02-03T10:03:26Z</time>
      </trkpt>
      <trkpt lat="43.32896" lon="5.52625">
        <ele>252</ele>
        <time>2019-02-03T10:03:57Z</time>
      </trkpt>
      <trkpt lat="43.32896" lon="5.52625">
        <ele>251.52</ele>
        <time>2019-02-03T10:03:58Z</time>
      </trkpt>
      <trkpt lat="43.32892" lon="5.52617">
        <ele>251.52</ele>
        <time>2019-02-03T10:04:05Z</time>
      </trkpt>
      <trkpt lat="43.3289" lon="5.52615">
        <ele>251.52</ele>
        <time>2019-02-03T10:04:07Z</time>
      </trkpt>
      <trkpt lat="43.32882" lon="5.526">
        <ele>250.08</ele>
        <time>2019-02-03T10:04:16Z</time>
      </trkpt>
      <trkpt lat="43.32879" lon="5.52591">
        <ele>250.08</ele>
        <time>2019-02-03T10:04:23Z</time>
      </trkpt>
      <trkpt lat="43.32877" lon="5.52584">
        <ele>250.08</ele>
        <time>2019-02-03T10:04:27Z</time>
      </trkpt>
      <trkpt lat="43.32872" lon="5.5257">
        <ele>249.12</ele>
        <time>2019-02-03T10:04:33Z</time>
      </trkpt>
      <trkpt lat="43.32868" lon="5.52563">
        <ele>249.12</ele>
        <time>2019-02-03T10:04:37Z</time>
      </trkpt>
      <trkpt lat="43.32862" lon="5.52552">
        <ele>249.12</ele>
        <time>2019-02-03T10:04:47Z</time>
      </trkpt>
      <trkpt lat="43.32862" lon="5.52548">
        <ele>250.08</ele>
        <time>2019-02-03T10:04:49Z</time>
      </trkpt>
      <trkpt lat="43.32862" lon="5.5254">
        <ele>249.6</ele>
        <time>2019-02-03T10:04:53Z</time>
      </trkpt>
      <trkpt lat="43.32861" lon="5.52536">
        <ele>249.6</ele>
        <time>2019-02-03T10:04:55Z</time>
      </trkpt>
      <trkpt lat="43.32857" lon="5.52531">
        <ele>248.64</ele>
        <time>2019-02-03T10:05:00Z</time>
      </trkpt>
      <trkpt lat="43.32849" lon="5.52536">
        <ele>248.64</ele>
        <time>2019-02-03T10:05:08Z</time>
      </trkpt>
      <trkpt lat="43.32838" lon="5.5254">
        <ele>249.12</ele>
        <time>2019-02-03T10:05:15Z</time>
      </trkpt>
      <trkpt lat="43.32833" lon="5.5254">
        <ele>247.68</ele>
        <time>2019-02-03T10:05:21Z</time>
      </trkpt>
      <trkpt lat="43.3283" lon="5.5254">
        <ele>248.16</ele>
        <time>2019-02-03T10:05:24Z</time>
      </trkpt>
      <trkpt lat="43.32819" lon="5.52548">
        <ele>246.23</ele>
        <time>2019-02-03T10:05:35Z</time>
      </trkpt>
      <trkpt lat="43.3282" lon="5.5255">
        <ele>246.72</ele>
        <time>2019-02-03T10:05:39Z</time>
      </trkpt>
      <trkpt lat="43.32823" lon="5.52555">
        <ele>248.64</ele>
        <time>2019-02-03T10:05:48Z</time>
      </trkpt>
      <trkpt lat="43.32824" lon="5.52559">
        <ele>247.2</ele>
        <time>2019-02-03T10:05:52Z</time>
      </trkpt>
      <trkpt lat="43.32824" lon="5.52561">
        <ele>247.68</ele>
        <time>2019-02-03T10:05:54Z</time>
      </trkpt>
      <trkpt lat="43.32827" lon="5.52571">
        <ele>250.56</ele>
        <time>2019-02-03T10:06:03Z</time>
      </trkpt>
      <trkpt lat="43.32827" lon="5.52572">
        <ele>251.04</ele>
        <time>2019-02-03T10:06:05Z</time>
      </trkpt>
      <trkpt lat="43.3283" lon="5.52579">
        <ele>253.93</ele>
        <time>2019-02-03T10:06:17Z</time>
      </trkpt>
      <trkpt lat="43.32833" lon="5.52584">
        <ele>254.89</ele>
        <time>2019-02-03T10:06:27Z</time>
      </trkpt>
      <trkpt lat="43.32835" lon="5.52586">
        <ele>256.33</ele>
        <time>2019-02-03T10:06:30Z</time>
      </trkpt>
      <trkpt lat="43.32837" lon="5.52591">
        <ele>258.25</ele>
        <time>2019-02-03T10:06:36Z</time>
      </trkpt>
      <trkpt lat="43.32841" lon="5.52595">
        <ele>260.17</ele>
        <time>2019-02-03T10:06:46Z</time>
      </trkpt>
      <trkpt lat="43.32842" lon="5.52602">
        <ele>261.62</ele>
        <time>2019-02-03T10:06:57Z</time>
      </trkpt>
      <trkpt lat="43.32844" lon="5.52607">
        <ele>263.54</ele>
        <time>2019-02-03T10:07:06Z</time>
      </trkpt>
      <trkpt lat="43.32844" lon="5.52611">
        <ele>265.46</ele>
        <time>2019-02-03T10:07:13Z</time>
      </trkpt>
      <trkpt lat="43.32844" lon="5.52622">
        <ele>267.38</ele>
        <time>2019-02-03T10:07:22Z</time>
      </trkpt>
      <trkpt lat="43.32843" lon="5.52629">
        <ele>268.83</ele>
        <time>2019-02-03T10:07:33Z</time>
      </trkpt>
      <trkpt lat="43.32845" lon="5.52633">
        <ele>270.75</ele>
        <time>2019-02-03T10:07:44Z</time>
      </trkpt>
      <trkpt lat="43.32846" lon="5.52636">
        <ele>271.23</ele>
        <time>2019-02-03T10:07:54Z</time>
      </trkpt>
      <trkpt lat="43.32849" lon="5.52643">
        <ele>274.11</ele>
        <time>2019-02-03T10:08:04Z</time>
      </trkpt>
      <trkpt lat="43.32851" lon="5.52647">
        <ele>275.56</ele>
        <time>2019-02-03T10:08:14Z</time>
      </trkpt>
      <trkpt lat="43.32853" lon="5.52655">
        <ele>276.52</ele>
        <time>2019-02-03T10:08:21Z</time>
      </trkpt>
      <trkpt lat="43.32856" lon="5.52656">
        <ele>277</ele>
        <time>2019-02-03T10:08:24Z</time>
      </trkpt>
      <trkpt lat="43.32859" lon="5.52661">
        <ele>278.44</ele>
        <time>2019-02-03T10:08:28Z</time>
      </trkpt>
      <trkpt lat="43.3286" lon="5.52666">
        <ele>279.4</ele>
        <time>2019-02-03T10:08:32Z</time>
      </trkpt>
      <trkpt lat="43.32859" lon="5.52668">
        <ele>280.36</ele>
        <time>2019-02-03T10:08:44Z</time>
      </trkpt>
      <trkpt lat="43.32859" lon="5.52669">
        <ele>280.84</ele>
        <time>2019-02-03T10:08:47Z</time>
      </trkpt>
      <trkpt lat="43.3285" lon="5.52672">
        <ele>283.25</ele>
        <time>2019-02-03T10:08:57Z</time>
      </trkpt>
      <trkpt lat="43.32844" lon="5.52677">
        <ele>285.17</ele>
        <time>2019-02-03T10:09:05Z</time>
      </trkpt>
      <trkpt lat="43.32842" lon="5.5268">
        <ele>285.65</ele>
        <time>2019-02-03T10:09:14Z</time>
      </trkpt>
      <trkpt lat="43.32837" lon="5.52681">
        <ele>287.57</ele>
        <time>2019-02-03T10:09:24Z</time>
      </trkpt>
      <trkpt lat="43.3283" lon="5.52682">
        <ele>289.49</ele>
        <time>2019-02-03T10:09:37Z</time>
      </trkpt>
      <trkpt lat="43.3283" lon="5.52682">
        <ele>288.53</ele>
        <time>2019-02-03T10:09:45Z</time>
      </trkpt>
      <trkpt lat="43.32827" lon="5.52682">
        <ele>291.42</ele>
        <time>2019-02-03T10:09:53Z</time>
      </trkpt>
      <trkpt lat="43.32824" lon="5.52682">
        <ele>291.9</ele>
        <time>2019-02-03T10:09:56Z</time>
      </trkpt>
      <trkpt lat="43.32821" lon="5.52685">
        <ele>294.3</ele>
        <time>2019-02-03T10:10:07Z</time>
      </trkpt>
      <trkpt lat="43.32817" lon="5.52684">
        <ele>295.26</ele>
        <time>2019-02-03T10:10:19Z</time>
      </trkpt>
      <trkpt lat="43.32808" lon="5.52682">
        <ele>297.18</ele>
        <time>2019-02-03T10:10:28Z</time>
      </trkpt>
      <trkpt lat="43.32806" lon="5.52681">
        <ele>297.67</ele>
        <time>2019-02-03T10:10:38Z</time>
      </trkpt>
      <trkpt lat="43.328" lon="5.52681">
        <ele>298.15</ele>
        <time>2019-02-03T10:10:46Z</time>
      </trkpt>
      <trkpt lat="43.32793" lon="5.5268">
        <ele>300.07</ele>
        <time>2019-02-03T10:10:52Z</time>
      </trkpt>
      <trkpt lat="43.32787" lon="5.52676">
        <ele>301.03</ele>
        <time>2019-02-03T10:11:03Z</time>
      </trkpt>
      <trkpt lat="43.32785" lon="5.52674">
        <ele>301.51</ele>
        <time>2019-02-03T10:11:04Z</time>
      </trkpt>
      <trkpt lat="43.32777" lon="5.52672">
        <ele>301.99</ele>
        <time>2019-02-03T10:11:15Z</time>
      </trkpt>
      <trkpt lat="43.32776" lon="5.52671">
        <ele>301.99</ele>
        <time>2019-02-03T10:11:16Z</time>
      </trkpt>
      <trkpt lat="43.32761" lon="5.52673">
        <ele>302.95</ele>
        <time>2019-02-03T10:11:27Z</time>
      </trkpt>
      <trkpt lat="43.32759" lon="5.52674">
        <ele>303.43</ele>
        <time>2019-02-03T10:11:29Z</time>
      </trkpt>
      <trkpt lat="43.32756" lon="5.52676">
        <ele>304.88</ele>
        <time>2019-02-03T10:11:33Z</time>
      </trkpt>
      <trkpt lat="43.32749" lon="5.52679">
        <ele>305.84</ele>
        <time>2019-02-03T10:11:44Z</time>
      </trkpt>
      <trkpt lat="43.32745" lon="5.52681">
        <ele>307.28</ele>
        <time>2019-02-03T10:11:52Z</time>
      </trkpt>
      <trkpt lat="43.3274" lon="5.52682">
        <ele>307.28</ele>
        <time>2019-02-03T10:12:00Z</time>
      </trkpt>
      <trkpt lat="43.32728" lon="5.52682">
        <ele>307.28</ele>
        <time>2019-02-03T10:12:09Z</time>
      </trkpt>
      <trkpt lat="43.32724" lon="5.52683">
        <ele>307.76</ele>
        <time>2019-02-03T10:12:13Z</time>
      </trkpt>
      <trkpt lat="43.32717" lon="5.52686">
        <ele>308.24</ele>
        <time>2019-02-03T10:12:21Z</time>
      </trkpt>
      <trkpt lat="43.32711" lon="5.5269">
        <ele>308.72</ele>
        <time>2019-02-03T10:12:26Z</time>
      </trkpt>
      <trkpt lat="43.32707" lon="5.52693">
        <ele>308.24</ele>
        <time>2019-02-03T10:12:30Z</time>
      </trkpt>
      <trkpt lat="43.32704" lon="5.52696">
        <ele>307.76</ele>
        <time>2019-02-03T10:12:34Z</time>
      </trkpt>
      <trkpt lat="43.32698" lon="5.52703">
        <ele>306.32</ele>
        <time>2019-02-03T10:12:42Z</time>
      </trkpt>
      <trkpt lat="43.32691" lon="5.52707">
        <ele>306.32</ele>
        <time>2019-02-03T10:12:53Z</time>
      </trkpt>
      <trkpt lat="43.32687" lon="5.52709">
        <ele>306.32</ele>
        <time>2019-02-03T10:13:00Z</time>
      </trkpt>
      <trkpt lat="43.32682" lon="5.52709">
        <ele>307.28</ele>
        <time>2019-02-03T10:13:07Z</time>
      </trkpt>
      <trkpt lat="43.32673" lon="5.5271">
        <ele>309.2</ele>
        <time>2019-02-03T10:13:15Z</time>
      </trkpt>
      <trkpt lat="43.3267" lon="5.52707">
        <ele>308.72</ele>
        <time>2019-02-03T10:13:19Z</time>
      </trkpt>
      <trkpt lat="43.32668" lon="5.52707">
        <ele>309.2</ele>
        <time>2019-02-03T10:13:21Z</time>
      </trkpt>
      <trkpt lat="43.32663" lon="5.5271">
        <ele>309.68</ele>
        <time>2019-02-03T10:13:29Z</time>
      </trkpt>
      <trkpt lat="43.32655" lon="5.52715">
        <ele>311.6</ele>
        <time>2019-02-03T10:13:38Z</time>
      </trkpt>
      <trkpt lat="43.32652" lon="5.52717">
        <ele>312.09</ele>
        <time>2019-02-03T10:13:42Z</time>
      </trkpt>
      <trkpt lat="43.32643" lon="5.52719">
        <ele>314.01</ele>
        <time>2019-02-03T10:13:54Z</time>
      </trkpt>
      <trkpt lat="43.32641" lon="5.52718">
        <ele>314.49</ele>
        <time>2019-02-03T10:13:56Z</time>
      </trkpt>
      <trkpt lat="43.32635" lon="5.52715">
        <ele>314.97</ele>
        <time>2019-02-03T10:14:01Z</time>
      </trkpt>
      <trkpt lat="43.32629" lon="5.52712">
        <ele>314.97</ele>
        <time>2019-02-03T10:14:08Z</time>
      </trkpt>
      <trkpt lat="43.32625" lon="5.5271">
        <ele>314.97</ele>
        <time>2019-02-03T10:14:11Z</time>
      </trkpt>
      <trkpt lat="43.32619" lon="5.52707">
        <ele>314.97</ele>
        <time>2019-02-03T10:14:17Z</time>
      </trkpt>
      <trkpt lat="43.32616" lon="5.52705">
        <ele>315.45</ele>
        <time>2019-02-03T10:14:20Z</time>
      </trkpt>
      <trkpt lat="43.32606" lon="5.52699">
        <ele>316.41</ele>
        <time>2019-02-03T10:14:31Z</time>
      </trkpt>
      <trkpt lat="43.326" lon="5.52695">
        <ele>316.41</ele>
        <time>2019-02-03T10:14:38Z</time>
      </trkpt>
      <trkpt lat="43.32582" lon="5.52694">
        <ele>317.37</ele>
        <time>2019-02-03T10:14:49Z</time>
      </trkpt>
      <trkpt lat="43.32581" lon="5.52693">
        <ele>317.37</ele>
        <time>2019-02-03T10:14:51Z</time>
      </trkpt>
      <trkpt lat="43.32576" lon="5.52692">
        <ele>318.81</ele>
        <time>2019-02-03T10:14:56Z</time>
      </trkpt>
      <trkpt lat="43.32572" lon="5.52693">
        <ele>319.3</ele>
        <time>2019-02-03T10:15:00Z</time>
      </trkpt>
      <trkpt lat="43.32568" lon="5.52692">
        <ele>320.26</ele>
        <time>2019-02-03T10:15:04Z</time>
      </trkpt>
      <trkpt lat="43.32565" lon="5.52691">
        <ele>320.26</ele>
        <time>2019-02-03T10:15:08Z</time>
      </trkpt>
      <trkpt lat="43.3256" lon="5.52689">
        <ele>320.26</ele>
        <time>2019-02-03T10:15:12Z</time>
      </trkpt>
      <trkpt lat="43.32558" lon="5.52687">
        <ele>319.3</ele>
        <time>2019-02-03T10:15:14Z</time>
      </trkpt>
      <trkpt lat="43.32552" lon="5.52682">
        <ele>318.81</ele>
        <time>2019-02-03T10:15:18Z</time>
      </trkpt>
      <trkpt lat="43.32537" lon="5.52674">
        <ele>318.81</ele>
        <time>2019-02-03T10:15:31Z</time>
      </trkpt>
      <trkpt lat="43.32526" lon="5.52673">
        <ele>321.22</ele>
        <time>2019-02-03T10:15:40Z</time>
      </trkpt>
      <trkpt lat="43.3252" lon="5.52671">
        <ele>320.74</ele>
        <time>2019-02-03T10:15:46Z</time>
      </trkpt>
      <trkpt lat="43.3251" lon="5.52675">
        <ele>322.18</ele>
        <time>2019-02-03T10:15:57Z</time>
      </trkpt>
      <trkpt lat="43.32504" lon="5.52677">
        <ele>322.18</ele>
        <time>2019-02-03T10:16:04Z</time>
      </trkpt>
      <trkpt lat="43.32498" lon="5.52678">
        <ele>322.18</ele>
        <time>2019-02-03T10:16:09Z</time>
      </trkpt>
      <trkpt lat="43.32492" lon="5.52677">
        <ele>323.62</ele>
        <time>2019-02-03T10:16:13Z</time>
      </trkpt>
      <trkpt lat="43.32478" lon="5.52683">
        <ele>323.14</ele>
        <time>2019-02-03T10:16:25Z</time>
      </trkpt>
      <trkpt lat="43.32472" lon="5.52685">
        <ele>322.66</ele>
        <time>2019-02-03T10:16:30Z</time>
      </trkpt>
      <trkpt lat="43.32467" lon="5.5269">
        <ele>322.18</ele>
        <time>2019-02-03T10:16:35Z</time>
      </trkpt>
      <trkpt lat="43.32461" lon="5.52697">
        <ele>322.18</ele>
        <time>2019-02-03T10:16:42Z</time>
      </trkpt>
      <trkpt lat="43.3246" lon="5.52701">
        <ele>322.66</ele>
        <time>2019-02-03T10:16:44Z</time>
      </trkpt>
      <trkpt lat="43.32454" lon="5.52707">
        <ele>322.66</ele>
        <time>2019-02-03T10:16:53Z</time>
      </trkpt>
      <trkpt lat="43.32451" lon="5.52708">
        <ele>322.66</ele>
        <time>2019-02-03T10:16:55Z</time>
      </trkpt>
      <trkpt lat="43.32443" lon="5.52709">
        <ele>323.62</ele>
        <time>2019-02-03T10:17:07Z</time>
      </trkpt>
      <trkpt lat="43.32441" lon="5.5271">
        <ele>323.62</ele>
        <time>2019-02-03T10:17:09Z</time>
      </trkpt>
      <trkpt lat="43.32436" lon="5.52712">
        <ele>323.62</ele>
        <time>2019-02-03T10:17:14Z</time>
      </trkpt>
      <trkpt lat="43.32427" lon="5.52713">
        <ele>322.66</ele>
        <time>2019-02-03T10:17:21Z</time>
      </trkpt>
      <trkpt lat="43.32424" lon="5.52714">
        <ele>323.14</ele>
        <time>2019-02-03T10:17:24Z</time>
      </trkpt>
      <trkpt lat="43.32418" lon="5.52713">
        <ele>322.18</ele>
        <time>2019-02-03T10:17:30Z</time>
      </trkpt>
      <trkpt lat="43.32412" lon="5.52713">
        <ele>322.66</ele>
        <time>2019-02-03T10:17:36Z</time>
      </trkpt>
      <trkpt lat="43.32406" lon="5.52713">
        <ele>323.62</ele>
        <time>2019-02-03T10:17:41Z</time>
      </trkpt>
      <trkpt lat="43.32401" lon="5.52716">
        <ele>324.58</ele>
        <time>2019-02-03T10:17:46Z</time>
      </trkpt>
      <trkpt lat="43.32395" lon="5.52719">
        <ele>324.58</ele>
        <time>2019-02-03T10:17:52Z</time>
      </trkpt>
      <trkpt lat="43.3239" lon="5.52719">
        <ele>324.1</ele>
        <time>2019-02-03T10:17:56Z</time>
      </trkpt>
      <trkpt lat="43.32387" lon="5.5272">
        <ele>324.1</ele>
        <time>2019-02-03T10:17:58Z</time>
      </trkpt>
      <trkpt lat="43.32378" lon="5.52723">
        <ele>325.06</ele>
        <time>2019-02-03T10:18:07Z</time>
      </trkpt>
      <trkpt lat="43.3237" lon="5.52726">
        <ele>326.5</ele>
        <time>2019-02-03T10:18:14Z</time>
      </trkpt>
      <trkpt lat="43.32366" lon="5.52726">
        <ele>327.95</ele>
        <time>2019-02-03T10:18:19Z</time>
      </trkpt>
      <trkpt lat="43.32361" lon="5.52732">
        <ele>327.95</ele>
        <time>2019-02-03T10:18:29Z</time>
      </trkpt>
      <trkpt lat="43.32358" lon="5.52736">
        <ele>327.47</ele>
        <time>2019-02-03T10:18:32Z</time>
      </trkpt>
      <trkpt lat="43.32351" lon="5.52741">
        <ele>326.5</ele>
        <time>2019-02-03T10:18:39Z</time>
      </trkpt>
      <trkpt lat="43.32349" lon="5.52743">
        <ele>326.99</ele>
        <time>2019-02-03T10:18:41Z</time>
      </trkpt>
      <trkpt lat="43.3234" lon="5.5275">
        <ele>326.02</ele>
        <time>2019-02-03T10:18:49Z</time>
      </trkpt>
      <trkpt lat="43.32334" lon="5.52754">
        <ele>325.06</ele>
        <time>2019-02-03T10:18:54Z</time>
      </trkpt>
      <trkpt lat="43.32327" lon="5.52757">
        <ele>325.06</ele>
        <time>2019-02-03T10:19:01Z</time>
      </trkpt>
      <trkpt lat="43.32315" lon="5.52766">
        <ele>322.66</ele>
        <time>2019-02-03T10:19:13Z</time>
      </trkpt>
      <trkpt lat="43.32307" lon="5.52767">
        <ele>321.7</ele>
        <time>2019-02-03T10:19:19Z</time>
      </trkpt>
      <trkpt lat="43.32299" lon="5.52769">
        <ele>320.26</ele>
        <time>2019-02-03T10:19:25Z</time>
      </trkpt>
      <trkpt lat="43.32293" lon="5.52772">
        <ele>320.26</ele>
        <time>2019-02-03T10:19:30Z</time>
      </trkpt>
      <trkpt lat="43.32284" lon="5.52784">
        <ele>318.81</ele>
        <time>2019-02-03T10:19:39Z</time>
      </trkpt>
      <trkpt lat="43.32275" lon="5.52793">
        <ele>316.89</ele>
        <time>2019-02-03T10:19:47Z</time>
      </trkpt>
      <trkpt lat="43.32268" lon="5.52794">
        <ele>315.45</ele>
        <time>2019-02-03T10:19:54Z</time>
      </trkpt>
      <trkpt lat="43.32265" lon="5.52796">
        <ele>314.97</ele>
        <time>2019-02-03T10:19:57Z</time>
      </trkpt>
      <trkpt lat="43.32263" lon="5.52802">
        <ele>314.01</ele>
        <time>2019-02-03T10:20:02Z</time>
      </trkpt>
      <trkpt lat="43.32258" lon="5.52813">
        <ele>312.09</ele>
        <time>2019-02-03T10:20:11Z</time>
      </trkpt>
      <trkpt lat="43.32255" lon="5.52817">
        <ele>311.12</ele>
        <time>2019-02-03T10:20:14Z</time>
      </trkpt>
      <trkpt lat="43.32251" lon="5.52821">
        <ele>310.16</ele>
        <time>2019-02-03T10:20:19Z</time>
      </trkpt>
      <trkpt lat="43.32244" lon="5.52827">
        <ele>309.2</ele>
        <time>2019-02-03T10:20:27Z</time>
      </trkpt>
      <trkpt lat="43.32238" lon="5.52842">
        <ele>310.16</ele>
        <time>2019-02-03T10:20:36Z</time>
      </trkpt>
      <trkpt lat="43.32237" lon="5.52861">
        <ele>309.2</ele>
        <time>2019-02-03T10:20:47Z</time>
      </trkpt>
      <trkpt lat="43.32236" lon="5.52875">
        <ele>307.28</ele>
        <time>2019-02-03T10:20:54Z</time>
      </trkpt>
      <trkpt lat="43.32234" lon="5.5288">
        <ele>307.28</ele>
        <time>2019-02-03T10:20:58Z</time>
      </trkpt>
      <trkpt lat="43.3222" lon="5.52882">
        <ele>307.76</ele>
        <time>2019-02-03T10:21:08Z</time>
      </trkpt>
      <trkpt lat="43.32216" lon="5.5288">
        <ele>307.76</ele>
        <time>2019-02-03T10:21:22Z</time>
      </trkpt>
      <trkpt lat="43.32213" lon="5.5288">
        <ele>307.76</ele>
        <time>2019-02-03T10:21:24Z</time>
      </trkpt>
      <trkpt lat="43.32207" lon="5.52879">
        <ele>307.76</ele>
        <time>2019-02-03T10:21:29Z</time>
      </trkpt>
      <trkpt lat="43.32205" lon="5.52879">
        <ele>308.24</ele>
        <time>2019-02-03T10:21:31Z</time>
      </trkpt>
      <trkpt lat="43.32192" lon="5.52879">
        <ele>308.72</ele>
        <time>2019-02-03T10:21:42Z</time>
      </trkpt>
      <trkpt lat="43.32185" lon="5.52881">
        <ele>309.2</ele>
        <time>2019-02-03T10:21:49Z</time>
      </trkpt>
      <trkpt lat="43.32177" lon="5.52883">
        <ele>309.2</ele>
        <time>2019-02-03T10:21:57Z</time>
      </trkpt>
      <trkpt lat="43.32171" lon="5.52884">
        <ele>309.68</ele>
        <time>2019-02-03T10:22:03Z</time>
      </trkpt>
      <trkpt lat="43.32164" lon="5.52888">
        <ele>311.6</ele>
        <time>2019-02-03T10:22:10Z</time>
      </trkpt>
      <trkpt lat="43.32156" lon="5.52893">
        <ele>311.6</ele>
        <time>2019-02-03T10:22:20Z</time>
      </trkpt>
      <trkpt lat="43.32149" lon="5.52899">
        <ele>311.12</ele>
        <time>2019-02-03T10:22:30Z</time>
      </trkpt>
      <trkpt lat="43.32141" lon="5.52908">
        <ele>313.53</ele>
        <time>2019-02-03T10:22:38Z</time>
      </trkpt>
      <trkpt lat="43.32139" lon="5.5291">
        <ele>313.05</ele>
        <time>2019-02-03T10:22:40Z</time>
      </trkpt>
      <trkpt lat="43.32136" lon="5.52912">
        <ele>309.2</ele>
        <time>2019-02-03T10:22:43Z</time>
      </trkpt>
      <trkpt lat="43.32135" lon="5.52913">
        <ele>313.05</ele>
        <time>2019-02-03T10:22:44Z</time>
      </trkpt>
      <trkpt lat="43.32133" lon="5.52914">
        <ele>313.05</ele>
        <time>2019-02-03T10:22:46Z</time>
      </trkpt>
      <trkpt lat="43.32132" lon="5.52915">
        <ele>313.05</ele>
        <time>2019-02-03T10:22:47Z</time>
      </trkpt>
      <trkpt lat="43.32128" lon="5.5292">
        <ele>309.68</ele>
        <time>2019-02-03T10:22:51Z</time>
      </trkpt>
      <trkpt lat="43.32128" lon="5.5292">
        <ele>316.89</ele>
        <time>2019-02-03T10:22:52Z</time>
      </trkpt>
      <trkpt lat="43.32127" lon="5.52921">
        <ele>314.01</ele>
        <time>2019-02-03T10:22:53Z</time>
      </trkpt>
      <trkpt lat="43.32126" lon="5.52921">
        <ele>313.53</ele>
        <time>2019-02-03T10:22:54Z</time>
      </trkpt>
      <trkpt lat="43.32118" lon="5.52927">
        <ele>314.97</ele>
        <time>2019-02-03T10:23:03Z</time>
      </trkpt>
      <trkpt lat="43.32114" lon="5.52931">
        <ele>315.93</ele>
        <time>2019-02-03T10:23:07Z</time>
      </trkpt>
      <trkpt lat="43.32109" lon="5.52935">
        <ele>316.89</ele>
        <time>2019-02-03T10:23:12Z</time>
      </trkpt>
      <trkpt lat="43.32103" lon="5.52941">
        <ele>317.85</ele>
        <time>2019-02-03T10:23:19Z</time>
      </trkpt>
      <trkpt lat="43.32092" lon="5.52959">
        <ele>319.3</ele>
        <time>2019-02-03T10:23:33Z</time>
      </trkpt>
      <trkpt lat="43.3209" lon="5.52963">
        <ele>319.78</ele>
        <time>2019-02-03T10:23:37Z</time>
      </trkpt>
      <trkpt lat="43.32087" lon="5.52969">
        <ele>319.78</ele>
        <time>2019-02-03T10:23:43Z</time>
      </trkpt>
      <trkpt lat="43.32086" lon="5.52972">
        <ele>320.26</ele>
        <time>2019-02-03T10:23:45Z</time>
      </trkpt>
      <trkpt lat="43.32084" lon="5.52979">
        <ele>320.74</ele>
        <time>2019-02-03T10:23:49Z</time>
      </trkpt>
      <trkpt lat="43.3208" lon="5.52988">
        <ele>321.22</ele>
        <time>2019-02-03T10:23:54Z</time>
      </trkpt>
      <trkpt lat="43.3207" lon="5.53009">
        <ele>322.18</ele>
        <time>2019-02-03T10:24:06Z</time>
      </trkpt>
      <trkpt lat="43.32068" lon="5.53014">
        <ele>321.22</ele>
        <time>2019-02-03T10:24:10Z</time>
      </trkpt>
      <trkpt lat="43.32062" lon="5.5303">
        <ele>319.78</ele>
        <time>2019-02-03T10:24:22Z</time>
      </trkpt>
      <trkpt lat="43.32058" lon="5.53034">
        <ele>320.26</ele>
        <time>2019-02-03T10:24:26Z</time>
      </trkpt>
      <trkpt lat="43.32052" lon="5.53038">
        <ele>318.81</ele>
        <time>2019-02-03T10:24:31Z</time>
      </trkpt>
      <trkpt lat="43.32048" lon="5.53039">
        <ele>317.85</ele>
        <time>2019-02-03T10:24:35Z</time>
      </trkpt>
      <trkpt lat="43.3204" lon="5.53044">
        <ele>316.41</ele>
        <time>2019-02-03T10:24:42Z</time>
      </trkpt>
      <trkpt lat="43.32029" lon="5.53052">
        <ele>314.01</ele>
        <time>2019-02-03T10:24:52Z</time>
      </trkpt>
      <trkpt lat="43.32018" lon="5.53053">
        <ele>312.09</ele>
        <time>2019-02-03T10:25:02Z</time>
      </trkpt>
      <trkpt lat="43.32015" lon="5.53051">
        <ele>311.6</ele>
        <time>2019-02-03T10:25:05Z</time>
      </trkpt>
      <trkpt lat="43.32003" lon="5.53045">
        <ele>311.12</ele>
        <time>2019-02-03T10:25:16Z</time>
      </trkpt>
      <trkpt lat="43.32002" lon="5.53044">
        <ele>310.64</ele>
        <time>2019-02-03T10:25:19Z</time>
      </trkpt>
      <trkpt lat="43.31994" lon="5.53041">
        <ele>309.68</ele>
        <time>2019-02-03T10:25:30Z</time>
      </trkpt>
      <trkpt lat="43.31985" lon="5.53042">
        <ele>307.76</ele>
        <time>2019-02-03T10:25:39Z</time>
      </trkpt>
      <trkpt lat="43.31979" lon="5.53041">
        <ele>306.8</ele>
        <time>2019-02-03T10:25:42Z</time>
      </trkpt>
      <trkpt lat="43.31964" lon="5.53046">
        <ele>304.39</ele>
        <time>2019-02-03T10:25:53Z</time>
      </trkpt>
      <trkpt lat="43.31956" lon="5.53056">
        <ele>301.51</ele>
        <time>2019-02-03T10:26:06Z</time>
      </trkpt>
      <trkpt lat="43.31954" lon="5.53057">
        <ele>301.03</ele>
        <time>2019-02-03T10:26:10Z</time>
      </trkpt>
      <trkpt lat="43.31945" lon="5.5307">
        <ele>298.15</ele>
        <time>2019-02-03T10:26:20Z</time>
      </trkpt>
      <trkpt lat="43.31944" lon="5.5307">
        <ele>297.67</ele>
        <time>2019-02-03T10:26:23Z</time>
      </trkpt>
      <trkpt lat="43.31936" lon="5.53061">
        <ele>297.67</ele>
        <time>2019-02-03T10:26:34Z</time>
      </trkpt>
      <trkpt lat="43.31932" lon="5.53055">
        <ele>298.15</ele>
        <time>2019-02-03T10:26:39Z</time>
      </trkpt>
      <trkpt lat="43.31929" lon="5.53052">
        <ele>296.7</ele>
        <time>2019-02-03T10:26:45Z</time>
      </trkpt>
      <trkpt lat="43.31917" lon="5.53055">
        <ele>294.78</ele>
        <time>2019-02-03T10:26:53Z</time>
      </trkpt>
      <trkpt lat="43.319" lon="5.53057">
        <ele>292.86</ele>
        <time>2019-02-03T10:27:06Z</time>
      </trkpt>
      <trkpt lat="43.3189" lon="5.5306">
        <ele>292.38</ele>
        <time>2019-02-03T10:27:14Z</time>
      </trkpt>
      <trkpt lat="43.31887" lon="5.53062">
        <ele>292.38</ele>
        <time>2019-02-03T10:27:16Z</time>
      </trkpt>
      <trkpt lat="43.31872" lon="5.53072">
        <ele>289.97</ele>
        <time>2019-02-03T10:27:29Z</time>
      </trkpt>
      <trkpt lat="43.31866" lon="5.53085">
        <ele>288.05</ele>
        <time>2019-02-03T10:27:38Z</time>
      </trkpt>
      <trkpt lat="43.31864" lon="5.53095">
        <ele>287.09</ele>
        <time>2019-02-03T10:27:42Z</time>
      </trkpt>
      <trkpt lat="43.31862" lon="5.5312">
        <ele>285.65</ele>
        <time>2019-02-03T10:27:54Z</time>
      </trkpt>
      <trkpt lat="43.31862" lon="5.53122">
        <ele>285.65</ele>
        <time>2019-02-03T10:27:56Z</time>
      </trkpt>
      <trkpt lat="43.31853" lon="5.53138">
        <ele>283.73</ele>
        <time>2019-02-03T10:28:08Z</time>
      </trkpt>
      <trkpt lat="43.31849" lon="5.53141">
        <ele>282.77</ele>
        <time>2019-02-03T10:28:11Z</time>
      </trkpt>
      <trkpt lat="43.3184" lon="5.53145">
        <ele>279.88</ele>
        <time>2019-02-03T10:28:23Z</time>
      </trkpt>
      <trkpt lat="43.31839" lon="5.53144">
        <ele>279.88</ele>
        <time>2019-02-03T10:28:24Z</time>
      </trkpt>
      <trkpt lat="43.31826" lon="5.53133">
        <ele>278.44</ele>
        <time>2019-02-03T10:28:36Z</time>
      </trkpt>
      <trkpt lat="43.31825" lon="5.53131">
        <ele>278.44</ele>
        <time>2019-02-03T10:28:38Z</time>
      </trkpt>
      <trkpt lat="43.31821" lon="5.53112">
        <ele>276.52</ele>
        <time>2019-02-03T10:28:52Z</time>
      </trkpt>
      <trkpt lat="43.31812" lon="5.53089">
        <ele>276.04</ele>
        <time>2019-02-03T10:29:04Z</time>
      </trkpt>
      <trkpt lat="43.31803" lon="5.53084">
        <ele>276.04</ele>
        <time>2019-02-03T10:29:12Z</time>
      </trkpt>
      <trkpt lat="43.31797" lon="5.53084">
        <ele>275.56</ele>
        <time>2019-02-03T10:29:17Z</time>
      </trkpt>
      <trkpt lat="43.31788" lon="5.53089">
        <ele>275.56</ele>
        <time>2019-02-03T10:29:26Z</time>
      </trkpt>
      <trkpt lat="43.31787" lon="5.53089">
        <ele>275.56</ele>
        <time>2019-02-03T10:29:27Z</time>
      </trkpt>
      <trkpt lat="43.31778" lon="5.53089">
        <ele>275.56</ele>
        <time>2019-02-03T10:29:40Z</time>
      </trkpt>
      <trkpt lat="43.31772" lon="5.5309">
        <ele>275.07</ele>
        <time>2019-02-03T10:29:45Z</time>
      </trkpt>
      <trkpt lat="43.31762" lon="5.53097">
        <ele>274.59</ele>
        <time>2019-02-03T10:29:57Z</time>
      </trkpt>
      <trkpt lat="43.3176" lon="5.531">
        <ele>275.07</ele>
        <time>2019-02-03T10:29:59Z</time>
      </trkpt>
      <trkpt lat="43.31757" lon="5.53107">
        <ele>275.07</ele>
        <time>2019-02-03T10:30:03Z</time>
      </trkpt>
      <trkpt lat="43.31753" lon="5.53117">
        <ele>275.07</ele>
        <time>2019-02-03T10:30:07Z</time>
      </trkpt>
      <trkpt lat="43.31748" lon="5.53134">
        <ele>275.07</ele>
        <time>2019-02-03T10:30:16Z</time>
      </trkpt>
      <trkpt lat="43.31744" lon="5.5315">
        <ele>275.07</ele>
        <time>2019-02-03T10:30:25Z</time>
      </trkpt>
      <trkpt lat="43.31742" lon="5.5316">
        <ele>276.04</ele>
        <time>2019-02-03T10:30:30Z</time>
      </trkpt>
      <trkpt lat="43.31741" lon="5.53162">
        <ele>276.04</ele>
        <time>2019-02-03T10:30:33Z</time>
      </trkpt>
      <trkpt lat="43.31733" lon="5.53176">
        <ele>276.52</ele>
        <time>2019-02-03T10:30:43Z</time>
      </trkpt>
      <trkpt lat="43.31731" lon="5.53178">
        <ele>276.04</ele>
        <time>2019-02-03T10:30:47Z</time>
      </trkpt>
      <trkpt lat="43.31728" lon="5.53183">
        <ele>276.04</ele>
        <time>2019-02-03T10:30:50Z</time>
      </trkpt>
      <trkpt lat="43.31724" lon="5.5319">
        <ele>276.04</ele>
        <time>2019-02-03T10:30:54Z</time>
      </trkpt>
      <trkpt lat="43.31719" lon="5.53202">
        <ele>276.04</ele>
        <time>2019-02-03T10:31:04Z</time>
      </trkpt>
      <trkpt lat="43.31716" lon="5.53212">
        <ele>276.04</ele>
        <time>2019-02-03T10:31:10Z</time>
      </trkpt>
      <trkpt lat="43.31713" lon="5.53217">
        <ele>276.04</ele>
        <time>2019-02-03T10:31:15Z</time>
      </trkpt>
      <trkpt lat="43.31704" lon="5.53223">
        <ele>276.04</ele>
        <time>2019-02-03T10:31:27Z</time>
      </trkpt>
      <trkpt lat="43.31701" lon="5.5323">
        <ele>276.04</ele>
        <time>2019-02-03T10:31:36Z</time>
      </trkpt>
      <trkpt lat="43.31696" lon="5.53233">
        <ele>277.48</ele>
        <time>2019-02-03T10:31:43Z</time>
      </trkpt>
      <trkpt lat="43.31694" lon="5.53242">
        <ele>277</ele>
        <time>2019-02-03T10:31:49Z</time>
      </trkpt>
      <trkpt lat="43.31687" lon="5.5325">
        <ele>276.52</ele>
        <time>2019-02-03T10:31:55Z</time>
      </trkpt>
      <trkpt lat="43.31681" lon="5.53256">
        <ele>277</ele>
        <time>2019-02-03T10:32:02Z</time>
      </trkpt>
      <trkpt lat="43.31672" lon="5.53262">
        <ele>277</ele>
        <time>2019-02-03T10:32:12Z</time>
      </trkpt>
      <trkpt lat="43.31663" lon="5.53268">
        <ele>277.48</ele>
        <time>2019-02-03T10:32:20Z</time>
      </trkpt>
      <trkpt lat="43.31657" lon="5.53276">
        <ele>277.48</ele>
        <time>2019-02-03T10:32:27Z</time>
      </trkpt>
      <trkpt lat="43.31657" lon="5.53289">
        <ele>277</ele>
        <time>2019-02-03T10:32:34Z</time>
      </trkpt>
      <trkpt lat="43.31659" lon="5.53309">
        <ele>277.48</ele>
        <time>2019-02-03T10:32:45Z</time>
      </trkpt>
      <trkpt lat="43.31659" lon="5.53312">
        <ele>277</ele>
        <time>2019-02-03T10:32:47Z</time>
      </trkpt>
      <trkpt lat="43.31659" lon="5.53326">
        <ele>276.52</ele>
        <time>2019-02-03T10:32:57Z</time>
      </trkpt>
      <trkpt lat="43.31664" lon="5.53347">
        <ele>277.48</ele>
        <time>2019-02-03T10:33:07Z</time>
      </trkpt>
      <trkpt lat="43.31666" lon="5.53358">
        <ele>278.44</ele>
        <time>2019-02-03T10:33:13Z</time>
      </trkpt>
      <trkpt lat="43.3167" lon="5.53365">
        <ele>279.4</ele>
        <time>2019-02-03T10:33:17Z</time>
      </trkpt>
      <trkpt lat="43.31672" lon="5.53379">
        <ele>278.92</ele>
        <time>2019-02-03T10:33:26Z</time>
      </trkpt>
      <trkpt lat="43.31676" lon="5.53389">
        <ele>277.96</ele>
        <time>2019-02-03T10:33:32Z</time>
      </trkpt>
      <trkpt lat="43.31679" lon="5.53399">
        <ele>279.4</ele>
        <time>2019-02-03T10:33:40Z</time>
      </trkpt>
      <trkpt lat="43.3168" lon="5.53406">
        <ele>279.88</ele>
        <time>2019-02-03T10:33:43Z</time>
      </trkpt>
      <trkpt lat="43.31681" lon="5.5342">
        <ele>280.36</ele>
        <time>2019-02-03T10:33:52Z</time>
      </trkpt>
      <trkpt lat="43.31681" lon="5.53426">
        <ele>280.36</ele>
        <time>2019-02-03T10:33:55Z</time>
      </trkpt>
      <trkpt lat="43.3168" lon="5.53444">
        <ele>280.84</ele>
        <time>2019-02-03T10:34:04Z</time>
      </trkpt>
      <trkpt lat="43.31679" lon="5.53449">
        <ele>280.84</ele>
        <time>2019-02-03T10:34:07Z</time>
      </trkpt>
      <trkpt lat="43.31674" lon="5.53472">
        <ele>280.84</ele>
        <time>2019-02-03T10:34:20Z</time>
      </trkpt>
      <trkpt lat="43.31666" lon="5.53484">
        <ele>279.4</ele>
        <time>2019-02-03T10:34:30Z</time>
      </trkpt>
      <trkpt lat="43.31664" lon="5.53489">
        <ele>279.4</ele>
        <time>2019-02-03T10:34:32Z</time>
      </trkpt>
      <trkpt lat="43.31661" lon="5.53495">
        <ele>278.92</ele>
        <time>2019-02-03T10:34:39Z</time>
      </trkpt>
      <trkpt lat="43.31656" lon="5.53497">
        <ele>278.44</ele>
        <time>2019-02-03T10:34:42Z</time>
      </trkpt>
      <trkpt lat="43.31649" lon="5.53498">
        <ele>277.48</ele>
        <time>2019-02-03T10:34:48Z</time>
      </trkpt>
      <trkpt lat="43.31641" lon="5.53491">
        <ele>277</ele>
        <time>2019-02-03T10:34:53Z</time>
      </trkpt>
      <trkpt lat="43.31624" lon="5.5348">
        <ele>275.56</ele>
        <time>2019-02-03T10:35:06Z</time>
      </trkpt>
      <trkpt lat="43.31624" lon="5.5348">
        <ele>275.56</ele>
        <time>2019-02-03T10:35:08Z</time>
      </trkpt>
      <trkpt lat="43.3162" lon="5.53475">
        <ele>275.07</ele>
        <time>2019-02-03T10:35:13Z</time>
      </trkpt>
      <trkpt lat="43.31616" lon="5.53472">
        <ele>274.59</ele>
        <time>2019-02-03T10:35:16Z</time>
      </trkpt>
      <trkpt lat="43.31609" lon="5.53466">
        <ele>273.63</ele>
        <time>2019-02-03T10:35:20Z</time>
      </trkpt>
      <trkpt lat="43.316" lon="5.53461">
        <ele>272.67</ele>
        <time>2019-02-03T10:35:25Z</time>
      </trkpt>
      <trkpt lat="43.31582" lon="5.5346">
        <ele>271.71</ele>
        <time>2019-02-03T10:35:38Z</time>
      </trkpt>
      <trkpt lat="43.31578" lon="5.53461">
        <ele>272.19</ele>
        <time>2019-02-03T10:35:40Z</time>
      </trkpt>
      <trkpt lat="43.31566" lon="5.53481">
        <ele>270.27</ele>
        <time>2019-02-03T10:35:53Z</time>
      </trkpt>
      <trkpt lat="43.31564" lon="5.53486">
        <ele>269.79</ele>
        <time>2019-02-03T10:35:57Z</time>
      </trkpt>
      <trkpt lat="43.31563" lon="5.53501">
        <ele>269.31</ele>
        <time>2019-02-03T10:36:04Z</time>
      </trkpt>
      <trkpt lat="43.31561" lon="5.53508">
        <ele>268.35</ele>
        <time>2019-02-03T10:36:08Z</time>
      </trkpt>
      <trkpt lat="43.31563" lon="5.5353">
        <ele>268.83</ele>
        <time>2019-02-03T10:36:19Z</time>
      </trkpt>
      <trkpt lat="43.31562" lon="5.53537">
        <ele>268.35</ele>
        <time>2019-02-03T10:36:23Z</time>
      </trkpt>
      <trkpt lat="43.31562" lon="5.53543">
        <ele>268.35</ele>
        <time>2019-02-03T10:36:26Z</time>
      </trkpt>
      <trkpt lat="43.31562" lon="5.5355">
        <ele>268.35</ele>
        <time>2019-02-03T10:36:29Z</time>
      </trkpt>
      <trkpt lat="43.31562" lon="5.53572">
        <ele>267.86</ele>
        <time>2019-02-03T10:36:40Z</time>
      </trkpt>
      <trkpt lat="43.3156" lon="5.53593">
        <ele>267.38</ele>
        <time>2019-02-03T10:36:52Z</time>
      </trkpt>
      <trkpt lat="43.31561" lon="5.53595">
        <ele>267.38</ele>
        <time>2019-02-03T10:36:53Z</time>
      </trkpt>
      <trkpt lat="43.31559" lon="5.53612">
        <ele>268.35</ele>
        <time>2019-02-03T10:37:05Z</time>
      </trkpt>
      <trkpt lat="43.31557" lon="5.53637">
        <ele>268.35</ele>
        <time>2019-02-03T10:37:16Z</time>
      </trkpt>
      <trkpt lat="43.31556" lon="5.53647">
        <ele>268.35</ele>
        <time>2019-02-03T10:37:21Z</time>
      </trkpt>
      <trkpt lat="43.31556" lon="5.53653">
        <ele>267.38</ele>
        <time>2019-02-03T10:37:25Z</time>
      </trkpt>
      <trkpt lat="43.31544" lon="5.53664">
        <ele>262.58</ele>
        <time>2019-02-03T10:37:35Z</time>
      </trkpt>
      <trkpt lat="43.31543" lon="5.53665">
        <ele>273.15</ele>
        <time>2019-02-03T10:37:36Z</time>
      </trkpt>
      <trkpt lat="43.31541" lon="5.53665">
        <ele>262.58</ele>
        <time>2019-02-03T10:37:37Z</time>
      </trkpt>
      <trkpt lat="43.3154" lon="5.53666">
        <ele>265.94</ele>
        <time>2019-02-03T10:37:38Z</time>
      </trkpt>
      <trkpt lat="43.31539" lon="5.53667">
        <ele>277</ele>
        <time>2019-02-03T10:37:39Z</time>
      </trkpt>
      <trkpt lat="43.31538" lon="5.53667">
        <ele>266.42</ele>
        <time>2019-02-03T10:37:40Z</time>
      </trkpt>
      <trkpt lat="43.31536" lon="5.53667">
        <ele>270.75</ele>
        <time>2019-02-03T10:37:41Z</time>
      </trkpt>
      <trkpt lat="43.31529" lon="5.53669">
        <ele>270.75</ele>
        <time>2019-02-03T10:37:46Z</time>
      </trkpt>
      <trkpt lat="43.31527" lon="5.53671">
        <ele>269.79</ele>
        <time>2019-02-03T10:37:48Z</time>
      </trkpt>
      <trkpt lat="43.31525" lon="5.53671">
        <ele>269.79</ele>
        <time>2019-02-03T10:37:50Z</time>
      </trkpt>
      <trkpt lat="43.31517" lon="5.53674">
        <ele>266.9</ele>
        <time>2019-02-03T10:37:56Z</time>
      </trkpt>
      <trkpt lat="43.31514" lon="5.53675">
        <ele>268.83</ele>
        <time>2019-02-03T10:37:58Z</time>
      </trkpt>
      <trkpt lat="43.315" lon="5.53679">
        <ele>268.35</ele>
        <time>2019-02-03T10:38:09Z</time>
      </trkpt>
    </trkseg>
  </trk>
</gpx>